[[{"header":{"parameterUnit":"m.s-1","parameterCategory":1,"la1":31.0,"la2":29.5877,"lo1":-88.7671,"lo2":-86.6584,"dy":0.0162,"dx":0.0185,"nx":115,"ny":88,"refTime":"2023-09-07T00:00:00:Z","depth":0,"parameterNumber":2,"parameterNumberName":"U-component_of_WINDS"},"data":[0.0,0.0,0.0,0.0,0.0,0.0,0.0,0.0,0.0,0.0,0.0,0.0,0.0,0.0,0.0,0.0,0.0,0.0,0.0,0.0,0.0,0.0,0.0,0.0,0.0,0.0,0.0,0.0,0.0,0.0,0.0,0.0,0.0,0.0,0.0,0.0,0.0,0.0,0.0,0.0,0.0,0.0,0.0,0.0,0.0,0.0,0.0,0.0,0.0,0.0,0.0,0.0,0.0,0.0,0.0,0.0,0.0,0.0,0.0,0.0,0.0,0.0,0.0,0.0,0.0,0.0,0.0,0.0,0.0,0.0,0.0,0.0,0.0,0.0,0.0,0.0,0.0,0.0,0.0,0.0,0.0,0.0,0.0,0.0,0.0,0.0,0.0,0.0,0.0,0.0,0.0,0.0,0.0,0.0,0.0,0.0,0.0,0.0,0.0,0.0,0.0,0.0,0.0,0.0,0.0,0.0,0.0,0.0,0.0,0.0,0.0,0.0,0.0,0.0,0.0,0.0,0.0,0.0,0.0,0.0,0.0,0.0,0.0,0.0,0.0,0.0,0.0,0.0,0.0,0.0,0.0,0.0,0.0,0.0,0.0,0.0,0.0,0.0,0.0,0.0,0.0,0.0,0.0,0.0,0.0,0.0,0.0,0.0,0.0,0.0,0.0,0.0,0.0,0.0,0.0,0.0,0.0,0.0,0.0,0.0,0.0,0.0,0.0,0.0,0.0,0.0,0.0,0.0,0.0,0.0,0.0,0.0,0.0,0.0,0.0,0.0,0.0,0.0,0.0,0.0,0.0,0.0,0.0,0.0,0.0,0.0,0.0,0.0,0.0,0.0,0.0,0.0,0.0,0.0,0.0,0.0,0.0,0.0,0.0,0.0,0.0,0.0,0.0,0.0,0.0,0.0,0.0,0.0,0.0,0.0,0.0,0.0,0.0,0.0,0.0,0.0,0.0,0.0,0.0,0.0,0.0,0.0,0.0,0.0,0.0,0.0,0.0,0.0,0.0,0.0,0.0,0.0,0.0,0.0,0.0,0.0,0.0,0.0,0.0,0.0,0.0,0.0,0.0,0.0,0.0,0.0,0.0,0.0,0.0,0.0,0.0,0.0,0.0,0.0,0.0,0.0,0.0,0.0,0.0,0.0,0.0,0.0,0.0,0.0,0.0,0.0,0.0,0.0,0.0,0.0,0.0,0.0,0.0,0.0,0.0,0.0,0.0,0.0,0.0,0.0,0.0,0.0,0.0,0.0,0.0,0.0,0.0,0.0,0.0,0.0,0.0,0.0,0.0,0.0,0.0,0.0,0.0,0.0,0.0,0.0,0.0,0.0,0.0,0.0,0.0,0.0,0.0,0.0,0.0,0.0,0.0,0.0,0.0,0.0,0.0,0.0,0.0,0.0,0.0,0.0,0.0,0.0,0.0,0.0,0.0,0.0,0.0,0.0,0.0,0.0,0.0,0.0,0.0,0.0,0.0,0.0,0.0,0.0,0.0,0.0,0.0,0.0,0.0,0.0,0.0,0.0,0.0,0.0,0.0,0.0,0.0,0.0,0.0,0.0,0.0,0.0,0.0,0.0,0.0,0.0,0.0,0.0,0.0,0.0,0.0,0.0,0.0,0.0,0.0,0.0,0.0,0.0,0.0,0.0,0.0,0.0,0.0,0.0,0.0,0.0,0.0,0.0,0.0,0.0,0.0,0.0,0.0,0.0,0.0,0.0,0.0,0.0,0.0,0.0,0.0,0.0,0.0,0.0,0.0,0.0,0.0,0.0,0.0,0.0,0.0,0.0,0.0,0.0,0.0,0.0,0.0,0.0,0.0,0.0,0.0,0.0,0.0,0.0,0.0,0.0,0.0,0.0,0.0,0.0,0.0,0.0,0.0,0.0,0.0,0.0,0.0,0.0,0.0,0.0,0.0,0.0,0.0,0.0,0.0,0.0,0.0,0.0,0.0,0.0,0.0,0.0,0.0,0.0,0.0,0.0,0.0,0.0,0.0,0.0,0.0,0.0,0.0,0.0,0.0,0.0,0.0,0.0,0.0,0.0,0.0,0.0,0.0,0.0,0.0,0.0,0.0,0.0,0.0,0.0,0.0,0.0,0.0,0.0,0.0,0.0,0.0,0.0,0.0,0.0,0.0,0.0,0.0,0.0,0.0,0.0,0.0,0.0,0.0,0.0,0.0,0.0,0.0,0.0,0.0,0.0,0.0,0.0,0.0,0.0,0.0,0.0,0.0,0.0,0.0,0.0,0.0,0.0,0.0,0.0,0.0,0.0,0.0,0.0,0.0,0.0,0.0,0.0,0.0,0.0,0.0,0.0,0.0,0.0,0.0,0.0,0.0,0.0,0.0,0.0,0.0,0.0,0.0,0.0,0.0,0.0,0.0,0.0,0.0,0.0,0.0,0.0,0.0,0.0,0.0,0.0,0.0,0.0,0.0,0.0,0.0,0.0,0.0,0.0,0.0,0.0,0.0,0.0,0.0,0.0,0.0,0.0,0.0,0.0,0.0,0.0,0.0,0.0,0.0,0.0,0.0,0.0,0.0,0.0,0.0,0.0,0.0,0.0,0.0,0.0,0.0,0.0,0.0,0.0,0.0,0.0,0.0,0.0,0.0,0.0,0.0,0.0,0.0,0.0,0.0,0.0,0.0,0.0,0.0,0.0,0.0,0.0,0.0,0.0,0.0,0.0,0.0,0.0,0.0,0.0,0.0,0.0,0.0,0.0,0.0,0.0,0.0,0.0,0.0,0.0,0.0,0.0,0.0,0.0,0.0,0.0,0.0,0.0,0.0,0.0,0.0,0.0,0.0,0.0,0.0,0.0,0.0,0.0,0.0,0.0,0.0,0.0,0.0,0.0,0.0,0.0,0.0,0.0,0.0,0.0,0.0,0.0,0.0,0.0,0.0,0.0,0.0,0.0,0.0,0.0,0.0,0.0,0.0,0.0,0.0,0.0,0.0,0.0,0.0,0.0,0.0,0.0,0.0,0.0,0.0,0.0,0.0,0.0,0.0,0.0,0.0,0.0,0.0,0.0,0.0,0.0,0.0,0.0,0.0,0.0,0.0,0.0,0.0,0.0,0.0,0.0,0.0,0.0,0.0,0.0,0.0,0.0,0.0,0.0,0.0,0.0,0.0,0.0,0.0,0.0,0.0,0.0,0.0,0.0,0.0,0.0,0.0,0.0,0.0,0.0,0.0,0.0,0.0,0.0,0.0,0.0,0.0,0.0,0.0,0.0,0.0,0.0,0.0,0.0,0.0,0.0,0.0,0.0,0.0,0.0,0.0,0.0,0.0,0.0,0.0,0.0,0.0,0.0,0.0,0.0,0.0,0.0,0.0,0.0,0.0,0.0,0.0,0.0,0.0,0.0,0.0,0.0,0.0,0.0,0.0,0.0,0.0,0.0,0.0,0.0,0.0,0.0,0.0,0.0,0.0,0.0,0.0,0.0,0.0,0.0,0.0,0.0,0.0,0.0,0.0,0.0,0.0,0.0,0.0,0.0,0.0,0.0,0.0,0.0,0.0,0.0,0.0,0.0,0.0,0.0,0.0,0.0,0.0,0.0,0.0,0.0,0.0,0.0,0.0,0.0,0.0,0.0,0.0,0.0,0.0,0.0,0.0,0.0,0.0,0.0,0.0,0.0,0.0,0.0,0.0,0.0,0.0,0.0,0.0,0.0,0.0,0.0,0.0,0.0,0.0,0.0,0.0,0.0,0.0,0.0,0.0,0.0,0.0,0.0,0.0,0.0,0.0,0.0,0.0,0.0,0.0,0.0,0.0,0.0,0.0,0.0,0.0,0.0,0.0,0.0,0.0,0.0,0.0,0.0,0.0,0.0,0.0,0.0,0.0,0.0,0.0,0.0,0.0,0.0,0.0,0.0,0.0,0.0,0.0,0.0,0.0,0.0,0.0,0.0,0.0,0.0,0.0,0.0,0.0,0.0,0.0,0.0,0.0,0.0,0.0,0.0,0.0,0.0,0.0,0.0,0.0,0.0,0.0,0.0,0.0,0.0,0.0,0.0,0.0,0.0,0.0,0.0,0.0,0.0,0.0,0.0,0.0,0.0,0.0,0.0,0.0,0.0,0.0,0.0,0.0,0.0,0.0,0.0,0.0,0.0,0.0,0.0,0.0,0.0,0.0,0.0,0.0,0.0,0.0,0.0,0.0,0.0,0.0,0.0,0.0,0.0,0.0,0.0,0.0,0.0,0.0,0.0,0.0,0.0,0.0,0.0,0.0,0.0,0.0,0.0,0.0,0.0,-0.4437,0.0,0.0,0.0,0.0,0.0,0.0,0.0,0.0,0.0,0.0,0.0,0.0,0.0,0.0,0.0,0.0,0.0,0.0,0.0,0.0,0.0,0.0,0.0,0.0,0.0,0.0,0.0,0.0,0.0,0.0,0.0,0.0,0.0,0.0,0.0,0.0,0.0,0.0,0.0,0.0,0.0,0.0,0.0,0.0,0.0,0.0,0.0,0.0,0.0,0.0,0.0,0.0,0.0,0.0,0.0,0.0,0.0,0.0,0.0,0.0,0.0,0.0,0.0,0.0,0.0,0.0,0.0,0.0,0.0,0.0,0.0,0.0,0.0,0.0,0.0,0.0,0.0,0.0,0.0,0.0,0.0,0.0,0.0,0.0,0.0,0.0,0.0,0.0,0.0,0.0,0.0,0.0,0.0,0.0,0.0,0.0,0.0,0.0,0.0,0.0,0.0,0.0,0.0,0.0,0.0,0.0,0.0,0.0,0.0,0.0,-0.4757,-0.528,-0.4966,-0.4668,-0.4425,0.0,0.0,0.0,0.0,0.0,0.0,0.0,0.0,0.0,0.0,0.0,0.0,0.0,0.0,0.0,0.0,0.0,0.0,0.0,0.0,0.0,0.0,0.0,0.0,0.0,0.0,0.0,0.0,0.0,0.0,0.0,0.0,0.0,0.0,0.0,0.0,0.0,0.0,0.0,0.0,0.0,0.0,0.0,0.0,0.0,0.0,0.0,0.0,0.0,0.0,0.0,0.0,0.0,0.0,0.0,0.0,0.0,0.0,0.0,0.0,0.0,0.0,0.0,0.0,0.0,0.0,0.0,0.0,0.0,0.0,0.0,0.0,0.0,0.0,0.0,0.0,0.0,0.0,0.0,0.0,0.0,0.0,0.0,0.0,0.0,0.0,0.0,0.0,0.0,0.0,0.0,0.0,0.0,0.0,0.0,0.0,0.0,0.0,0.0,0.0,0.0,0.0,0.0,0.0,0.0,0.0,0.0,0.0,0.0,0.0,0.0,0.0,-0.4955,-0.4755,-0.4382,0.0,0.0,0.0,0.0,0.0,0.0,0.0,0.0,0.0,0.0,0.0,0.0,0.0,0.0,0.0,0.0,0.0,0.0,0.0,0.0,0.0,0.0,0.0,0.0,0.0,0.0,0.0,0.0,0.0,0.0,0.0,0.0,0.0,0.0,0.0,0.0,0.0,0.0,0.0,0.0,0.0,0.0,0.0,0.0,0.0,0.0,0.0,0.0,0.0,0.0,0.0,0.0,0.0,0.0,0.0,0.0,0.0,0.0,0.0,0.0,0.0,0.0,0.0,0.0,0.0,0.0,0.0,0.0,0.0,0.0,0.0,0.0,0.0,0.0,0.0,0.0,0.0,0.0,0.0,0.0,0.0,0.0,0.0,0.0,0.0,0.0,0.0,0.0,0.0,0.0,0.0,0.0,0.0,0.0,0.0,0.0,0.0,0.0,0.0,0.0,0.0,0.0,0.0,0.0,0.0,0.0,0.0,0.0,0.0,0.0,-0.3972,-0.4276,-0.418,0.0,-0.42,0.0,0.0,0.0,0.0,0.0,0.0,0.0,0.0,0.0,0.0,0.0,0.0,0.0,0.0,0.0,0.0,0.0,0.0,0.0,0.0,0.0,0.0,0.0,0.0,0.0,0.0,0.0,0.0,0.0,0.0,0.0,0.0,0.0,0.0,0.0,0.0,0.0,0.0,0.0,0.0,0.0,0.0,0.0,0.0,0.0,0.0,0.0,0.0,0.0,0.0,0.0,0.0,0.0,0.0,0.0,0.0,0.0,0.0,0.0,0.0,0.0,0.0,0.0,0.0,0.0,0.0,0.0,0.0,0.0,0.0,0.0,0.0,0.0,0.0,0.0,0.0,0.0,0.0,0.0,0.0,0.0,0.0,0.0,0.0,0.0,0.0,0.0,0.0,0.0,0.0,0.0,0.0,0.0,0.0,0.0,0.0,0.0,0.0,0.0,0.0,0.0,0.0,0.0,0.0,0.0,0.0,0.0,0.0,0.0,0.0,-0.3834,-0.3968,-0.4095,-0.4152,0.0,0.0,0.0,0.0,0.0,0.0,0.0,0.0,0.0,0.0,0.0,0.0,0.0,0.0,0.0,0.0,0.0,0.0,0.0,0.0,0.0,0.0,0.0,0.0,0.0,0.0,0.0,0.0,0.0,0.0,0.0,0.0,0.0,0.0,0.0,0.0,0.0,0.0,0.0,0.0,0.0,0.0,0.0,0.0,0.0,0.0,0.0,0.0,0.0,0.0,0.0,0.0,0.0,0.0,0.0,0.0,0.0,0.0,0.0,0.0,0.0,0.0,0.0,0.0,0.0,0.0,0.0,0.0,0.0,0.0,0.0,0.0,0.0,0.0,0.0,0.0,0.0,0.0,0.0,0.0,0.0,0.0,0.0,0.0,0.0,0.0,0.0,0.0,0.0,0.0,0.0,0.0,0.0,0.0,0.0,0.0,0.0,0.0,0.0,0.0,0.0,0.0,0.0,0.0,0.0,0.0,0.0,0.0,0.0,0.0,-0.3925,-0.3766,-0.3775,-0.3872,-0.3933,-0.3938,0.0,0.0,0.0,0.0,0.0,0.0,0.0,0.0,0.0,0.0,0.0,0.0,0.0,0.0,0.0,0.0,0.0,0.0,0.0,0.0,0.0,0.0,0.0,0.0,0.0,0.0,0.0,0.0,0.0,0.0,0.0,0.0,0.0,0.0,0.0,0.0,0.0,0.0,0.0,0.0,0.0,0.0,0.0,0.0,0.0,0.0,0.0,0.0,0.0,0.0,0.0,0.0,0.0,0.0,0.0,0.0,0.0,0.0,0.0,0.0,0.0,0.0,0.0,0.0,0.0,0.0,0.0,0.0,0.0,0.0,0.0,0.0,0.0,0.0,0.0,0.0,0.0,0.0,0.0,0.0,0.0,0.0,0.0,0.0,0.0,0.0,0.0,0.0,0.0,0.0,0.0,0.0,0.0,0.0,0.0,0.0,0.0,0.0,0.0,0.0,0.0,0.0,0.0,0.0,0.0,0.0,0.0,0.0,-0.3809,-0.3682,-0.3645,-0.3684,-0.3299,-0.3295,0.0,0.0,0.0,0.0,0.0,0.0,0.0,0.0,0.0,0.0,0.0,0.0,0.0,0.0,0.0,0.0,0.0,0.0,0.0,0.0,0.0,0.0,0.0,0.0,0.0,0.0,0.0,0.0,0.0,0.0,0.0,0.0,0.0,0.0,0.0,0.0,0.0,0.0,0.0,0.0,0.0,0.0,0.0,0.0,0.0,0.0,0.0,0.0,0.0,0.0,0.0,0.0,0.0,0.0,0.0,0.0,0.0,0.0,0.0,0.0,0.0,0.0,0.0,0.0,0.0,0.0,0.0,0.0,0.0,0.0,0.0,0.0,0.0,0.0,0.0,0.0,0.0,0.0,0.0,0.0,0.0,0.0,0.0,0.0,0.0,0.0,0.0,0.0,0.0,0.0,0.0,0.0,0.0,0.0,0.0,0.0,0.0,0.0,0.0,0.0,0.0,0.0,0.0,0.0,0.0,0.0,0.0,0.0,0.0,-0.3397,-0.3265,-0.3314,-0.3491,-0.3342,-0.3209,0.0,0.0,0.0,0.0,0.0,0.0,0.0,0.0,0.0,0.0,0.0,0.0,0.0,0.0,0.0,0.0,0.0,0.0,0.0,0.0,0.0,0.0,0.0,0.0,0.0,0.0,0.0,0.0,0.0,0.0,0.0,0.0,0.0,0.0,0.0,0.0,0.0,0.0,0.0,0.0,0.0,0.0,0.0,0.0,0.0,0.0,0.0,0.0,0.0,0.0,0.0,0.0,0.0,0.0,0.0,0.0,0.0,0.0,0.0,0.0,0.0,0.0,0.0,0.0,0.0,0.0,0.0,0.0,0.0,0.0,0.0,0.0,0.0,0.0,0.0,0.0,0.0,0.0,0.0,0.0,0.0,0.0,0.0,0.0,0.0,0.0,0.0,0.0,0.0,0.0,0.0,0.0,0.0,0.0,0.0,0.0,0.0,0.0,0.0,0.0,0.0,0.0,0.0,0.0,0.0,0.0,0.0,0.0,0.0,-0.3212,0.0,-0.3123,-0.3253,-0.3134,-0.2829,0.0,0.0,0.0,0.0,0.0,0.0,0.0,0.0,0.0,0.0,0.0,0.0,0.0,0.0,0.0,0.0,0.0,0.0,0.0,0.0,0.0,0.0,0.0,0.0,0.0,0.0,0.0,0.0,0.0,0.0,0.0,0.0,0.0,0.0,0.0,0.0,0.0,0.0,0.0,0.0,0.0,0.0,0.0,0.0,0.0,0.0,0.0,0.0,0.0,0.0,0.0,0.0,0.0,0.0,0.0,0.0,0.0,0.0,0.0,0.0,0.0,0.0,0.0,0.0,0.0,0.0,0.0,0.0,0.0,0.0,0.0,0.0,0.0,0.0,0.0,0.0,0.0,0.0,0.0,0.0,0.0,0.0,0.0,0.0,0.0,0.0,0.0,0.0,0.0,0.0,0.0,0.0,0.0,0.0,0.0,0.0,0.0,0.0,0.0,0.0,0.0,0.0,0.0,0.0,0.0,0.0,0.0,0.0,-0.2302,-0.322,-0.3228,-0.3163,-0.3006,-0.2627,-0.2122,0.0,0.0,0.0,0.0,0.0,0.0,0.0,0.0,0.0,0.0,0.0,0.0,0.0,0.0,0.0,0.0,0.0,0.0,0.0,0.0,0.0,0.0,0.0,0.0,0.0,0.0,0.0,0.0,0.0,0.0,0.0,0.0,0.0,0.0,0.0,0.0,0.0,0.0,0.0,0.0,0.0,0.0,0.0,0.0,0.0,0.0,0.0,0.0,0.0,0.0,0.0,0.0,0.0,0.0,0.0,0.0,0.0,0.0,0.0,0.0,0.0,0.0,0.0,0.0,0.0,0.0,0.0,0.0,0.0,0.0,0.0,0.0,0.0,0.0,0.0,0.0,0.0,0.0,0.0,0.0,0.0,0.0,0.0,0.0,0.0,0.0,0.0,0.0,0.0,0.0,0.0,0.0,0.0,0.0,0.0,0.0,0.0,0.0,0.0,0.0,0.0,0.0,0.0,0.0,0.0,0.0,0.0,0.0,0.0,-0.2722,-0.3171,-0.3406,-0.3386,-0.2406,-0.1758,0.0,0.0,0.0,0.0,0.0,0.0,0.0,0.0,0.0,0.0,0.0,0.0,0.0,0.0,0.0,0.0,0.0,0.0,0.0,0.0,0.0,0.0,0.0,0.0,0.0,0.0,0.0,0.0,0.0,0.0,0.0,0.0,0.0,0.0,0.0,0.0,0.0,0.0,0.0,0.0,0.0,0.0,0.0,0.0,0.0,0.0,0.0,0.0,0.0,0.0,0.0,0.0,0.0,0.0,0.0,0.0,0.0,0.0,0.0,0.0,0.0,0.0,0.0,0.0,0.0,0.0,0.0,0.0,0.0,0.0,0.0,0.0,0.0,0.0,0.0,0.0,0.0,0.0,0.0,0.0,0.0,0.0,0.0,0.0,0.0,0.0,0.0,0.0,0.0,0.0,0.0,0.0,0.0,0.0,0.0,0.0,0.0,0.0,0.0,0.0,0.0,0.0,0.0,0.0,0.0,0.0,0.0,0.0,0.0,-0.3131,-0.3668,-0.3946,-0.3959,-0.32,-0.2485,-0.1837,0.0,0.0,0.0,0.0,0.0,0.0,0.0,0.0,0.0,0.0,0.0,0.0,0.0,0.0,0.0,0.0,0.0,0.0,0.0,0.0,0.0,0.0,0.0,0.0,0.0,0.0,0.0,0.0,0.0,0.0,0.0,0.0,0.0,0.0,0.0,0.0,0.0,0.0,0.0,0.0,0.0,0.0,0.0,0.0,0.0,0.0,0.0,0.0,0.0,0.0,0.0,0.0,0.0,0.0,0.0,0.0,0.0,0.0,0.0,0.0,0.0,0.0,0.0,0.0,0.0,0.0,0.0,0.0,0.0,0.0,0.0,0.0,0.0,0.0,0.0,0.0,0.0,0.0,0.0,0.0,0.0,0.0,0.0,0.0,0.0,0.0,0.0,0.0,0.0,0.0,0.0,0.0,0.0,0.0,0.0,0.0,0.0,0.0,0.0,0.0,0.0,0.0,0.0,0.0,0.0,0.0,0.0,0.0,-0.43,-0.4697,-0.4873,-0.4712,-0.4751,-0.4043,0.0,0.0,0.0,0.0,0.0,0.0,0.0,0.0,0.0,0.0,0.0,0.0,0.0,0.0,0.0,0.0,0.0,0.0,0.0,0.0,0.0,0.0,0.0,0.0,0.0,0.0,0.0,0.0,0.0,0.0,0.0,0.0,0.0,0.0,0.0,0.0,0.0,0.0,0.0,0.0,0.0,0.0,0.0,0.0,0.0,0.0,0.0,0.0,0.0,0.0,0.0,0.0,0.0,0.0,0.0,0.0,0.0,0.0,0.0,0.0,0.0,0.0,0.0,0.0,0.0,0.0,0.0,0.0,0.0,0.0,0.0,0.0,0.0,0.0,0.0,0.0,0.0,0.0,0.0,0.0,0.0,0.0,0.0,0.0,0.0,0.0,0.0,0.0,0.0,0.0,0.0,0.0,0.0,0.0,0.0,0.0,0.0,0.0,0.0,0.0,0.0,0.0,0.0,0.0,0.0,0.0,0.0,0.0,0.0,-0.5421,-0.6706,-0.6901,-0.5957,-0.5341,-0.4751,0.0,0.0,0.0,0.0,0.0,0.0,0.0,0.0,0.0,0.0,0.0,0.0,0.0,0.0,0.0,0.0,0.0,0.0,0.0,0.0,0.0,0.0,0.0,0.0,0.0,0.0,0.0,0.0,0.0,0.0,0.0,0.0,0.0,0.0,0.0,0.0,0.0,0.0,0.0,0.0,0.0,0.0,0.0,0.0,0.0,0.0,0.0,0.0,0.0,0.0,0.0,0.0,0.0,0.0,0.0,0.0,0.0,0.0,0.0,0.0,0.0,0.0,0.0,0.0,0.0,0.0,0.0,0.0,0.0,0.0,0.0,0.0,0.0,0.0,0.0,0.0,0.0,0.0,0.0,0.0,0.0,0.0,0.0,0.0,0.0,0.0,0.0,0.0,0.0,0.0,0.0,0.0,0.0,0.0,0.0,0.0,0.0,0.0,0.0,0.0,0.0,0.0,0.0,0.0,0.0,0.0,0.0,0.0,-0.4196,-0.6253,-0.7702,-0.8441,-0.8412,-0.7388,-0.6455,0.0,0.0,0.0,0.0,0.0,0.0,0.0,0.0,0.0,0.0,0.0,0.0,0.0,0.0,0.0,0.0,0.0,0.0,0.0,0.0,0.0,0.0,0.0,0.0,0.0,0.0,0.0,0.0,0.0,0.0,0.0,0.0,0.0,0.0,0.0,0.0,0.0,0.0,0.0,0.0,0.0,0.0,0.0,0.0,0.0,0.0,0.0,0.0,0.0,0.0,0.0,0.0,0.0,0.0,0.0,0.0,0.0,0.0,0.0,0.0,0.0,0.0,0.0,0.0,0.0,0.0,0.0,0.0,0.0,0.0,0.0,0.0,0.0,0.0,0.0,0.0,0.0,0.0,0.0,0.0,0.0,0.0,0.0,0.0,0.0,0.0,0.0,0.0,0.0,0.0,0.0,0.0,0.0,0.0,0.0,0.0,0.0,0.0,0.0,0.0,0.0,0.0,0.0,0.0,0.0,0.0,0.0,0.0,-0.4466,-0.6907,-0.8208,-0.9684,-1.1337,-1.0086,-0.8633,0.0,0.0,0.0,0.0,0.0,0.0,0.0,0.0,0.0,0.0,0.0,0.0,0.0,0.0,0.0,0.0,0.0,0.0,0.0,0.0,0.0,0.0,0.0,0.0,0.0,0.0,0.0,0.0,0.0,0.0,0.0,0.0,0.0,0.0,0.0,0.0,0.0,0.0,0.0,0.0,0.0,0.0,0.0,0.0,0.0,0.0,0.0,0.0,0.0,0.0,0.0,0.0,0.0,0.0,0.0,0.0,0.0,0.0,0.0,0.0,0.0,0.0,0.0,0.0,0.0,0.0,0.0,0.0,0.0,0.0,0.0,0.0,0.0,0.0,0.0,0.0,0.0,0.0,0.0,0.0,0.0,0.0,0.0,0.0,0.0,0.0,0.0,0.0,0.0,0.0,0.0,0.0,0.0,0.0,0.0,0.0,0.0,0.0,0.0,0.0,0.0,0.0,0.0,0.0,0.0,0.0,0.0,0.0,-0.503,-0.798,-0.9309,-1.0993,-1.3184,-1.132,-0.9379,0.0,0.0,0.0,0.0,0.0,0.0,0.0,0.0,0.0,0.0,0.0,0.0,0.0,0.0,0.0,0.0,0.0,0.0,0.0,0.0,0.0,0.0,0.0,0.0,0.0,0.0,0.0,0.0,0.0,0.0,0.0,0.0,0.0,0.0,0.0,0.0,0.0,0.0,0.0,0.0,0.0,0.0,0.0,0.0,0.0,0.0,0.0,0.0,-0.6427,0.0,0.0,0.0,0.0,0.0,0.0,0.0,0.0,0.0,0.0,0.0,0.0,0.0,0.0,0.0,0.0,0.0,0.0,0.0,0.0,0.0,0.0,0.0,0.0,0.0,0.0,0.0,0.0,0.0,0.0,0.0,0.0,0.0,0.0,0.0,0.0,0.0,0.0,0.0,0.0,0.0,0.0,0.0,0.0,0.0,0.0,0.0,0.0,0.0,0.0,0.0,0.0,0.0,0.0,0.0,0.0,0.0,0.0,0.0,-0.5667,-0.8415,-1.0041,-1.1747,-1.3411,-1.2485,-1.0805,0.0,0.0,0.0,0.0,0.0,0.0,0.0,0.0,0.0,0.0,0.0,0.0,0.0,0.0,0.0,0.0,0.0,0.0,0.0,0.0,0.0,0.0,0.0,0.0,0.0,0.0,0.0,0.0,0.0,0.0,0.0,0.0,0.0,0.0,0.0,0.0,0.0,0.0,0.0,0.0,0.0,0.0,0.0,0.0,0.0,0.0,0.0,0.0,0.0,0.0,0.0,0.0,0.0,0.0,0.0,0.0,0.0,0.0,0.0,0.0,0.0,0.0,0.0,0.0,0.0,0.0,0.0,0.0,0.0,0.0,0.0,0.0,0.0,0.0,0.0,0.0,0.0,0.0,0.0,0.0,0.0,0.0,0.0,0.0,0.0,0.0,0.0,0.0,0.0,0.0,0.0,0.0,0.0,0.0,0.0,0.0,0.0,0.0,0.0,0.0,0.0,0.0,0.0,0.0,0.0,0.0,0.0,-0.4155,-0.6279,-0.873,-1.0606,-1.2141,-1.3301,-1.338,-1.2051,-0.9369,0.0,0.0,0.0,0.0,0.0,0.0,0.0,0.0,0.0,0.0,0.0,0.0,0.0,0.0,0.0,0.0,0.0,0.0,0.0,0.0,0.0,0.0,0.0,0.0,0.0,0.0,0.0,0.0,0.0,0.0,0.0,0.0,0.0,0.0,0.0,0.0,0.0,0.0,0.0407,0.0089,0.0,0.0,0.0,0.0,0.0,0.0,0.0,0.0,-0.5294,0.0,0.0,0.0,0.0,0.0,0.0,0.0,0.0,0.0,0.0,0.0,0.0,0.0,0.0,0.0,0.0,0.0,0.0,0.0,0.0,0.0,0.0,0.0,0.0,0.0,0.0,0.0,0.0,0.0,0.0,0.0,0.0,0.0,0.0,0.0,0.0,0.0,0.0,0.0,0.0,0.0,0.0,0.0,0.0,0.0,0.0,0.0,0.0,0.0,0.0,0.0,0.0,0.0,0.0,0.0,0.0,-0.389,-0.4974,-0.6866,-0.9621,-1.1041,-1.2323,-1.3472,-1.3349,-1.1902,-0.9145,0.0,0.0,0.0,0.0,0.0,0.0,0.0,0.0,0.0,0.0,0.0,0.0,0.0,0.0,0.0,0.0,0.0,0.0,0.0,0.0,0.0,0.0,0.0,0.0,0.0,0.0,0.0,0.0,0.0,0.0,0.0,0.0,0.0,0.0,0.0,0.0,0.0,0.0,0.0,-0.0181,-0.0412,0.0,0.0,0.0,0.0,0.0,0.0,0.0,0.0,-0.6938,0.0,0.0,0.0,0.0,0.0,0.0,0.0,0.0,0.0,0.0,0.0,0.0,0.0,0.0,0.0,0.0,0.0,0.0,0.0,0.0,0.0,0.0,0.0,0.0,0.0,0.0,0.0,0.0,0.0,0.0,0.0,0.0,0.0,0.0,0.0,0.0,0.0,0.0,0.0,0.0,0.0,0.0,0.0,0.0,0.0,0.0,0.0,0.0,0.0,0.0,0.0,0.0,0.0,0.0,0.0,-0.4159,-0.556,-0.7472,-0.9872,-1.0972,-1.1928,-1.2708,-1.1883,-1.0418,0.0,0.0,0.0,0.0,0.0,0.0,0.0,0.0,0.0,0.0,0.0,0.0,0.0,0.0,0.0,0.0,0.0,0.0,0.0,0.0,0.0,0.0,0.0,0.0,0.0,0.0,0.0,0.0,0.0,0.0,0.0,0.0,0.0,0.0,0.0,0.0,0.0,0.0,0.0,0.0,-0.0105,-0.0301,-0.132,0.0,0.0,0.0,0.0,0.0,0.0,-0.6304,-0.6835,0.0,0.0,0.0,0.0,0.0,0.0,0.0,0.0,0.0,0.0,0.0,0.0,0.0,0.0,0.0,0.0,0.0,0.0,0.0,0.0,0.0,0.0,0.0,0.0,0.0,0.0,0.0,0.0,0.0,0.0,0.0,0.0,0.0,0.0,0.0,0.0,0.0,0.0,0.0,0.0,0.0,0.0,0.0,0.0,0.0,0.0,0.0,0.0,0.0,0.0,0.0,0.0,0.0,0.0,0.0,-0.4279,-0.6027,-0.7931,-0.9893,-1.0742,-1.1349,-1.1753,-1.0472,-0.9055,0.0,0.0,0.0,0.0,0.0,0.0,0.0,0.0,0.0,0.0,0.0,0.0,0.0,0.0,0.0,0.0,0.0,0.0,0.0,0.0,0.0,0.0,0.0,0.0,0.0,0.0,0.0,0.0,0.0,0.0,0.0,0.0,0.0,0.0,0.0,0.0,0.0,0.0,0.0,0.0,0.0,-0.0514,-0.2047,-0.3466,0.0,0.0,0.0,0.0,-0.6039,-0.6957,0.0,0.0,0.0,0.0,0.0,0.0,0.0,0.0,0.0,0.0,0.0,0.0,0.0,0.0,0.0,0.0,0.0,0.0,0.0,0.0,0.0,0.0,0.0,0.0,0.0,0.0,0.0,0.0,0.0,0.0,0.0,0.0,0.0,0.0,0.0,0.0,0.0,0.0,0.0,0.0,0.0,0.0,0.0,0.0,0.0,0.0,0.0,0.0,0.0,0.0,0.0,0.0,0.0,0.0,0.0,0.0,-0.4819,-0.6302,-0.7969,-0.9738,-1.0545,-1.1002,-1.1104,-1.0316,-0.9103,0.0,0.0,0.0,0.0,0.0,0.0,0.0,0.0,0.0,0.0,0.0,0.0,0.0,0.0,0.0,0.0,0.0,0.0,0.0,0.0,0.0,0.0,0.0,0.0,0.0,0.0,0.0,0.0,0.0,0.0,0.0,0.0,0.0,0.0,0.0,0.0,0.0,0.0,0.0,0.0,0.0,-0.1576,-0.29,-0.4785,-0.6293,0.0,0.0,-0.5327,-0.7077,-0.7755,0.0,0.0,0.0,0.0,0.0,0.0,0.0,0.0,0.0,0.0,0.0,0.0,0.0,0.0,0.0,0.0,0.0,0.0,0.0,0.0,0.0,0.0,0.0,0.0,0.0,0.0,0.0,0.0,0.0,0.0,0.0,0.0,0.0,0.0,0.0,0.0,0.0,0.0,0.0,0.0,0.0,0.0,0.0,0.0,0.0,0.0,0.0,0.0,0.0,0.0,0.0,0.0,0.0,0.0,0.0,-0.4003,-0.524,-0.6619,-0.8241,-1.0008,-1.0209,-1.0432,-1.0753,-0.9578,-0.8305,0.0,0.0,0.0,0.0,0.0,0.0,0.0,0.0,0.0,0.0,0.0,0.0,0.0,0.0,0.0,0.0,0.0,0.0,0.0,0.0,0.0,0.0,0.0,0.0,0.0,0.0,0.0,0.0,0.0,0.0,0.0,0.0,0.0,0.0,0.0,0.0,0.0,0.0,0.0,0.0,0.0,0.0,-0.3071,-0.5757,0.0,0.0,0.0,-0.6641,-0.792,0.0,0.0,0.0,0.0,0.0,0.0,0.0,0.0,0.0,0.0,0.0,0.0,0.0,0.0,0.0,0.0,0.0,0.0,0.0,0.0,0.0,0.0,0.0,0.0,0.0,0.0,0.0,0.0,0.0,0.0,0.0,0.0,0.0,0.0,0.0,0.0,0.0,0.0,0.0,0.0,0.0,0.0,0.0,0.0,0.0,0.0,0.0,0.0,0.0,0.0,0.0,0.0,0.0,0.0,0.0,0.0,0.0,-0.5582,-0.6887,-0.8403,-1.0057,-0.9892,-0.9948,-1.0346,-0.907,0.0,0.0,0.0,0.0,0.0,0.0,0.0,0.0,0.0,0.0,0.0,0.0,0.0,0.0,0.0,0.0,0.0,0.0,0.0,0.0,0.0,0.0,0.0,0.0,0.0,0.0,0.0,0.0,0.0,0.0,0.0,0.0,0.0,0.0,0.0,0.0,0.0,0.0,0.0,0.0,0.0,0.0,-0.003,-0.3046,-0.6518,-0.861,0.0,0.0,-0.7528,-0.8506,-0.9377,-0.9077,0.0,0.0,0.0,0.0,0.0,0.0,0.0,0.0,0.0,0.0,0.0,0.0,0.0,0.0,0.0,0.0,0.0,0.0,0.0,0.0,0.0,0.0,0.0,0.0,0.0,0.0,0.0,0.0,0.0,0.0,0.0,0.0,0.0,0.0,0.0,0.0,0.0,0.0,0.0,0.0,0.0,0.0,0.0,0.0,0.0,0.0,0.0,0.0,0.0,0.0,0.0,0.0,0.0,0.0,-0.4757,-0.5793,-0.7037,-0.8347,-0.9696,-0.9668,-0.967,-0.9826,-0.9206,-0.8378,0.0,0.0,0.0,0.0,0.0,0.0,0.0,0.0,0.0,0.0,0.0,0.0,0.0,0.0,0.0,0.0,0.0,0.0,0.0,0.0,0.0,0.0,0.0,0.0,0.0,0.0,0.0,0.0,0.0,0.0,0.0,0.0,0.0,0.0,0.0,0.0,0.0,0.0,0.0,0.0,0.0,-0.1056,-0.2811,-0.7029,-0.9863,0.0,-0.8318,-0.7733,-0.8736,-0.9739,-0.9447,-0.661,0.0,0.0,0.0,0.0,0.0,0.0,0.0,0.0,0.0,0.0,0.0,0.0,0.0,0.0,0.0,0.0,0.0,0.0,0.0,0.0,0.0,0.0,0.0,0.0,0.0,0.0,0.0,0.0,0.0,0.0,0.0,0.0,0.0,0.0,0.0,0.0,0.0,0.0,0.0,0.0,0.0,0.0,0.0,0.0,0.0,0.0,0.0,0.0,0.0,0.0,0.0,0.0,0.0,-0.5603,-0.6117,-0.7653,-0.8924,-0.9842,-0.9854,-0.9854,-0.9854,-0.9629,-0.8867,0.0,0.0,0.0,0.0,0.0,0.0,0.0,0.0,0.0,0.0,0.0,0.0,0.0,0.0,0.0,0.0,0.0,0.0,0.0,0.0,0.0,0.0,0.0,0.0,0.0,0.0,0.0,0.0,0.0,-0.004,-0.0185,0.0,0.0,0.0,0.0,0.0,0.0,0.0,0.0,0.0,0.0,-0.347,-0.4572,-0.748,0.0,0.0,-0.9276,-0.8958,-0.9326,-0.8577,-0.7531,-0.6306,-0.4403,0.0,0.0,0.0,0.0,0.0,0.0,0.0,0.0,0.0,0.0,0.0,0.0,0.0,0.0,0.0,0.0,0.0,0.0,0.0,0.0,0.0,0.0,0.0,0.0,0.0,0.0,0.0,0.0,0.0,0.0,0.0,0.0,0.0,0.0,0.0,0.0,0.0,0.0,0.0,0.0,0.0,0.0,0.0,0.0,0.0,0.0,0.0,0.0,0.0,0.0,0.0,0.0,-0.6235,-0.6517,-0.8105,-0.9304,-1.0046,-1.0046,-1.0021,-1.0008,-1.0008,-0.9385,0.0,0.0,0.0,0.0,0.0,0.0,0.0,0.0,0.0,0.0,0.0,0.0,0.0,0.0,0.0,0.0,0.0,0.0,0.0,0.0,0.0,0.0,0.0,0.0,0.0,0.0,0.0,0.0,-0.0115,-0.003,-0.0142,0.0,0.0,0.0,0.0,0.0,0.0,0.0,0.0,0.0,0.0,-0.5203,-0.6237,-0.8054,-0.9381,-0.96,-0.9745,-0.9676,-0.9356,-0.793,-0.6639,-0.5984,0.0,0.0,0.0,0.0,0.0,0.0,0.0,0.0,0.0,0.0,0.0,0.0,0.0,0.0,0.0,0.0,0.0,0.0,0.0,0.0,0.0,0.0,0.0,0.0,0.0,0.0,0.0,-0.2024,0.0,0.0,-0.0258,0.0,0.0,0.0,0.0,0.0,0.0,0.0,0.0,0.0,0.0,0.0,0.0,0.0,0.0,0.0,0.0,0.0,0.0,0.0,0.0,0.0,0.0,-0.6541,-0.6999,-0.8368,-0.9403,-1.0173,-1.0135,-1.0199,-1.0313,-1.0236,-0.9938,-0.9351,0.0,0.0,0.0,0.0,0.0,0.0,0.0,0.0,0.0,0.0,0.0,0.0,0.0,0.0,0.0,0.0,0.0,0.0,0.0,0.0,0.0,0.0,0.0,0.0,0.0,0.0,-0.0927,-0.0356,-0.0011,0.0,0.0,0.0,0.0,0.0,0.0,0.0,0.0,0.0,-0.5274,-0.5329,-0.5895,-0.745,-0.8758,-0.94,-0.8903,-0.9465,-0.9613,-0.8517,-0.8031,-0.7302,0.0,0.0,0.0,0.0,0.0,0.0,0.0,0.0,0.0,0.0,0.0,0.0,0.0,0.0,0.0,0.0,0.0,0.0,0.0,0.0,0.0,0.0,0.0,0.0,0.0,0.0,0.0,-0.8469,-0.6786,0.0,0.0,0.0,0.0,0.0,0.0,0.0,0.0,0.0,0.0,0.0,-1.2568,-1.2862,0.0,0.0,0.0,0.0,0.0,0.0,0.0,0.0,0.0,0.0,0.0,0.0,-0.7961,-0.754,-0.9478,-1.0677,-1.0926,-1.132,-1.1504,-1.1559,-1.1531,-1.1004,-0.9964,0.0,0.0,0.0,0.0,0.0,0.0,0.0,0.0,0.0,0.0,0.0,0.0,0.0,0.0,0.0,0.0,0.0,0.0,0.0,0.0,0.0,0.0,0.0,0.0,0.0,-0.246,0.0,0.0,0.0,0.0,0.0,0.0,0.0,0.0,0.0,0.0,0.0,-0.6305,-0.7132,-0.7766,-0.8394,-0.9004,-0.9306,-0.9249,0.0,0.0,0.0,0.0,0.0,0.0,0.0,0.0,0.0,0.0,0.0,0.0,0.0,0.0,-0.5631,-0.3052,-0.2512,-0.2526,-0.2789,0.0,0.0,0.0,0.0,0.0,0.0,0.0,0.0,0.0,0.0,0.0,0.0,0.0,0.0,-1.1193,-1.0291,-0.8571,0.0,0.0,0.0,0.0,0.0,0.0,0.0,0.0,-1.3539,-1.4735,-1.5619,-1.6084,-1.6219,-1.6087,-1.5609,-1.349,0.0,0.0,0.0,0.0,0.0,0.0,0.0,0.0,-0.8521,-0.8231,-1.0254,-1.1495,-1.188,-1.2163,-1.2325,-1.234,-1.2426,-1.1926,-1.0829,-1.0361,-0.9482,0.0,0.0,0.0,0.0,0.0,0.0,0.0,0.0,0.0,0.0,0.0,0.0,0.0,0.0,0.0,0.0,0.0,0.0,0.0,0.0,0.0,0.0,0.0,-0.2844,0.0,0.0,0.0,0.0,0.0,0.0,0.0,0.0,0.0,-0.7781,-0.7795,-0.7971,-0.8805,-0.9636,-1.0035,-0.9655,0.0,0.0,0.0,0.0,0.0,0.0,0.0,-0.7152,-0.7793,-0.801,-0.7824,-0.7019,-0.6173,-0.5917,-0.6818,0.0,0.0,-0.5278,-0.4866,-0.4803,-0.4853,-0.5529,-0.6455,-0.7566,-0.6576,-0.5305,0.0,0.0,0.0,0.0,-1.1212,0.0,0.0,0.0,-1.2969,-1.285,0.0,-1.2419,0.0,0.0,0.0,0.0,-1.2823,-1.3038,0.0,0.0,-1.6901,-1.8165,-1.8917,-1.8906,-1.9286,-2.0076,-1.9984,-1.9113,-1.7365,-1.2638,0.0,0.0,0.0,0.0,0.0,0.0,-0.8372,-0.9135,-1.0711,-1.1992,-1.2934,-1.274,-1.2607,-1.2705,-1.2955,-1.2742,-1.2022,-1.2389,-1.1871,-1.0187,-0.9796,0.0,0.0,0.0,0.0,0.0,0.0,0.0,0.0,0.0,0.0,0.0,0.0,0.0,0.0,0.0,0.0,0.0,0.0,0.0,0.0,-0.3032,0.0,0.0,0.0,0.0,0.0,0.0,0.0,0.0,0.0,-0.7893,-1.0004,-0.9654,-0.9441,-1.023,0.0,0.0,0.0,0.0,-0.9106,-0.8798,-0.8586,-0.8315,-0.7949,-0.7979,-0.8003,-0.7991,0.0,0.0,-0.8363,-0.8105,-0.7668,-0.6975,-0.738,-0.7659,-0.7241,-0.7098,-0.7191,-0.7206,-0.7745,-0.8592,-0.9311,-0.7934,-0.6452,-1.7238,0.0,0.0,0.0,0.0,-1.4349,-1.4783,-1.5151,-1.6276,-1.5831,-1.4428,-1.5684,0.0,0.0,0.0,0.0,0.0,0.0,-1.6842,-1.9363,-2.007,-2.1095,-2.2345,-2.2409,-2.2507,-2.2704,-2.2688,-2.1582,-1.9522,-1.7978,-1.5229,-1.138,0.0,0.0,0.0,0.0,-1.0122,-0.972,-1.1996,-1.3233,-1.3208,-1.3767,-1.414,-1.423,-1.4439,-1.417,-1.3375,-1.3688,-1.3361,-1.2269,-1.2301,0.0,0.0,0.0,0.0,0.0,0.0,0.0,0.0,0.0,0.0,0.0,0.0,0.0,0.0,0.0,0.0,0.0,0.0,0.0,-0.3865,-0.3369,-0.2929,0.0,0.0,0.0,0.0,0.0,0.0,0.0,0.0,0.0,-1.1198,-1.0762,-1.0439,0.0,0.0,-1.168,-1.0335,-0.9467,-0.891,-0.8811,-0.8752,0.0,-0.8321,-0.9163,-0.9735,-0.9549,-0.9389,-0.9259,-0.9208,-0.9069,-0.8967,-0.8699,-0.7941,-0.7242,-0.72,-0.7763,-0.8557,-0.9317,-0.9395,-0.9244,-0.9383,-0.8661,-0.7856,-2.1265,-1.8726,-1.6924,-1.617,-1.6132,-1.657,-1.6924,-1.7251,-1.8258,-1.7972,-1.6917,-1.8388,-1.9299,-1.9531,-1.7096,0.0,0.0,0.0,-1.9596,-2.2375,-2.2566,-2.3288,-2.4464,-2.453,-2.468,-2.493,-2.4597,-2.367,-2.2241,-2.1544,-1.9364,-1.5744,0.0,-1.2727,-1.1601,-1.2085,-1.2047,-1.1551,-1.3157,-1.3997,-1.3929,-1.448,-1.4902,-1.5041,-1.4947,-1.4602,-1.4012,-1.4174,-1.3929,-1.316,-1.4026,-1.3298,0.0,0.0,0.0,0.0,0.0,0.0,0.0,0.0,0.0,0.0,0.0,-0.126,-0.4158,0.0,0.0,0.0,-0.1731,-0.3618,-0.5478,-0.4738,0.0,0.0,0.0,0.0,0.0,0.0,0.0,-0.9958,-1.0437,-1.0922,-1.1379,-1.1099,-1.0933,-1.1201,-1.1791,-1.1763,-1.0663,0.0,-0.9783,-0.9556,-0.9112,-0.8752,-0.8599,-0.9728,-1.045,-1.0057,-0.9616,-0.9419,-0.947,-0.9253,-0.891,-0.8615,-0.8316,-0.7854,-0.6905,-0.7844,-0.9193,-1.0292,-0.9983,-0.9536,-0.9478,-0.901,-0.8582,-2.3884,-2.2738,-1.8986,-1.7733,-1.8216,-1.8339,-1.8658,-1.9156,-1.9507,-1.9523,-1.9435,-2.0751,-2.2167,-2.3358,-1.986,0.0,-2.0668,-2.0787,-2.2132,-2.4362,-2.4475,-2.4922,-2.5692,-2.5628,-2.5982,-2.6674,-2.5866,-2.538,-2.5096,-2.3588,-2.1937,-2.006,-1.7341,-1.564,-1.5117,-1.4347,-1.4065,-1.422,-1.4313,-1.4598,-1.4997,-1.5077,-1.5217,-1.54,-1.4833,-1.4369,-1.4099,-1.4041,-1.3751,-1.3285,-1.4923,-1.4788,-1.2398,0.0,0.0,0.0,0.0,0.0,0.0,0.0,0.0,0.0,0.0,0.0,0.0,0.0,0.0,0.0,-0.2677,0.0,-0.7314,-0.7021,0.0,0.0,0.0,-0.9745,-0.9237,-1.3566,-1.5349,-1.2087,0.0,0.0,-1.0777,-1.0786,-1.1058,-1.1213,-1.1398,-1.13,-1.0701,-1.1046,-1.1247,-1.0488,-0.9588,-0.8958,-0.8985,-0.9846,-1.0358,-0.9739,-0.9294,-0.9209,-0.9331,-0.8912,-0.8103,-0.7835,-0.8777,-0.9246,-0.7046,-0.8138,-0.9348,-1.0281,-0.9977,-0.9524,-0.9524,-0.9095,-0.892,-2.2961,-2.179,-2.1218,-2.0903,-2.0777,-2.0729,-2.0896,-2.1308,-2.2039,-2.1326,-1.9803,-2.2747,-2.442,-2.4944,-2.3022,-2.2736,-2.3735,-2.3951,-2.4746,-2.5984,-2.6218,-2.6368,-2.6604,-2.6621,-2.6622,-2.6623,-2.6438,-2.5882,-2.5076,-2.4525,-2.3161,-2.0973,-2.005,-1.8385,-1.601,-1.5646,-1.545,-1.5399,-1.6291,-1.6784,-1.6783,-1.6413,-1.6213,-1.6133,-1.564,-1.4964,-1.407,-1.3544,-1.347,-1.3902,-1.4193,-1.4462,-1.4633,-1.1318,0.0,0.0,0.0,0.0,0.0,0.0,0.0,0.0,0.0,-0.2111,-0.637,0.0,-0.4457,0.0,-0.6471,-0.9181,-1.1025,-1.0656,0.0,0.0,-1.0577,-1.179,-1.0898,-1.2876,-1.4593,-1.5522,-1.4382,-1.2805,-1.1097,-1.0966,-1.1009,-1.0929,-1.0857,-1.0785,-1.0638,-1.0728,-1.0561,-0.9964,-0.9991,-0.9987,-0.9606,-1.0074,-1.0392,-0.9781,-0.9678,-0.9513,-0.9005,-0.8771,-0.8989,-1.0186,-1.0251,-1.021,-1.0214,-1.0033,-0.965,-0.9756,-0.9798,-0.9786,-0.9518,-0.9285,-0.9163,-2.427,-2.3483,-2.3931,-2.3794,-2.3269,-2.2556,-2.2173,-2.2171,-2.3072,-2.2547,-2.1182,-2.4175,-2.5459,-2.5248,-2.4468,-2.4475,-2.5044,-2.5179,-2.5799,-2.6691,-2.6859,-2.6926,-2.6959,-2.6959,-2.6876,-2.6725,-2.664,-2.6216,-2.5574,-2.512,-2.3962,-2.2149,-2.1342,-2.0162,-1.861,-1.721,-1.6424,-1.6278,-1.7126,-1.75,-1.7478,-1.7806,-1.7611,-1.6869,-1.6068,-1.514,-1.407,-1.3458,-1.3067,-1.2974,-1.3645,-1.4083,-1.4169,-1.1131,-0.7864,0.0,0.0,0.0,0.0,0.0,0.0,0.0,0.0,0.0,0.0,0.0,-0.795,-0.7641,-0.9429,-1.1313,-1.3032,-1.258,-1.1758,-1.0867,-1.2696,-1.3578,-1.2434,-1.3006,-1.4021,-1.5254,-1.4716,-1.3495,-1.154,-1.1152,-1.1027,-1.088,-1.0735,-1.0523,-1.0385,-1.0241,-0.9926,-0.9612,-0.9862,-1.0153,-1.0046,-1.0217,-1.021,-0.9894,-0.9768,-0.9528,-0.8713,-0.844,-0.9144,-1.1365,-1.1503,-1.1301,-1.1905,-1.1411,-1.0735,-1.0492,-1.006,-0.9617,-0.9107,-0.907,-0.9143,-2.6326,-2.603,-2.6299,-2.6001,-2.525,-2.4199,-2.3295,-2.257,-2.3498,-2.3595,-2.318,-2.5324,-2.5822,-2.5141,-2.5106,-2.5295,-2.5547,-2.5564,-2.6017,-2.6859,-2.6926,-2.6942,-2.6975,-2.6926,-2.6893,-2.6826,-2.6691,-2.6468,-2.6227,-2.5487,-2.4503,-2.3275,-2.1951,-2.1349,-2.1389,-1.8888,-1.7502,-1.7423,-1.7662,-1.78,-1.7815,-1.9036,-1.9001,-1.7562,-1.6362,-1.5242,-1.4256,-1.3655,-1.2896,-1.1898,-1.3071,-1.348,-1.2789,-1.1108,-0.9408,0.0,-0.7102,0.0,0.0,0.0,0.0,0.0,0.0,0.0,0.0,-0.9013,-1.0585,-1.169,-1.1767,-1.2456,-1.4116,-1.3643,-1.3007,-1.2544,-1.4205,-1.4883,-1.3683,-1.3511,-1.3511,-1.3511,-1.4362,-1.4119,-1.2056,-1.1435,-1.1133,-1.1081,-1.0918,-1.0588,-1.0251,-0.9871,-0.9612,-0.9478,-0.9478,-0.9779,-1.0388,-1.0345,-1.0147,-0.9956,-0.9838,-0.9453,-0.8722,-0.8242,-0.8965,-1.1707,-1.2282,-1.2228,-1.2498,-1.2174,-1.1722,-1.0931,-0.9937,-0.9144,-0.8857,-0.8925,-0.9034,-2.6338,-2.5916,-2.6068,-2.5623,-2.5017,-2.6252,-2.5765,-2.4175,-2.4736,-2.5196,-2.554,-2.6179,-2.6334,-2.62,-2.6216,-2.6233,-2.6302,-2.6404,-2.6573,-2.6725,-2.6973,-2.7023,-2.6909,-2.6959,-2.6826,-2.6589,-2.6536,-2.6345,-2.599,-2.5822,-2.487,-2.3234,-2.286,-2.2168,-2.1031,0.0,0.0,0.0,-1.9596,-1.9331,-1.9366,-1.9591,-1.926,-1.8313,-1.7028,0.0,-1.4868,-1.4153,-1.3822,-1.3857,-1.2098,0.0,0.0,0.0,0.0,0.0,0.0,0.0,0.0,0.0,0.0,0.0,-1.326,-1.1043,-0.9827,-1.1257,-1.2579,-1.3149,-1.3194,-1.3716,-1.5027,-1.5039,-1.459,-1.3871,-1.4763,-1.4874,-1.3683,-1.3511,-1.3511,-1.3511,-1.37,-1.3498,-1.2591,-1.1879,-1.1538,-1.1465,-1.1267,-1.101,-1.0588,-1.0097,-0.9676,-0.9548,-0.9478,-0.9734,-1.0491,-1.0744,-1.0649,-1.0248,-0.9854,-0.9551,-0.9195,-0.8654,-0.915,-1.1738,-1.2375,-1.2436,-1.2243,-1.169,-1.0776,-0.8827,-0.8162,-0.8222,-0.9515,-0.9364,-0.9018,-2.7348,-2.7179,-2.7121,-2.6735,0.0,-2.7235,-2.6929,-2.5846,-2.687,-2.7137,-2.6931,-2.714,-2.6957,-2.6504,-2.6503,-2.652,-2.6554,-2.664,-2.6742,-2.6792,-2.6957,-2.7007,-2.6876,-2.6926,-2.6792,-2.652,-2.6485,-2.6293,-2.5934,-2.5934,-2.5196,-2.3803,-2.3767,-2.3327,-2.248,-2.2014,-2.1612,-2.1249,-2.0324,-2.015,-2.0745,-2.07,-2.0437,-1.9983,-1.8723,0.0,0.0,0.0,0.0,0.0,0.0,0.0,0.0,-1.5905,0.0,-1.7186,-1.572,-1.5262,-1.6164,-1.746,-1.7914,-1.7231,-1.5789,-1.4631,-1.3779,-1.4549,-1.5029,-1.4987,-1.4976,-1.5252,-1.583,-1.5594,-1.5244,-1.4844,-1.5146,-1.5108,-1.4519,-1.3863,-1.3511,-1.3511,-1.3511,-1.339,-1.3094,-1.249,-1.1996,-1.1747,-1.1498,-1.1122,-1.0688,-1.0371,-1.006,-0.9612,-0.9478,-0.9926,-1.087,-1.1059,-1.0961,-1.0471,-1.0336,-1.0005,-0.9505,-0.9221,-0.9761,-1.1829,-1.2498,-1.256,-1.2289,-1.1553,-1.0331,-0.9008,-0.848,-0.8544,-0.9503,-0.9263,-0.8836,-2.8678,-2.8682,-2.8391,-2.8078,-2.7768,-2.794,-2.7905,-2.7838,-2.8843,0.0,0.0,-2.7988,-2.7549,-2.6774,-2.6656,-2.6606,-2.6674,-2.6725,-2.6825,-2.6909,-2.6975,-2.6975,-2.6893,-2.6926,-2.6759,-2.6485,-2.6485,-2.6293,-2.597,-2.5917,-2.5513,-2.4758,-2.4657,-2.4563,-2.4345,-2.3697,-2.2979,-2.2155,-2.0773,-2.0643,-2.1816,-2.1984,-2.1839,-2.1535,-2.0376,-1.9464,-1.8844,-1.7675,-1.6644,-1.5773,-1.5736,-1.5474,-1.4933,-1.6703,-1.7813,-1.7813,-1.7364,-1.7877,-1.966,-1.9798,-1.9331,-1.8247,-1.7213,-1.6838,-1.7279,-1.7278,-1.711,-1.6602,-1.6545,-1.6545,-1.6441,-1.5894,-1.5526,-1.5468,-1.541,-1.541,-1.5352,-1.441,-1.3631,-1.3511,-1.3511,-1.345,-1.3268,-1.285,-1.2444,-1.2065,-1.1685,-1.124,-1.0807,-1.0751,-1.0498,-0.9676,-0.9676,-1.0174,-1.1185,-1.1435,-1.1185,-1.0856,-1.0864,-1.0613,-1.009,-0.9892,-1.0607,-1.2242,-1.248,-1.2477,-1.2493,-1.1551,-1.0397,-0.9792,-0.9385,-0.9193,-0.9066,-0.904,-0.882,-2.9592,-2.9399,-2.879,-2.8624,-2.8746,-2.9083,-2.9782,-3.0548,-2.9437,-2.8884,-2.8846,-2.8321,-2.8015,-2.7845,-2.7198,-2.6959,-2.6942,-2.6942,-2.6975,-2.6975,-2.7038,-2.7023,-2.6893,-2.6942,-2.6809,-2.652,-2.6485,-2.638,-2.6168,-2.6043,-2.5924,-2.577,-2.5733,-2.5607,-2.5464,-2.5303,-2.5056,-2.4722,-2.1775,-2.0824,-2.1979,-2.2881,-2.276,-2.155,-2.0861,-2.0362,-2.0159,-1.9748,-1.9517,-1.9339,-1.8925,-1.8714,-1.8827,-1.9628,-2.0214,-2.0165,-1.9646,-1.9484,-1.9773,-1.9798,-1.9436,-1.8614,-1.8109,-1.7664,-1.7323,-1.7278,-1.7267,-1.7155,-1.711,-1.6941,-1.6488,-1.6316,-1.6066,-1.57,-1.5517,-1.542,-1.542,-1.4784,-1.4139,-1.3631,-1.3511,-1.3268,-1.292,-1.2683,-1.2567,-1.2436,-1.2058,-1.1615,-1.1296,-1.1303,-1.087,-0.9926,-1.0053,-1.0744,-1.1392,-1.1809,-1.1747,-1.1498,-1.1348,-1.1304,-1.1274,-1.0845,-1.1056,-1.2332,-1.2043,-1.194,-1.239,-1.1658,-1.0709,-0.9978,-0.9357,-0.8919,-0.8969,-0.8962,-0.8948,-2.9858,-2.9689,-2.9124,-2.8983,-2.9198,-2.9649,-3.0437,-3.1338,-3.0615,-3.0071,-2.979,-2.9484,-2.9125,-2.8698,-2.7947,-2.7844,-2.8237,-2.7877,-2.7894,-2.8305,-2.8372,-2.8132,-2.7673,-2.7689,-2.7351,-2.6742,-2.664,-2.6739,-2.6897,-2.6441,-2.6369,-2.6644,-2.6277,-2.599,-2.5828,-2.577,-2.56,-2.5262,-2.3664,-2.2994,-2.3259,-2.3606,-2.3468,-2.2727,-2.2179,-2.1888,-2.1779,-2.1277,-2.0887,-2.0688,-2.0638,-2.0314,-1.97,-2.0549,-2.1082,-2.1082,-2.0586,-2.0131,-1.9811,-1.9552,-1.9198,-1.8815,-1.8356,-1.803,-1.7767,-1.749,-1.7278,-1.7278,-1.6998,-1.6715,-1.6431,-1.6374,-1.6249,-1.5931,-1.5941,-1.5778,-1.5303,-1.4961,-1.4616,-1.413,-1.37,-1.339,-1.3094,-1.2797,-1.2621,-1.256,-1.2367,-1.212,-1.1958,-1.1662,-1.1145,-1.0161,-1.0396,-1.0926,-1.1214,-1.1552,-1.1787,-1.1747,-1.1628,-1.1714,-1.1973,-1.1752,-1.1529,-1.147,-1.14,-1.1455,-1.1535,-1.117,-1.0586,-0.9941,-0.9548,-0.922,-0.9082,-0.9045,-0.9102,-2.9918,-2.9853,-2.9473,-2.942,-2.9705,-3.0135,-3.0798,-3.1462,-3.15,-3.1175,-3.07,-3.0495,-3.0101,-2.9501,-2.8698,-2.8698,-2.9178,-2.8768,-2.887,-2.9369,-2.9472,-2.9162,-2.8629,-2.8544,-2.8134,-2.7504,-2.7284,-2.745,-2.7799,-2.7186,-2.7031,-2.7291,-2.6792,-2.6319,-2.597,-2.5934,-2.5749,-2.5371,-2.5217,-2.4902,-2.4359,-2.4109,-2.394,-2.3852,-2.3425,-2.3208,-2.3178,-2.2531,-2.2003,-2.1786,-2.19,-2.1484,-2.0554,-2.1015,-2.141,-2.1375,-2.0947,-2.0435,-1.9862,-1.9408,-1.9105,-1.9093,-1.8572,-1.8193,-1.8096,-1.7601,-1.7222,-1.7054,-1.6658,-1.6441,-1.6488,-1.6431,-1.6374,-1.6228,-1.6306,-1.6019,-1.5303,-1.5029,-1.4803,-1.4506,-1.395,-1.358,-1.3268,-1.2797,-1.2458,-1.2387,-1.2504,-1.2528,-1.2245,-1.1652,-1.0852,-1.0549,-1.068,-1.0991,-1.0968,-1.1212,-1.1494,-1.1706,-1.1667,-1.1874,-1.2189,-1.2243,-1.1583,-1.0771,-1.0693,-1.0848,-1.0569,-1.0467,-1.0242,-0.971,-0.9533,-0.9444,-0.9287,-0.9183,-0.9204,-2.9951,-2.9918,-2.9853,-3.0064,-3.0435,-3.0931,-3.1257,-3.1479,-3.1517,-3.1521,-3.1391,-3.0773,-3.0446,-3.0202,-2.9484,-2.9246,-2.9436,-2.9316,-2.9386,-2.9524,-2.9506,-2.9472,-2.9369,-2.9334,-2.9196,-2.9024,-2.8847,-2.8791,-2.8924,-2.8656,-2.8213,-2.7732,-2.7526,-2.7033,-2.627,-2.6007,-2.577,-2.5578,-2.5578,-2.5217,-2.4498,-2.4166,-2.3982,-2.3982,-2.3921,-2.3891,-2.3888,-2.3603,-2.34,-2.3329,-2.2981,-2.2728,-2.252,-2.1846,-2.1423,-2.1361,-2.0934,-2.0448,-1.985,-1.9629,-1.9497,-1.9368,-1.8893,-1.8398,-1.815,-1.7656,-1.711,-1.6715,-1.6488,-1.6602,-1.6715,-1.6545,-1.6488,-1.6524,-1.6477,-1.6134,-1.5478,-1.4911,-1.4515,-1.4515,-1.4139,-1.3649,-1.2867,-1.2389,-1.2012,-1.1763,-1.2137,-1.2205,-1.1468,-1.0701,-1.0298,-1.0459,-1.0817,-1.1039,-1.0974,-1.0982,-1.0997,-1.1186,-1.1508,-1.1765,-1.1897,-1.1989,-1.1623,-1.0302,-0.9777,-0.9986,-1.0216,-1.0133,-0.9777,-0.965,-0.9517,-0.942,-0.9382,-0.9271,-0.9211,-3.1866,-3.1105,-3.0847,-3.0711,-3.0857,-3.1527,-3.1698,-3.1513,-3.1918,-3.1905,-3.1483,-3.1083,-3.0908,-3.0912,-3.0216,-3.0114,-3.0526,-3.0278,-3.0348,-3.069,-3.0834,-3.0645,-3.0126,-3.0006,-2.9747,-2.9489,-2.9729,-3.0122,-3.0455,-3.037,-2.9702,-2.8533,-2.7971,-2.7496,-2.7016,-2.6421,-2.6063,-2.586,-2.5675,-2.541,-2.5045,-2.4467,-2.4151,-2.4124,-2.4151,-2.4177,-2.4151,-2.3967,-2.3782,-2.3696,-2.3392,-2.3231,-2.3142,-2.2601,-2.203,-2.1458,-2.0947,-2.0435,-1.985,-1.9836,-1.9784,-1.9656,-1.9303,-1.8839,-1.8193,-1.8247,-1.8073,-1.7534,-1.7368,-1.7379,-1.7099,-1.6998,-1.6818,-1.6637,-1.6477,-1.6134,-1.5468,-1.4459,-1.3947,-1.4337,-1.401,-1.345,-1.2679,-1.1895,-1.1414,-1.1259,-1.1545,-1.1468,-1.1076,-1.0246,-0.9753,-0.9873,-1.0328,-1.0701,-1.0684,-0.9969,-0.9923,-1.0325,-1.0631,-1.0829,-1.127,-1.1279,-1.0825,-0.9911,-0.9598,-0.9569,-0.9895,-0.9829,-0.9614,-0.9562,-0.951,-0.942,-0.9389,-0.9271,-0.9309,-3.3534,-3.2562,-3.1913,-3.1576,-3.1483,-3.2276,-3.2349,-3.1888,-3.2344,-3.2139,-3.1547,-3.1528,-3.1574,-3.1494,-3.1074,-3.1244,-3.1827,-3.1648,-3.1737,-3.2214,-3.2403,-3.2044,-3.1244,-3.1143,-3.0886,-3.0628,-3.1045,-3.1509,-3.1871,-3.1769,-3.0904,-2.9471,-2.874,-2.8142,-2.7593,-2.6952,-2.646,-2.6026,-2.5787,-2.56,-2.5339,-2.491,-2.4564,-2.4333,-2.4317,-2.4302,-2.4302,-2.4124,-2.394,-2.3839,-2.3625,-2.3494,-2.3392,-2.3142,-2.254,-2.152,-2.1095,-2.0623,-2.0055,-2.008,-2.008,-2.0016,-1.9708,-1.9251,-1.8762,-1.8827,-1.8774,-1.841,-1.8193,-1.7865,-1.739,-1.7278,-1.7099,-1.6694,-1.6477,-1.6104,-1.5215,-1.4016,-1.3543,-1.4008,-1.3553,-1.2873,-1.2014,-1.1308,-1.0856,-1.0748,-1.074,-1.0776,-1.0693,-0.9992,-0.9374,-0.9191,-0.9724,-1.0147,-1.0185,-0.9369,-0.8999,-0.9346,-0.9791,-1.0249,-1.0509,-1.0472,-1.0375,-0.9857,-0.9485,-0.9368,-0.9524,-0.9517,-0.9562,-0.9562,-0.951,-0.9413,-0.948,-0.9316,-0.9309,-3.4052,-3.386,-3.2998,-3.258,-3.2669,-3.3254,-3.3138,-3.2491,-3.2588,-3.2195,-3.1684,-3.2151,-3.2394,-3.2313,-3.2165,-3.2594,-3.3369,-3.343,-3.3534,-3.3795,-3.3908,-3.3619,-3.302,-3.3097,-3.3011,-3.274,-3.2945,-3.2896,-3.2581,-3.2542,-3.1713,-3.0241,-3.002,-2.9211,-2.7916,-2.7614,-2.7086,-2.6165,-2.597,-2.5733,-2.5454,-2.5486,-2.5201,-2.463,-2.44,-2.4317,-2.4261,-2.4094,-2.3982,-2.3982,-2.3739,-2.361,-2.3551,-2.3348,-2.2678,-2.1554,-2.1375,-2.1131,-2.0686,-2.0485,-2.0435,-2.0536,-2.0131,-1.9759,-1.9656,-1.9291,-1.904,-1.8934,-1.841,-1.7877,-1.739,-1.7278,-1.711,-1.6694,-1.6477,-1.5847,-1.4836,-1.3847,-1.3378,-1.3378,-1.2917,-1.1969,-1.0469,-1.0387,-1.041,-1.0244,-1.0089,-1.0058,-0.9957,-0.9627,-0.9152,-0.8786,-0.9001,-0.9453,-0.9368,-0.8929,-0.8532,-0.8821,-0.9443,-0.9898,-0.9946,-0.9941,-0.988,-0.9855,-0.9649,-0.9465,-0.9316,-0.9316,-0.9465,-0.951,-0.951,-0.9465,-0.9517,-0.9361,-0.9361,-3.3925,-3.3664,-3.3502,-3.3233,-3.3071,-3.3897,-3.3649,-3.2696,-3.3059,-3.2878,-3.2393,-3.2349,-3.2897,-3.3837,-3.3879,-3.3802,-3.3755,-3.3825,-3.4002,-3.4098,-3.4293,-3.4137,-3.3757,-3.3477,-3.3494,-3.3792,-3.4177,-3.3822,-3.2947,-3.3269,-3.2732,-3.1247,-3.0597,-2.9773,-2.8796,-2.8132,-2.74,-2.6553,-2.6206,-2.6007,-2.5917,-2.5712,-2.5371,-2.495,-2.463,-2.4482,-2.4457,-2.425,-2.4124,-2.4124,-2.3882,-2.3696,-2.3551,-2.2934,-2.2278,-2.1568,-2.1568,-2.152,-2.118,-2.0934,-2.0736,-2.0699,-2.0498,-2.0334,-2.0283,-1.9862,-1.9396,-1.8987,-1.8464,-1.781,-1.72,-1.7155,-1.7166,-1.6818,-1.6181,-1.5708,-1.5123,-1.3784,-1.2892,-1.3514,-1.2529,-1.0926,-1.0617,-1.0557,-1.057,-1.0244,-0.9881,-0.9526,-0.9095,-0.8838,-0.8691,-0.8526,-0.8564,-0.8738,-0.8746,-0.8603,-0.8484,-0.8723,-0.9113,-0.9262,-0.9373,-0.9471,-0.942,-0.9599,-0.9555,-0.9475,-0.9299,-0.9444,-0.954,-0.9562,-0.951,-0.9569,-0.9562,-0.9465,-0.9458,-3.4121,-3.3857,-3.414,-3.4118,-3.3906,-3.449,-3.4106,-3.3128,-3.3516,-3.3408,-3.2938,-3.3128,-3.3909,-3.4881,-3.5248,-3.5236,-3.4777,-3.4806,-3.4864,-3.4943,-3.5101,-3.4996,-3.4557,-3.4414,-3.4431,-3.4622,-3.5243,-3.4809,-3.3588,-3.3973,-3.3308,-3.1763,-3.1177,-3.0382,-2.9401,-2.875,-2.7964,-2.6962,-2.6572,-2.6434,-2.6241,-2.5934,-2.5637,-2.5301,-2.5029,-2.4726,-2.4498,-2.4333,-2.4208,-2.4166,-2.394,-2.3739,-2.3551,-2.2859,-2.2184,-2.1732,-2.1434,-2.1481,-2.152,-2.1102,-2.0748,-2.0686,-2.0699,-2.0649,-2.0435,-2.0016,-1.9656,-1.9239,-1.8721,-1.803,-1.72,-1.6987,-1.6941,-1.6715,-1.5941,-1.5351,-1.516,-1.3366,-1.2752,-1.2987,-1.1954,-1.0962,-1.0769,-1.0922,-1.0797,-1.0359,-1.0018,-0.9608,-0.8925,-0.8613,-0.8495,-0.8338,-0.8348,-0.8354,-0.8352,-0.8305,-0.8532,-0.8812,-0.9074,-0.9064,-0.9147,-0.9129,-0.9193,-0.9299,-0.9351,-0.938,-0.9424,-0.9533,-0.9585,-0.9614,-0.9621,-0.9681,-0.9621,-0.9614,-0.957,-3.4739,-3.4577,-3.5071,-3.517,-3.5099,-3.4976,-3.4521,-3.3814,-3.3985,-3.368,-3.3304,-3.454,-3.522,-3.5567,-3.6145,-3.6522,-3.6539,-3.6406,-3.64,-3.6458,-3.6551,-3.6185,-3.5531,-3.6052,-3.5977,-3.5486,-3.6244,-3.5832,-3.4512,-3.4394,-3.3624,-3.2243,-3.1913,-3.0993,-2.9438,-2.9402,-2.8629,-2.7315,-2.6975,-2.6792,-2.6382,-2.6222,-2.6007,-2.5701,-2.5492,-2.5123,-2.458,-2.44,-2.4276,-2.4166,-2.3982,-2.3739,-2.3551,-2.3098,-2.2661,-2.2048,-2.1117,-2.1074,-2.1685,-2.094,-2.05,-2.0631,-2.0699,-2.0385,-1.9901,-1.9811,-1.9747,-1.9552,-1.9186,-1.8483,-1.7346,-1.6786,-1.6488,-1.6343,-1.5676,-1.4749,-1.3901,-1.2838,-1.1995,-1.187,-1.1403,-1.1276,-1.1276,-1.1276,-1.1081,-1.0663,-1.0607,-1.0467,-0.9703,-0.9304,-0.8752,-0.8384,-0.8245,-0.8201,-0.8126,-0.8082,-0.8486,-0.8875,-0.9116,-0.9287,-0.9343,-0.9395,-0.9361,-0.9424,-0.9422,-0.94,-0.9496,-0.9599,-0.9688,-0.9725,-0.9732,-0.9792,-0.9732,-0.9703,-0.9562,-3.4947,-3.5071,-3.5258,-3.5183,-3.4982,-3.5052,-3.4427,-3.3348,-3.3973,-3.4192,-3.4213,-3.5126,-3.5937,-3.651,-3.6843,-3.7009,-3.7143,-3.7066,-3.697,-3.6965,-3.7044,-3.6865,-3.6549,-3.6706,-3.6706,-3.6452,-3.6706,-3.6383,-3.5437,-3.4916,-3.4145,-3.3248,-3.2564,-3.1427,-2.9929,-2.9754,-2.8978,-2.75,-2.7087,-2.6875,-2.6742,-2.6399,-2.6115,-2.5901,-2.5642,-2.5371,-2.5045,-2.4549,-2.4302,-2.4276,-2.4151,-2.394,-2.3566,-2.3142,-2.2706,-2.2136,-2.106,-2.0049,-1.974,-2.0178,-2.0489,-2.0604,-2.0498,-1.9978,-1.9396,-1.9604,-1.9592,-1.9356,-1.9081,-1.839,-1.7002,-1.6522,-1.644,-1.6637,-1.4935,-1.3682,-1.3215,-1.2551,-1.2054,-1.1728,-1.1469,-1.1318,-1.1318,-1.1418,-1.1382,-1.1154,-1.1149,-1.0947,-1.068,-1.0059,-0.9715,-0.9389,-0.8874,-0.8242,-0.8181,-0.8115,-0.8245,-0.8875,-0.9331,-0.9539,-0.9617,-0.9576,-0.9555,-0.9429,-0.9433,-0.9418,-0.953,-0.973,-0.9843,-0.988,-0.9991,-0.994,-0.9888,-0.982,-0.9715,-3.5211,-3.5333,-3.5183,-3.4989,-3.4755,-3.4524,-3.4047,-3.3592,-3.4199,-3.4716,-3.5197,-3.5975,-3.6632,-3.7114,-3.7185,-3.7203,-3.7297,-3.7297,-3.7259,-3.7182,-3.722,-3.7126,-3.693,-3.697,-3.7027,-3.7009,-3.7066,-3.6682,-3.5927,-3.5525,-3.4818,-3.3776,-3.3228,-3.2137,-3.061,-3.0156,-2.9306,-2.8084,-2.7385,-2.707,-2.6973,-2.6623,-2.6312,-2.6206,-2.597,-2.5712,-2.5524,-2.495,-2.4549,-2.4426,-2.4317,-2.4067,-2.3638,-2.3304,-2.3008,-2.2451,-2.0855,-1.9318,-1.8691,-1.9578,-2.0348,-2.0552,-2.0498,-2.0067,-1.95,-1.9552,-1.9303,-1.9093,-1.8774,-1.7979,-1.6472,-1.5769,-1.5807,-1.61,-1.442,-1.3076,-1.2676,-1.2332,-1.2076,-1.1877,-1.1719,-1.1578,-1.1528,-1.1309,-1.146,-1.1449,-1.1377,-1.1276,-1.1166,-1.0698,-1.0447,-1.0136,-0.956,-0.8959,-0.8435,-0.8223,-0.7997,-0.8719,-0.9513,-0.9718,-0.9885,-0.9841,-0.9754,-0.9464,-0.9316,-0.927,-0.9369,-0.9988,-1.0257,-1.0249,-1.03,-1.03,-1.03,-1.0154,-1.0015,-3.5532,-3.5369,-3.4931,-3.4899,-3.4868,-3.3731,-3.3699,-3.4376,-3.4738,-3.531,-3.6111,-3.6893,-3.7358,-3.7374,-3.7354,-3.7334,-3.7352,-3.7372,-3.7429,-3.7411,-3.7429,-3.7317,-3.7164,-3.7087,-3.7143,-3.7297,-3.7297,-3.6907,-3.6379,-3.6202,-3.5492,-3.4126,-3.3791,-3.2977,-3.1497,-3.0635,-2.9818,-2.8732,-2.79,-2.7382,-2.7169,-2.6825,-2.664,-2.6572,-2.6329,-2.6079,-2.5807,-2.5339,-2.495,-2.463,-2.4441,-2.4135,-2.3709,-2.3505,-2.3016,-2.2782,-2.0215,-1.8973,-1.8691,-1.9292,-1.9999,-2.0591,-2.0649,-2.0383,-1.9661,-1.9325,-1.9036,-1.8682,-1.8037,-1.7153,-1.5774,-1.5056,-1.4746,-1.4717,-1.388,-1.2988,-1.2274,-1.2184,-1.2175,-1.2076,-1.2076,-1.1972,-1.1594,-1.1146,-1.1186,-1.13,-1.1332,-1.1247,-1.1259,-1.099,-1.0846,-1.0537,-1.0153,-0.9665,-0.9113,-0.8751,-0.8641,-0.9158,-0.986,-1.0179,-1.0226,-1.0123,-1.0115,-0.9748,-0.9557,-0.9455,-0.9565,-1.0266,-1.0718,-1.0863,-1.0863,-1.0871,-1.0769,-1.0616,-1.0264,-3.58,-3.5627,-3.5299,-3.518,-3.5146,-3.4425,-3.4388,-3.4923,-3.5489,-3.5917,-3.6452,-3.7184,-3.7577,-3.7613,-3.754,-3.7577,-3.7667,-3.7721,-3.7775,-3.7845,-3.781,-3.7685,-3.7503,-3.7354,-3.7354,-3.7521,-3.7429,-3.7342,-3.7256,-3.6667,-3.5829,-3.4868,-3.4227,-3.3214,-3.1714,-3.1278,-3.0353,-2.9119,-2.8502,-2.7889,-2.7393,-2.6923,-2.6742,-2.6792,-2.6503,-2.6206,-2.5937,-2.5454,-2.495,-2.4574,-2.4533,-2.4426,-2.3773,-2.2058,-2.1,-2.0729,-1.9806,-1.8812,-1.8728,-1.9321,-2.0084,-2.0627,-2.0699,-2.0184,-1.9032,-1.9359,-1.8878,-1.7814,-1.6318,-1.5262,-1.4655,-1.4464,-1.4143,-1.3461,-1.3047,-1.2569,-1.2421,-1.2578,-1.248,-1.2026,-1.2314,-1.1918,-1.1304,-1.1019,-1.1053,-1.1085,-1.1007,-1.1037,-1.1139,-1.114,-1.0906,-1.1049,-1.0781,-1.0343,-0.9872,-0.943,-0.9365,-0.9793,-1.0285,-1.0772,-1.0651,-1.0454,-1.0533,-1.0464,-1.0524,-1.0457,-1.0516,-1.088,-1.1167,-1.1326,-1.1276,-1.1124,-1.1167,-1.1049,-1.0598,-3.5874,-3.5557,-3.5387,-3.5191,-3.4979,-3.4716,-3.4939,-3.5473,-3.5971,-3.6506,-3.6952,-3.7326,-3.7577,-3.7667,-3.7577,-3.7649,-3.7864,-3.7917,-3.7985,-3.8104,-3.8153,-3.8002,-3.7775,-3.7613,-3.7613,-3.7703,-3.7685,-3.7667,-3.7542,-3.6933,-3.6093,-3.5186,-3.4488,-3.3455,-3.225,-3.1661,-3.0893,-2.9669,-2.8945,-2.823,-2.7535,-2.707,-2.6892,-2.6842,-2.6555,-2.6189,-2.5775,-2.5126,-2.4592,-2.4194,-2.3881,-2.3437,-2.2586,-2.1027,-1.9955,-1.9925,-1.9435,-1.8988,-1.8949,-1.9489,-2.0207,-2.0753,-2.0848,-1.9616,-1.829,-1.8223,-1.7894,-1.8238,-1.6208,-1.4923,-1.4291,-1.4197,-1.3879,-1.3385,-1.2725,-1.2431,-1.2382,-1.2421,-1.2323,-1.2052,-1.1803,-1.1761,-1.0839,-1.0839,-1.0803,-1.0813,-1.058,-1.0854,-1.1129,-1.1045,-1.1038,-1.1157,-1.1167,-1.0748,-1.0351,-0.9922,-0.9853,-1.0285,-1.0656,-1.115,-1.0964,-1.0718,-1.0905,-1.1032,-1.1309,-1.1418,-1.1267,-1.1217,-1.1427,-1.1477,-1.1427,-1.1477,-1.1528,-1.151,-1.1031,-3.6032,-3.5473,-3.5446,-3.5262,-3.5031,-3.4898,-3.5453,-3.6183,-3.6361,-3.6862,-3.7452,-3.7468,-3.7522,-3.7685,-3.7577,-3.7667,-3.7934,-3.8003,-3.8174,-3.8289,-3.8368,-3.8271,-3.7985,-3.7881,-3.7828,-3.7916,-3.8002,-3.7772,-3.7433,-3.6946,-3.6123,-3.5113,-3.4363,-3.3702,-3.2749,-3.2001,-3.1193,-3.0335,-2.9347,-2.8557,-2.7799,-2.7272,-2.6975,-2.6909,-2.6521,-2.6046,-2.5464,-2.482,-2.4159,-2.3602,-2.2985,-2.2118,-2.0775,-2.0369,-2.027,-2.0115,-1.9545,-1.9078,-1.9161,-1.9585,-2.0347,-2.1063,-2.0851,-1.953,-1.7599,-1.7104,-1.7483,-1.8585,-1.7127,-1.5406,-1.4373,-1.401,-1.3821,-1.3478,-1.3113,-1.2676,-1.2372,-1.2175,-1.2076,-1.2021,-1.1183,-1.0894,-1.0751,-1.0554,-1.0206,-1.0718,-1.0538,-1.0651,-1.0862,-1.0805,-1.1025,-1.1334,-1.1267,-1.1116,-1.0722,-1.0366,-1.0456,-1.0681,-1.1039,-1.1318,-1.1116,-1.1015,-1.1267,-1.1469,-1.1669,-1.1619,-1.1418,-1.1477,-1.1628,-1.1728,-1.1778,-1.1877,-1.1927,-1.1877,-1.1563,-3.6846,-3.7165,-3.6221,-3.6499,-3.721,-3.6317,-3.636,-3.7218,-3.6996,-3.7179,-3.7504,-3.7449,-3.7503,-3.7649,-3.7739,-3.7916,-3.8086,-3.8252,-3.8465,-3.8596,-3.8645,-3.8515,-3.8322,-3.8223,-3.8138,-3.8104,-3.8018,-3.7625,-3.7036,-3.666,-3.584,-3.449,-3.4049,-3.3537,-3.2743,-3.2362,-3.1806,-3.0999,-2.9998,-2.9151,-2.8337,-2.7511,-2.7076,-2.6959,-2.6486,-2.6046,-2.5554,-2.4745,-2.3971,-2.3383,-2.2889,-2.2035,-2.091,-2.0441,-2.0304,-2.0115,-1.9581,-1.9116,-1.9199,-1.9658,-2.0339,-2.0941,-2.0375,-1.9279,-1.7892,-1.7199,-1.7068,-1.7187,-1.6333,-1.5244,-1.4222,-1.3763,-1.3668,-1.3583,-1.3248,-1.3007,-1.3035,-1.2569,-1.2175,-1.1911,-1.1333,-1.0627,-1.0192,-1.0275,-1.0254,-1.0499,-1.0573,-1.0527,-1.063,-1.0716,-1.1103,-1.1543,-1.1368,-1.12,-1.1038,-1.0638,-1.0567,-1.0853,-1.1288,-1.1729,-1.1516,-1.1267,-1.1469,-1.1719,-1.1977,-1.1877,-1.1628,-1.1778,-1.1927,-1.1977,-1.2026,-1.2026,-1.2026,-1.2076,-1.19,-3.7906,-3.7871,-3.7677,-3.7711,-3.775,-3.7458,-3.7394,-3.754,-3.7411,-3.7449,-3.7595,-3.754,-3.7594,-3.7739,-3.7881,-3.8036,-3.8219,-3.8465,-3.864,-3.8701,-3.8732,-3.8701,-3.8621,-3.8528,-3.8433,-3.8285,-3.8219,-3.7652,-3.6922,-3.6296,-3.5442,-3.4066,-3.3657,-3.3164,-3.2677,-3.2489,-3.1982,-3.1282,-3.066,-2.988,-2.8808,-2.8092,-2.7247,-2.6877,-2.6452,-2.6118,-2.5742,-2.4871,-2.4051,-2.3304,-2.2508,-2.1784,-2.1033,-2.0543,-2.0304,-2.015,-1.9545,-1.9153,-1.9199,-1.9266,-1.9446,-1.9772,-1.9646,-1.9049,-1.8152,-1.7461,-1.6863,-1.6349,-1.5937,-1.5379,-1.4582,-1.38,-1.3716,-1.3716,-1.3488,-1.3248,-1.32,-1.2774,-1.2332,-1.1935,-1.1012,-1.0306,-0.9962,-0.9985,-1.0118,-1.0301,-1.0552,-1.0556,-1.1226,-1.1354,-1.1518,-1.1715,-1.1451,-1.1299,-1.1225,-1.0967,-1.0604,-1.0904,-1.1376,-1.1908,-1.2158,-1.1894,-1.1619,-1.1877,-1.2126,-1.2076,-1.1927,-1.2076,-1.2076,-1.2076,-1.2026,-1.2017,-1.1968,-1.2017,-1.1819,-3.9175,-3.845,-3.9218,-3.8775,-3.7845,-3.8297,-3.8142,-3.7593,-3.754,-3.754,-3.7649,-3.7613,-3.7667,-3.7864,-3.7967,-3.8138,-3.8368,-3.8578,-3.875,-3.8822,-3.8792,-3.8743,-3.8713,-3.8683,-3.8621,-3.8415,-3.835,-3.7747,-3.6678,-3.5977,-3.5044,-3.3853,-3.3143,-3.2811,-3.259,-3.2329,-3.1966,-3.1459,-3.0852,-3.028,-2.9277,-2.8643,-2.7724,-2.686,-2.6486,-2.626,-2.5829,-2.4922,-2.4032,-2.3416,-2.1938,-2.1231,-2.0924,-2.0626,-2.0304,-2.027,-1.9545,-1.9139,-1.9064,-1.8955,-1.8694,-1.8044,-1.8737,-1.8886,-1.8044,-1.7461,-1.6947,-1.6392,-1.5957,-1.5703,-1.5424,-1.464,-1.4046,-1.3915,-1.3773,-1.344,-1.3113,-1.3017,-1.2774,-1.2203,-1.1277,-1.0438,-0.9916,-0.9784,-0.9926,-1.0094,-1.0353,-1.0696,-1.1345,-1.1759,-1.1739,-1.2015,-1.185,-1.1669,-1.1567,-1.1527,-1.1139,-1.1212,-1.1646,-1.2016,-1.2672,-1.2869,-1.2599,-1.2118,-1.2175,-1.2175,-1.2076,-1.2076,-1.2076,-1.2076,-1.2076,-1.2026,-1.1968,-1.1918,-1.1719,-4.0805,-4.0151,-3.9746,-3.9398,-3.9173,-3.8812,-3.8193,-3.75,-3.7392,-3.7372,-3.7484,-3.754,-3.7721,-3.7846,-3.8018,-3.8318,-3.8609,-3.8732,-3.8792,-3.8851,-3.8822,-3.8743,-3.8634,-3.8743,-3.8652,-3.8446,-3.8328,-3.7526,-3.6161,-3.5457,-3.4623,-3.3286,-3.2793,-3.2606,-3.2347,-3.1894,-3.1844,-3.1707,-3.0924,-3.023,-3.0006,-2.8851,-2.7825,-2.691,-2.6623,-2.6401,-2.5911,-2.4707,-2.3699,-2.352,-2.2004,-2.123,-2.0843,-2.0509,-2.0397,-2.0421,-1.9634,-1.9116,-1.9064,-1.9064,-1.8644,-1.815,-1.818,-1.8262,-1.7869,-1.7502,-1.7086,-1.682,-1.6262,-1.5792,-1.5513,-1.5006,-1.4558,-1.4197,-1.3821,-1.3621,-1.3536,-1.344,-1.3344,-1.286,-1.1759,-1.0733,-1.0367,-1.013,-1.033,-1.0367,-1.0294,-1.0539,-1.1053,-1.1375,-1.1541,-1.1902,-1.2323,-1.2126,-1.199,-1.1972,-1.1828,-1.1877,-1.2085,-1.2214,-1.2876,-1.3679,-1.3663,-1.2613,-1.2308,-1.2323,-1.2274,-1.2126,-1.2076,-1.2076,-1.2076,-1.2026,-1.1927,-1.1868,-1.1778,-4.1507,-4.1198,-4.0853,-4.03,-3.9633,-3.9363,-3.8513,-3.7518,-3.7466,-3.754,-3.7631,-3.7757,-3.7916,-3.8036,-3.8119,-3.8433,-3.867,-3.8732,-3.8792,-3.8822,-3.8822,-3.8732,-3.859,-3.8732,-3.8603,-3.8446,-3.831,-3.7449,-3.5796,-3.5493,-3.4446,-3.3208,-3.2672,-3.2573,-3.2488,-3.2156,-3.195,-3.19,-3.1342,-3.0925,-3.082,-2.9058,-2.7581,-2.7142,-2.6757,-2.6455,-2.5832,-2.5094,-2.3966,-2.3293,-2.2654,-2.1824,-2.1047,-2.0727,-2.0983,-2.1651,-2.0325,-1.9101,-1.9101,-1.9101,-1.8898,-1.8567,-1.8189,-1.7922,-1.7801,-1.7502,-1.7253,-1.7073,-1.6947,-1.6349,-1.5913,-1.5424,-1.4971,-1.4605,-1.4269,-1.4082,-1.3988,-1.3999,-1.381,-1.3536,-1.2806,-1.1906,-1.1051,-1.0883,-1.0935,-1.0711,-1.0402,-1.0586,-1.0926,-1.1518,-1.2047,-1.2387,-1.2813,-1.2372,-1.2274,-1.2323,-1.2363,-1.2438,-1.2529,-1.2619,-1.2893,-1.3599,-1.3242,-1.2328,-1.2261,-1.2397,-1.2372,-1.2274,-1.2175,-1.2076,-1.2076,-1.2026,-1.1877,-1.1778,-1.1678,-4.1805,-4.1823,-4.1707,-4.0824,-3.9722,-3.9615,-3.8783,-3.7681,-3.7649,-3.7775,-3.781,-3.7934,-3.8088,-3.8271,-3.8387,-3.8533,-3.8707,-3.8719,-3.875,-3.8762,-3.8762,-3.875,-3.867,-3.867,-3.8572,-3.8364,-3.8022,-3.7321,-3.6037,-3.554,-3.4443,-3.3294,-3.2705,-3.259,-3.2488,-3.2206,-3.2213,-3.2127,-3.176,-3.1585,-3.0595,-2.8847,-2.7345,-2.7178,-2.6819,-2.6265,-2.5744,-2.4828,-2.4,-2.3276,-2.2769,-2.2309,-2.1193,-2.1039,-2.2139,-2.332,-2.1042,-1.9581,-1.9101,-1.9153,-1.9101,-1.895,-1.8489,-1.8189,-1.7801,-1.7502,-1.7212,-1.7212,-1.7157,-1.6947,-1.6436,-1.578,-1.5379,-1.5108,-1.488,-1.4651,-1.4512,-1.443,-1.428,-1.3999,-1.3647,-1.3083,-1.2252,-1.1547,-1.1538,-1.1404,-1.1087,-1.1122,-1.1541,-1.266,-1.3191,-1.3305,-1.3286,-1.2666,-1.252,-1.2666,-1.2706,-1.2774,-1.2878,-1.2969,-1.311,-1.3437,-1.2743,-1.2113,-1.2207,-1.2297,-1.2311,-1.2363,-1.2323,-1.2224,-1.2126,-1.2026,-1.1927,-1.1877,-1.1828,-4.1866,-4.1952,-4.1345,-4.0512,-3.9585,-3.9218,-3.847,-3.7666,-3.7775,-3.7864,-3.7864,-3.7969,-3.8174,-3.8387,-3.8596,-3.8676,-3.8707,-3.875,-3.875,-3.8719,-3.8719,-3.864,-3.8496,-3.851,-3.8496,-3.8263,-3.7685,-3.6749,-3.591,-3.5486,-3.4515,-3.3219,-3.282,-3.2707,-3.2539,-3.2183,-3.1822,-3.1882,-3.0903,-2.9894,-2.9132,-2.8181,-2.7631,-2.7234,-2.6699,-2.6093,-2.5595,-2.4551,-2.3558,-2.3268,-2.2164,-2.1553,-2.1501,-2.3008,-2.3696,-2.335,-2.1644,-1.9472,-1.925,-1.9228,-1.9191,-1.9139,-1.8912,-1.8567,-1.7935,-1.7461,-1.7212,-1.7212,-1.7212,-1.7157,-1.6905,-1.6448,-1.5957,-1.5647,-1.5468,-1.5244,-1.5108,-1.4789,-1.4651,-1.4337,-1.3941,-1.3952,-1.3531,-1.2771,-1.2123,-1.2011,-1.1883,-1.1908,-1.22,-1.3247,-1.3742,-1.3716,-1.3678,-1.3104,-1.2861,-1.2949,-1.2997,-1.3084,-1.3106,-1.3232,-1.3278,-1.3237,-1.2577,-1.2118,-1.2123,-1.2213,-1.2393,-1.2436,-1.2453,-1.2372,-1.2224,-1.2126,-1.2076,-1.2026,-1.1927,-4.0908,-4.1398,-4.1044,-4.0175,-3.9096,-3.8861,-3.8327,-3.7774,-3.7863,-3.7916,-3.7934,-3.8088,-3.8322,-3.8546,-3.8676,-3.8707,-3.8689,-3.8719,-3.8719,-3.8689,-3.8676,-3.8609,-3.8528,-3.8559,-3.8515,-3.8277,-3.7849,-3.7089,-3.6141,-3.5078,-3.4096,-3.3208,-3.2916,-3.2805,-3.2692,-3.2388,-3.1976,-3.1458,-3.0484,-2.9525,-2.8753,-2.8054,-2.7557,-2.7434,-2.6916,-2.6189,-2.5278,-2.4588,-2.3664,-2.3195,-2.1982,-2.1698,-2.246,-2.3569,-2.4139,-2.2165,-2.0973,-1.9899,-1.953,-1.9457,-1.9302,-1.9139,-1.9026,-1.8592,-1.7774,-1.7378,-1.7253,-1.7212,-1.7212,-1.7212,-1.7199,-1.6947,-1.6565,-1.6207,-1.5957,-1.5691,-1.5468,-1.5232,-1.496,-1.4651,-1.4337,-1.4384,-1.443,-1.3928,-1.3299,-1.3055,-1.2962,-1.2962,-1.3104,-1.3594,-1.3847,-1.38,-1.3716,-1.3536,-1.3382,-1.3334,-1.3334,-1.3372,-1.3276,-1.334,-1.3282,-1.303,-1.2513,-1.1848,-1.1419,-1.1721,-1.2248,-1.2596,-1.2696,-1.2529,-1.2323,-1.2175,-1.2076,-1.2076,-1.2026,-3.9509,-4.0397,-4.0276,-3.9567,-3.8564,-3.8485,-3.8149,-3.7739,-3.7967,-3.8036,-3.8088,-3.8303,-3.8528,-3.8658,-3.8707,-3.8719,-3.8707,-3.8707,-3.8658,-3.8658,-3.8658,-3.8609,-3.8559,-3.859,-3.8528,-3.8364,-3.7921,-3.7108,-3.596,-3.4943,-3.4042,-3.3122,-3.2979,-3.287,-3.2805,-3.2631,-3.2231,-3.0959,-3.0337,-2.9499,-2.8636,-2.7884,-2.7579,-2.7313,-2.6874,-2.6083,-2.503,-2.4159,-2.3477,-2.324,-2.2727,-2.2834,-2.3939,-2.3638,-2.2968,-2.1657,-2.1124,-2.1544,-2.0895,-2.0378,-1.9583,-1.9288,-1.9064,-1.8707,-1.7855,-1.7447,-1.7282,-1.7253,-1.7212,-1.724,-1.7227,-1.7199,-1.6989,-1.6595,-1.6293,-1.6044,-1.5836,-1.5691,-1.5457,-1.5187,-1.4971,-1.4926,-1.488,-1.4789,-1.4503,-1.4165,-1.4057,-1.3962,-1.3952,-1.4046,-1.3905,-1.38,-1.3716,-1.3678,-1.3621,-1.3573,-1.3621,-1.3621,-1.3515,-1.342,-1.3412,-1.3138,-1.2709,-1.1964,-1.1168,-1.1112,-1.163,-1.2282,-1.2891,-1.2686,-1.2431,-1.2224,-1.2076,-1.2126,-1.2126,-3.7782,-3.8762,-3.8663,-3.8628,-3.8436,-3.7988,-3.7829,-3.7899,-3.8156,-3.8289,-3.8303,-3.8572,-3.8713,-3.8701,-3.875,-3.875,-3.8689,-3.8707,-3.8658,-3.8609,-3.859,-3.859,-3.8559,-3.8559,-3.8478,-3.8273,-3.7772,-3.684,-3.5851,-3.4938,-3.4019,-3.3242,-3.306,-3.2934,-3.2784,-3.2627,-3.1852,-3.0716,-3.0053,-2.9263,-2.8375,-2.7717,-2.7526,-2.7183,-2.6214,-2.5155,-2.4849,-2.379,-2.3335,-2.3553,-2.356,-2.4231,-2.4894,-2.3795,-2.2435,-2.2179,-2.2901,-2.3351,-2.3031,-2.1181,-1.9948,-1.9581,-1.931,-1.8912,-1.8333,-1.8029,-1.7706,-1.7406,-1.7406,-1.7365,-1.7365,-1.7323,-1.724,-1.7018,-1.6723,-1.6436,-1.6262,-1.6188,-1.6001,-1.5736,-1.5603,-1.5513,-1.5468,-1.5412,-1.4971,-1.4616,-1.4395,-1.4291,-1.4244,-1.4291,-1.3952,-1.381,-1.3716,-1.3668,-1.3668,-1.3668,-1.3763,-1.3763,-1.3763,-1.3668,-1.3573,-1.3248,-1.3,-1.2265,-1.153,-1.1252,-1.1151,-1.2024,-1.2619,-1.2696,-1.2637,-1.2431,-1.2224,-1.2224,-1.2224,-3.7397,-3.7777,-3.7795,-3.7854,-3.8005,-3.7971,-3.7966,-3.807,-3.8252,-3.8451,-3.8546,-3.8713,-3.8803,-3.8822,-3.8792,-3.8792,-3.878,-3.8738,-3.8658,-3.8658,-3.864,-3.8658,-3.8609,-3.8609,-3.8528,-3.8269,-3.7535,-3.6658,-3.5802,-3.4956,-3.4081,-3.3448,-3.3122,-3.2979,-3.2813,-3.2378,-3.1475,-3.045,-2.9467,-2.8499,-2.8182,-2.7677,-2.7509,-2.7435,-2.6514,-2.5582,-2.5023,-2.4043,-2.3801,-2.3874,-2.4113,-2.5028,-2.593,-2.4407,-2.3821,-2.3513,-2.4614,-2.4674,-2.4021,-2.1877,-2.0081,-1.956,-1.9325,-1.9139,-1.8874,-1.8683,-1.8411,-1.8095,-1.7733,-1.7693,-1.7693,-1.7666,-1.7584,-1.7406,-1.7144,-1.6863,-1.6735,-1.6705,-1.6491,-1.6262,-1.6088,-1.6001,-1.6001,-1.6044,-1.5513,-1.5028,-1.4811,-1.4673,-1.4662,-1.4569,-1.4326,-1.4057,-1.3962,-1.3952,-1.3952,-1.3952,-1.3905,-1.3915,-1.3962,-1.3858,-1.3716,-1.3589,-1.3238,-1.2513,-1.2027,-1.1725,-1.1747,-1.2075,-1.2423,-1.278,-1.2803,-1.2676,-1.2529,-1.2372,-1.2372,-3.7079,-3.7033,-3.7283,-3.754,-3.7792,-3.7984,-3.8119,-3.8201,-3.8382,-3.8528,-3.8719,-3.8822,-3.8862,-3.8862,-3.8881,-3.8803,-3.8792,-3.8732,-3.8738,-3.8707,-3.8689,-3.8707,-3.8689,-3.8609,-3.851,-3.8232,-3.7535,-3.6658,-3.5752,-3.4875,-3.405,-3.343,-3.3183,-3.3091,-3.2822,-3.2286,-3.1489,-3.0332,-2.9473,-2.8344,-2.8163,-2.7719,-2.7313,-2.7168,-2.6248,-2.5426,-2.4802,-2.4126,-2.414,-2.4351,-2.4696,-2.5293,-2.5812,-2.6063,-2.5897,-2.5803,-2.5535,-2.5088,-2.346,-2.1911,-2.0131,-1.9848,-1.9632,-1.9487,-1.9325,-1.9288,-1.9011,-1.8659,-1.8307,-1.8069,-1.8069,-1.8069,-1.7922,-1.7747,-1.7584,-1.7323,-1.7323,-1.7282,-1.6989,-1.6778,-1.6607,-1.6436,-1.6349,-1.6337,-1.6076,-1.5546,-1.5244,-1.5153,-1.5187,-1.5108,-1.4846,-1.4569,-1.4302,-1.4348,-1.4337,-1.4244,-1.414,-1.4104,-1.4104,-1.401,-1.3905,-1.3763,-1.38,-1.3541,-1.3032,-1.2383,-1.2069,-1.2047,-1.2497,-1.305,-1.2957,-1.2861,-1.2783,-1.2627,-1.2666,-3.6723,-3.6416,-3.7255,-3.7703,-3.7899,-3.7967,-3.8153,-3.835,-3.8478,-3.8603,-3.8803,-3.8921,-3.895,-3.8939,-3.8979,-3.8921,-3.8833,-3.8822,-3.878,-3.8719,-3.8689,-3.8707,-3.8603,-3.8486,-3.8222,-3.8127,-3.7212,-3.6177,-3.5562,-3.4677,-3.3888,-3.3412,-3.3214,-3.3152,-3.2997,-3.287,-3.1983,-3.0665,-3.0206,-2.9349,-2.8298,-2.7806,-2.7373,-2.6673,-2.5889,-2.5056,-2.4361,-2.4216,-2.4354,-2.4925,-2.5345,-2.5897,-2.6438,-2.6556,-2.64,-2.6115,-2.5542,-2.3987,-2.1365,-2.0618,-2.0285,-2.0166,-1.999,-1.9848,-1.9726,-1.9654,-1.9493,-1.9101,-1.876,-1.8556,-1.8517,-1.8439,-1.8202,-1.8043,-1.7922,-1.7788,-1.7747,-1.7747,-1.7502,-1.7253,-1.7002,-1.6833,-1.668,-1.6595,-1.6466,-1.612,-1.5724,-1.5635,-1.5712,-1.5724,-1.5513,-1.5119,-1.4811,-1.4662,-1.4651,-1.4477,-1.4337,-1.4337,-1.4334,-1.4294,-1.4146,-1.3952,-1.4035,-1.4291,-1.3954,-1.3237,-1.2457,-1.1819,-1.2645,-1.3433,-1.315,-1.2997,-1.2968,-1.2871,-1.2861,-3.6107,-3.6907,-3.7323,-3.7739,-3.8122,-3.8238,-3.8318,-3.8433,-3.8621,-3.8773,-3.8921,-3.8997,-3.9036,-3.9036,-3.9036,-3.9007,-3.8921,-3.8862,-3.8822,-3.8762,-3.8719,-3.864,-3.8462,-3.8052,-3.7734,-3.7171,-3.6259,-3.5421,-3.4844,-3.414,-3.3677,-3.3268,-3.3135,-3.3055,-3.2948,-3.2713,-3.1991,-3.0693,-3.0249,-2.971,-2.8301,-2.7829,-2.7315,-2.6549,-2.5638,-2.4833,-2.4068,-2.4095,-2.4696,-2.5442,-2.5912,-2.6285,-2.6737,-2.6873,-2.6404,-2.5645,-2.4689,-2.2508,-2.1052,-2.0527,-2.0373,-2.0304,-2.025,-2.0131,-2.008,-1.9833,-1.9654,-1.953,-1.9325,-1.9101,-1.8988,-1.8634,-1.84,-1.8282,-1.8163,-1.7989,-1.7949,-1.8043,-1.7909,-1.7706,-1.7461,-1.7461,-1.7365,-1.7186,-1.7005,-1.685,-1.6466,-1.6151,-1.6151,-1.6337,-1.6306,-1.5792,-1.539,-1.5153,-1.496,-1.4743,-1.4636,-1.4609,-1.4708,-1.477,-1.4577,-1.4391,-1.4529,-1.4862,-1.454,-1.412,-1.3475,-1.3043,-1.347,-1.382,-1.3532,-1.3372,-1.3334,-1.3152,-1.3007,-3.6096,-3.6305,-3.7199,-3.7631,-3.783,-3.8194,-3.8382,-3.8546,-3.8732,-3.8851,-3.8939,-3.8997,-3.9007,-3.9036,-3.9092,-3.9036,-3.895,-3.8921,-3.8833,-3.8792,-3.8738,-3.8456,-3.801,-3.7564,-3.7124,-3.6399,-3.5403,-3.4532,-3.4407,-3.3548,-3.3188,-3.3152,-3.3073,-3.2979,-3.2813,-3.2446,-3.1724,-3.0676,-3.0267,-2.9663,-2.8532,-2.7855,-2.7317,-2.6388,-2.5522,-2.4756,-2.4156,-2.426,-2.4916,-2.5684,-2.6214,-2.6567,-2.6943,-2.6544,-2.5746,-2.4296,-2.2785,-2.1231,-2.0827,-2.0527,-2.0373,-2.0304,-2.0304,-2.0304,-2.027,-2.0096,-1.999,-1.9904,-1.9797,-1.9581,-1.9288,-1.8927,-1.8697,-1.8581,-1.8439,-1.8268,-1.8189,-1.8282,-1.8282,-1.8083,-1.7909,-1.7922,-1.7963,-1.7868,-1.7679,-1.7488,-1.724,-1.6934,-1.6625,-1.6778,-1.6833,-1.6362,-1.5913,-1.5635,-1.5322,-1.4926,-1.489,-1.4896,-1.5107,-1.5319,-1.5392,-1.5295,-1.5392,-1.5304,-1.496,-1.4647,-1.4477,-1.4362,-1.4318,-1.4179,-1.3967,-1.38,-1.3716,-1.3478,-1.319,-3.6712,-3.4922,-3.6897,-3.7467,-3.7032,-3.795,-3.8469,-3.8707,-3.8762,-3.8803,-3.8822,-3.8968,-3.8979,-3.895,-3.9045,-3.9036,-3.8939,-3.891,-3.8881,-3.8718,-3.8554,-3.8059,-3.7558,-3.7046,-3.6357,-3.5652,-3.4821,-3.4015,-3.4028,-3.3418,-3.3073,-3.3024,-3.2884,-3.2852,-3.2624,-3.2111,-3.1404,-3.0853,-3.033,-2.9633,-2.8696,-2.819,-2.7226,-2.6223,-2.5374,-2.4462,-2.4007,-2.4224,-2.4903,-2.5646,-2.6377,-2.6902,-2.675,-2.5769,-2.3939,-2.228,-2.1004,-2.0996,-2.0693,-2.0472,-2.0404,-2.035,-2.0304,-2.0304,-2.027,-2.0235,-2.0166,-2.0045,-1.9904,-1.9797,-1.9632,-1.9325,-1.9064,-1.8874,-1.8659,-1.8542,-1.8464,-1.8478,-1.8517,-1.84,-1.8189,-1.8189,-1.8307,-1.8268,-1.8121,-1.7935,-1.7733,-1.7529,-1.7227,-1.7031,-1.7044,-1.6876,-1.6436,-1.612,-1.5724,-1.5335,-1.5302,-1.5414,-1.5691,-1.5928,-1.6074,-1.6289,-1.6452,-1.6248,-1.5511,-1.5137,-1.5023,-1.4842,-1.464,-1.4501,-1.4466,-1.4222,-1.4082,-1.3705,-1.3478,-3.7745,-3.714,-3.7576,-3.7719,-3.7814,-3.831,-3.8627,-3.8707,-3.8762,-3.8822,-3.8881,-3.8968,-3.895,-3.8939,-3.9092,-3.9036,-3.8979,-3.8939,-3.8881,-3.8645,-3.8193,-3.765,-3.6955,-3.6103,-3.5326,-3.4677,-3.4015,-3.3458,-3.3305,-3.2916,-3.2802,-3.2737,-3.2722,-3.2722,-3.2423,-3.1945,-3.1533,-3.112,-3.0601,-2.9793,-2.9009,-2.8449,-2.7218,-2.6127,-2.5542,-2.4549,-2.3885,-2.45,-2.5125,-2.5415,-2.6427,-2.7004,-2.6952,-2.5493,-2.3745,-2.1918,-2.1609,-2.1753,-2.0836,-2.0942,-2.0969,-2.0447,-2.0304,-2.0304,-2.0304,-2.0304,-2.0304,-2.015,-2.001,-1.9869,-1.9848,-1.9654,-1.942,-1.925,-1.9101,-1.9026,-1.895,-1.895,-1.8927,-1.8634,-1.8464,-1.8606,-1.8697,-1.8606,-1.8475,-1.8333,-1.8175,-1.7989,-1.7788,-1.7502,-1.7382,-1.7238,-1.6859,-1.6516,-1.6166,-1.578,-1.5858,-1.5925,-1.6339,-1.6692,-1.6933,-1.7226,-1.7502,-1.7203,-1.6417,-1.5909,-1.5588,-1.5417,-1.5255,-1.5165,-1.5085,-1.4743,-1.4408,-1.4082,-1.3894,-3.7631,-3.8101,-3.7643,-3.7729,-3.8162,-3.818,-3.8212,-3.8327,-3.8674,-3.8833,-3.8881,-3.8968,-3.895,-3.8892,-3.9045,-3.9045,-3.8881,-3.8862,-3.8851,-3.8548,-3.768,-3.7101,-3.6266,-3.5302,-3.446,-3.3818,-3.3337,-3.2973,-3.2787,-3.2623,-3.2523,-3.2573,-3.2557,-3.2506,-3.2382,-3.215,-3.1827,-3.1359,-3.0836,-3.0101,-2.9318,-2.849,-2.726,-2.6321,-2.5858,-2.4933,-2.4085,-2.501,-2.5415,-2.5569,-2.6541,-2.694,-2.6417,-2.4753,-2.3036,-2.1552,-2.2136,-2.2473,-2.2174,-2.1538,-2.1155,-2.0677,-2.0392,-2.0339,-2.0304,-2.0304,-2.0304,-2.0235,-2.008,-1.994,-1.994,-1.994,-1.9797,-1.9639,-1.9566,-1.9545,-1.9508,-1.9457,-1.925,-1.8927,-1.8874,-1.9026,-1.9064,-1.8936,-1.8784,-1.8592,-1.845,-1.8321,-1.8069,-1.7828,-1.7805,-1.7826,-1.7355,-1.6923,-1.6666,-1.6727,-1.7134,-1.7302,-1.7322,-1.765,-1.7878,-1.8014,-1.8219,-1.7873,-1.7319,-1.6921,-1.6656,-1.6212,-1.5981,-1.5921,-1.5778,-1.5447,-1.5028,-1.4569,-1.4512,-3.6435,-3.77,-3.7174,-3.7435,-3.8141,-3.7619,-3.7408,-3.7606,-3.8282,-3.8696,-3.8667,-3.8839,-3.8736,-3.8615,-3.8739,-3.8776,-3.8615,-3.8538,-3.8508,-3.8469,-3.7131,-3.6334,-3.5659,-3.4829,-3.3867,-3.3194,-3.282,-3.2639,-3.2506,-3.237,-3.2318,-3.2422,-3.2161,-3.2126,-3.2335,-3.2317,-3.2066,-3.1767,-3.0942,-3.0083,-2.9318,-2.8357,-2.7437,-2.6833,-2.6412,-2.5974,-2.5505,-2.5681,-2.6165,-2.6272,-2.6559,-2.6908,-2.5814,-2.4315,-2.259,-2.1939,-2.2623,-2.3067,-2.301,-2.2344,-2.1342,-2.0879,-2.0628,-2.0475,-2.0373,-2.0166,-2.0115,-2.0235,-2.0096,-2.0045,-2.0045,-2.0096,-2.001,-1.9975,-1.994,-1.9833,-1.9726,-1.9654,-1.9457,-1.9176,-1.9026,-1.9176,-1.925,-1.9139,-1.9049,-1.886,-1.8606,-1.8478,-1.85,-1.8247,-1.8422,-1.8504,-1.8017,-1.7769,-1.7958,-1.8116,-1.877,-1.8946,-1.8683,-1.8617,-1.8821,-1.8899,-1.8898,-1.8626,-1.8391,-1.8099,-1.7775,-1.7582,-1.728,-1.6777,-1.6549,-1.6178,-1.5727,-1.53,-1.5198,-3.4232,-3.4805,-3.5884,-3.6821,-3.7509,-3.6922,-3.6722,-3.686,-3.7089,-3.7498,-3.7895,-3.8007,-3.7979,-3.784,-3.8006,-3.7979,-3.7849,-3.7837,-3.7871,-3.7209,-3.6188,-3.5514,-3.4775,-3.3993,-3.3279,-3.2959,-3.2674,-3.2387,-3.2197,-3.2055,-3.1948,-3.1965,-3.1856,-3.202,-3.2214,-3.2232,-3.2176,-3.2001,-3.1235,-3.0213,-2.9347,-2.8479,-2.7586,-2.6975,-2.6493,-2.609,-2.5697,-2.5623,-2.5945,-2.6117,-2.6678,-2.6808,-2.6505,-2.5165,-2.4454,-2.4063,-2.3111,-2.3365,-2.3243,-2.2512,-2.1506,-2.098,-2.0695,-2.0543,-2.0323,-2.0045,-1.994,-2.0096,-2.0166,-2.0131,-2.0166,-2.0235,-2.027,-2.027,-2.0235,-2.0096,-1.9955,-1.9797,-1.9675,-1.9493,-1.9288,-1.9288,-1.9413,-1.9376,-1.9288,-1.9064,-1.8697,-1.8602,-1.8965,-1.8946,-1.943,-1.9435,-1.8909,-1.8708,-1.8999,-1.93,-1.9832,-2.0039,-1.9812,-1.9788,-1.9786,-1.9683,-1.9592,-1.9656,-1.952,-1.9107,-1.9121,-1.9568,-1.914,-1.8206,-1.7422,-1.703,-1.6696,-1.6293,-1.6175,-3.2409,-3.2785,-3.4749,-3.6156,-3.6777,-3.626,-3.6051,-3.614,-3.6192,-3.6159,-3.6247,-3.6533,-3.657,-3.6377,-3.6623,-3.6496,-3.6407,-3.6823,-3.6552,-3.5948,-3.5266,-3.4775,-3.4011,-3.3319,-3.2965,-3.2659,-3.2353,-3.2055,-3.1875,-3.1783,-3.1726,-3.1746,-3.1765,-3.1839,-3.2037,-3.2144,-3.2161,-3.2024,-3.1437,-3.0632,-2.9543,-2.8479,-2.789,-2.7285,-2.6951,-2.6527,-2.6255,-2.6056,-2.5875,-2.6216,-2.6678,-2.6674,-2.645,-2.5862,-2.4677,-2.3526,-2.2754,-2.287,-2.2592,-2.2139,-2.1371,-2.1014,-2.081,-2.0628,-2.0561,-2.0273,-1.994,-2.0061,-2.02,-2.02,-2.0254,-2.0373,-2.0323,-2.0339,-2.027,-2.0166,-2.0096,-2.001,-1.9904,-1.9797,-1.9705,-1.9777,-1.9741,-1.9487,-1.945,-1.9376,-1.8965,-1.8812,-1.913,-1.979,-2.0216,-2.0395,-1.9863,-1.9814,-2.0144,-2.0395,-2.0686,-2.0822,-2.0762,-2.0536,-2.0295,-2.0245,-2.0258,-2.0321,-2.0245,-1.9978,-2.0128,-2.0591,-2.0386,-1.9409,-1.8608,-1.7912,-1.7594,-1.7245,-1.7136,-3.1101,-3.1827,-3.3835,-3.5376,-3.6128,-3.5428,-3.525,-3.5336,-3.5056,-3.4455,-3.3794,-3.4179,-3.4111,-3.4464,-3.4686,-3.4345,-3.4397,-3.5081,-3.5009,-3.4645,-3.4142,-3.3664,-3.3369,-3.3069,-3.2645,-3.2336,-3.2073,-3.1912,-3.1748,-3.1617,-3.1559,-3.1671,-3.1671,-3.1671,-3.1965,-3.2091,-3.2108,-3.2133,-3.1721,-3.1217,-2.994,-2.8504,-2.8103,-2.7882,-2.7754,-2.7574,-2.7213,-2.6549,-2.6009,-2.6092,-2.6367,-2.6353,-2.6383,-2.6068,-2.3976,-2.2659,-2.2077,-2.1805,-2.1421,-2.145,-2.114,-2.0968,-2.0824,-2.0761,-2.0695,-2.0494,-2.015,-2.008,-2.022,-2.027,-2.0339,-2.046,-2.0426,-2.0469,-2.0366,-2.0235,-2.0166,-2.0166,-2.0096,-2.0025,-2.0061,-2.0131,-1.999,-1.9756,-1.9596,-1.9523,-1.945,-1.9288,-1.9429,-2.033,-2.1041,-2.1145,-2.0859,-2.0955,-2.1116,-2.1183,-2.1313,-2.1215,-2.1082,-2.0921,-2.0822,-2.0709,-2.0759,-2.0921,-2.0832,-2.0495,-2.0792,-2.1259,-2.0853,-2.0455,-1.9817,-1.9064,-1.8347,-1.8102,-1.8081,-3.0899,-3.3241,-3.337,-3.4173,-3.5173,-3.4195,-3.3985,-3.4213,-3.249,-3.1499,-3.1216,-3.0227,-3.0597,-3.3222,-3.3295,-3.3074,-3.2853,-3.3434,-3.3266,-3.2858,-3.2606,-3.2391,-3.2282,-3.2274,-3.2214,-3.1984,-3.1768,-3.1691,-3.1562,-3.1411,-3.1334,-3.1428,-3.1579,-3.1691,-3.1948,-3.2091,-3.2317,-3.2309,-3.2163,-3.17,-3.0206,-2.8982,-2.8116,-2.7871,-2.7766,-2.7677,-2.719,-2.5969,-2.5819,-2.5794,-2.5678,-2.5809,-2.6,-2.6009,-2.4343,-2.2426,-2.1821,-2.1254,-2.1015,-2.1014,-2.0905,-2.0856,-2.0794,-2.0827,-2.0761,-2.0662,-2.0426,-2.0254,-2.0323,-2.0235,-2.0304,-2.0527,-2.061,-2.0693,-2.0682,-2.0343,-2.0131,-2.0166,-2.02,-2.0166,-2.0131,-2.02,-2.02,-1.999,-1.9848,-1.9762,-1.9705,-1.956,-1.962,-2.0636,-2.1742,-2.1813,-2.1763,-2.1633,-2.1589,-2.1609,-2.165,-2.1554,-2.1458,-2.1264,-2.1166,-2.1118,-2.1215,-2.1458,-2.1229,-2.0858,-2.1277,-2.1746,-2.171,-2.1332,-2.0942,-2.0292,-1.9464,-1.8915,-1.8882]},{"header":{"parameterUnit":"m.s-1","parameterCategory":1,"la1":31.0,"la2":29.5877,"lo1":-88.7671,"lo2":-86.6584,"dy":0.0162,"dx":0.0185,"nx":115,"ny":88,"refTime":"2023-09-07T00:00:00:Z","depth":0,"parameterNumber":3,"parameterNumberName":"V-component_of_WINDS"},"data":[0.0,0.0,0.0,0.0,0.0,0.0,0.0,0.0,0.0,0.0,0.0,0.0,0.0,0.0,0.0,0.0,0.0,0.0,0.0,0.0,0.0,0.0,0.0,0.0,0.0,0.0,0.0,0.0,0.0,0.0,0.0,0.0,0.0,0.0,0.0,0.0,0.0,0.0,0.0,0.0,0.0,0.0,0.0,0.0,0.0,0.0,0.0,0.0,0.0,0.0,0.0,0.0,0.0,0.0,0.0,0.0,0.0,0.0,0.0,0.0,0.0,0.0,0.0,0.0,0.0,0.0,0.0,0.0,0.0,0.0,0.0,0.0,0.0,0.0,0.0,0.0,0.0,0.0,0.0,0.0,0.0,0.0,0.0,0.0,0.0,0.0,0.0,0.0,0.0,0.0,0.0,0.0,0.0,0.0,0.0,0.0,0.0,0.0,0.0,0.0,0.0,0.0,0.0,0.0,0.0,0.0,0.0,0.0,0.0,0.0,0.0,0.0,0.0,0.0,0.0,0.0,0.0,0.0,0.0,0.0,0.0,0.0,0.0,0.0,0.0,0.0,0.0,0.0,0.0,0.0,0.0,0.0,0.0,0.0,0.0,0.0,0.0,0.0,0.0,0.0,0.0,0.0,0.0,0.0,0.0,0.0,0.0,0.0,0.0,0.0,0.0,0.0,0.0,0.0,0.0,0.0,0.0,0.0,0.0,0.0,0.0,0.0,0.0,0.0,0.0,0.0,0.0,0.0,0.0,0.0,0.0,0.0,0.0,0.0,0.0,0.0,0.0,0.0,0.0,0.0,0.0,0.0,0.0,0.0,0.0,0.0,0.0,0.0,0.0,0.0,0.0,0.0,0.0,0.0,0.0,0.0,0.0,0.0,0.0,0.0,0.0,0.0,0.0,0.0,0.0,0.0,0.0,0.0,0.0,0.0,0.0,0.0,0.0,0.0,0.0,0.0,0.0,0.0,0.0,0.0,0.0,0.0,0.0,0.0,0.0,0.0,0.0,0.0,0.0,0.0,0.0,0.0,0.0,0.0,0.0,0.0,0.0,0.0,0.0,0.0,0.0,0.0,0.0,0.0,0.0,0.0,0.0,0.0,0.0,0.0,0.0,0.0,0.0,0.0,0.0,0.0,0.0,0.0,0.0,0.0,0.0,0.0,0.0,0.0,0.0,0.0,0.0,0.0,0.0,0.0,0.0,0.0,0.0,0.0,0.0,0.0,0.0,0.0,0.0,0.0,0.0,0.0,0.0,0.0,0.0,0.0,0.0,0.0,0.0,0.0,0.0,0.0,0.0,0.0,0.0,0.0,0.0,0.0,0.0,0.0,0.0,0.0,0.0,0.0,0.0,0.0,0.0,0.0,0.0,0.0,0.0,0.0,0.0,0.0,0.0,0.0,0.0,0.0,0.0,0.0,0.0,0.0,0.0,0.0,0.0,0.0,0.0,0.0,0.0,0.0,0.0,0.0,0.0,0.0,0.0,0.0,0.0,0.0,0.0,0.0,0.0,0.0,0.0,0.0,0.0,0.0,0.0,0.0,0.0,0.0,0.0,0.0,0.0,0.0,0.0,0.0,0.0,0.0,0.0,0.0,0.0,0.0,0.0,0.0,0.0,0.0,0.0,0.0,0.0,0.0,0.0,0.0,0.0,0.0,0.0,0.0,0.0,0.0,0.0,0.0,0.0,0.0,0.0,0.0,0.0,0.0,0.0,0.0,0.0,0.0,0.0,0.0,0.0,0.0,0.0,0.0,0.0,0.0,0.0,0.0,0.0,0.0,0.0,0.0,0.0,0.0,0.0,0.0,0.0,0.0,0.0,0.0,0.0,0.0,0.0,0.0,0.0,0.0,0.0,0.0,0.0,0.0,0.0,0.0,0.0,0.0,0.0,0.0,0.0,0.0,0.0,0.0,0.0,0.0,0.0,0.0,0.0,0.0,0.0,0.0,0.0,0.0,0.0,0.0,0.0,0.0,0.0,0.0,0.0,0.0,0.0,0.0,0.0,0.0,0.0,0.0,0.0,0.0,0.0,0.0,0.0,0.0,0.0,0.0,0.0,0.0,0.0,0.0,0.0,0.0,0.0,0.0,0.0,0.0,0.0,0.0,0.0,0.0,0.0,0.0,0.0,0.0,0.0,0.0,0.0,0.0,0.0,0.0,0.0,0.0,0.0,0.0,0.0,0.0,0.0,0.0,0.0,0.0,0.0,0.0,0.0,0.0,0.0,0.0,0.0,0.0,0.0,0.0,0.0,0.0,0.0,0.0,0.0,0.0,0.0,0.0,0.0,0.0,0.0,0.0,0.0,0.0,0.0,0.0,0.0,0.0,0.0,0.0,0.0,0.0,0.0,0.0,0.0,0.0,0.0,0.0,0.0,0.0,0.0,0.0,0.0,0.0,0.0,0.0,0.0,0.0,0.0,0.0,0.0,0.0,0.0,0.0,0.0,0.0,0.0,0.0,0.0,0.0,0.0,0.0,0.0,0.0,0.0,0.0,0.0,0.0,0.0,0.0,0.0,0.0,0.0,0.0,0.0,0.0,0.0,0.0,0.0,0.0,0.0,0.0,0.0,0.0,0.0,0.0,0.0,0.0,0.0,0.0,0.0,0.0,0.0,0.0,0.0,0.0,0.0,0.0,0.0,0.0,0.0,0.0,0.0,0.0,0.0,0.0,0.0,0.0,0.0,0.0,0.0,0.0,0.0,0.0,0.0,0.0,0.0,0.0,0.0,0.0,0.0,0.0,0.0,0.0,0.0,0.0,0.0,0.0,0.0,0.0,0.0,0.0,0.0,0.0,0.0,0.0,0.0,0.0,0.0,0.0,0.0,0.0,0.0,0.0,0.0,0.0,0.0,0.0,0.0,0.0,0.0,0.0,0.0,0.0,0.0,0.0,0.0,0.0,0.0,0.0,0.0,0.0,0.0,0.0,0.0,0.0,0.0,0.0,0.0,0.0,0.0,0.0,0.0,0.0,0.0,0.0,0.0,0.0,0.0,0.0,0.0,0.0,0.0,0.0,0.0,0.0,0.0,0.0,0.0,0.0,0.0,0.0,0.0,0.0,0.0,0.0,0.0,0.0,0.0,0.0,0.0,0.0,0.0,0.0,0.0,0.0,0.0,0.0,0.0,0.0,0.0,0.0,0.0,0.0,0.0,0.0,0.0,0.0,0.0,0.0,0.0,0.0,0.0,0.0,0.0,0.0,0.0,0.0,0.0,0.0,0.0,0.0,0.0,0.0,0.0,0.0,0.0,0.0,0.0,0.0,0.0,0.0,0.0,0.0,0.0,0.0,0.0,0.0,0.0,0.0,0.0,0.0,0.0,0.0,0.0,0.0,0.0,0.0,0.0,0.0,0.0,0.0,0.0,0.0,0.0,0.0,0.0,0.0,0.0,0.0,0.0,0.0,0.0,0.0,0.0,0.0,0.0,0.0,0.0,0.0,0.0,0.0,0.0,0.0,0.0,0.0,0.0,0.0,0.0,0.0,0.0,0.0,0.0,0.0,0.0,0.0,0.0,0.0,0.0,0.0,0.0,0.0,0.0,0.0,0.0,0.0,0.0,0.0,0.0,0.0,0.0,0.0,0.0,0.0,0.0,0.0,0.0,0.0,0.0,0.0,0.0,0.0,0.0,0.0,0.0,0.0,0.0,0.0,0.0,0.0,0.0,0.0,0.0,0.0,0.0,0.0,0.0,0.0,0.0,0.0,0.0,0.0,0.0,0.0,0.0,0.0,0.0,0.0,0.0,0.0,0.0,0.0,0.0,0.0,0.0,0.0,0.0,0.0,0.0,0.0,0.0,0.0,0.0,0.0,0.0,0.0,0.0,0.0,0.0,0.0,0.0,0.0,0.0,0.0,0.0,0.0,0.0,0.0,0.0,0.0,0.0,0.0,0.0,0.0,0.0,0.0,0.0,0.0,0.0,0.0,0.0,0.0,0.0,0.0,0.0,0.0,0.0,0.0,0.0,0.0,0.0,0.0,0.0,0.0,0.0,0.0,0.0,0.0,0.0,0.0,0.0,0.0,0.0,0.0,0.0,0.0,0.0,0.0,0.0,0.0,0.0,0.0,0.0,0.0,0.0,0.0,0.0,0.0,0.0,0.0,0.0,0.0,0.0,0.0,0.0,0.0,0.0,0.0,0.0,0.0,0.0,0.0,0.0,0.0,0.0,0.0,0.0,0.0,0.0,0.0,0.0,0.0,0.0,0.0,0.0,0.0,0.0,0.0,0.0,0.0,0.0,0.0,0.0,0.0,0.0,0.0,0.0,0.0,-0.2549,0.0,0.0,0.0,0.0,0.0,0.0,0.0,0.0,0.0,0.0,0.0,0.0,0.0,0.0,0.0,0.0,0.0,0.0,0.0,0.0,0.0,0.0,0.0,0.0,0.0,0.0,0.0,0.0,0.0,0.0,0.0,0.0,0.0,0.0,0.0,0.0,0.0,0.0,0.0,0.0,0.0,0.0,0.0,0.0,0.0,0.0,0.0,0.0,0.0,0.0,0.0,0.0,0.0,0.0,0.0,0.0,0.0,0.0,0.0,0.0,0.0,0.0,0.0,0.0,0.0,0.0,0.0,0.0,0.0,0.0,0.0,0.0,0.0,0.0,0.0,0.0,0.0,0.0,0.0,0.0,0.0,0.0,0.0,0.0,0.0,0.0,0.0,0.0,0.0,0.0,0.0,0.0,0.0,0.0,0.0,0.0,0.0,0.0,0.0,0.0,0.0,0.0,0.0,0.0,0.0,0.0,0.0,0.0,0.0,0.0,-0.365,-0.3663,-0.3429,-0.3104,-0.2685,0.0,0.0,0.0,0.0,0.0,0.0,0.0,0.0,0.0,0.0,0.0,0.0,0.0,0.0,0.0,0.0,0.0,0.0,0.0,0.0,0.0,0.0,0.0,0.0,0.0,0.0,0.0,0.0,0.0,0.0,0.0,0.0,0.0,0.0,0.0,0.0,0.0,0.0,0.0,0.0,0.0,0.0,0.0,0.0,0.0,0.0,0.0,0.0,0.0,0.0,0.0,0.0,0.0,0.0,0.0,0.0,0.0,0.0,0.0,0.0,0.0,0.0,0.0,0.0,0.0,0.0,0.0,0.0,0.0,0.0,0.0,0.0,0.0,0.0,0.0,0.0,0.0,0.0,0.0,0.0,0.0,0.0,0.0,0.0,0.0,0.0,0.0,0.0,0.0,0.0,0.0,0.0,0.0,0.0,0.0,0.0,0.0,0.0,0.0,0.0,0.0,0.0,0.0,0.0,0.0,0.0,0.0,0.0,0.0,0.0,0.0,0.0,-0.403,-0.3748,-0.314,0.0,0.0,0.0,0.0,0.0,0.0,0.0,0.0,0.0,0.0,0.0,0.0,0.0,0.0,0.0,0.0,0.0,0.0,0.0,0.0,0.0,0.0,0.0,0.0,0.0,0.0,0.0,0.0,0.0,0.0,0.0,0.0,0.0,0.0,0.0,0.0,0.0,0.0,0.0,0.0,0.0,0.0,0.0,0.0,0.0,0.0,0.0,0.0,0.0,0.0,0.0,0.0,0.0,0.0,0.0,0.0,0.0,0.0,0.0,0.0,0.0,0.0,0.0,0.0,0.0,0.0,0.0,0.0,0.0,0.0,0.0,0.0,0.0,0.0,0.0,0.0,0.0,0.0,0.0,0.0,0.0,0.0,0.0,0.0,0.0,0.0,0.0,0.0,0.0,0.0,0.0,0.0,0.0,0.0,0.0,0.0,0.0,0.0,0.0,0.0,0.0,0.0,0.0,0.0,0.0,0.0,0.0,0.0,0.0,0.0,-0.3955,-0.4585,-0.4725,0.0,-0.4388,0.0,0.0,0.0,0.0,0.0,0.0,0.0,0.0,0.0,0.0,0.0,0.0,0.0,0.0,0.0,0.0,0.0,0.0,0.0,0.0,0.0,0.0,0.0,0.0,0.0,0.0,0.0,0.0,0.0,0.0,0.0,0.0,0.0,0.0,0.0,0.0,0.0,0.0,0.0,0.0,0.0,0.0,0.0,0.0,0.0,0.0,0.0,0.0,0.0,0.0,0.0,0.0,0.0,0.0,0.0,0.0,0.0,0.0,0.0,0.0,0.0,0.0,0.0,0.0,0.0,0.0,0.0,0.0,0.0,0.0,0.0,0.0,0.0,0.0,0.0,0.0,0.0,0.0,0.0,0.0,0.0,0.0,0.0,0.0,0.0,0.0,0.0,0.0,0.0,0.0,0.0,0.0,0.0,0.0,0.0,0.0,0.0,0.0,0.0,0.0,0.0,0.0,0.0,0.0,0.0,0.0,0.0,0.0,0.0,0.0,-0.461,-0.4879,-0.467,-0.4672,0.0,0.0,0.0,0.0,0.0,0.0,0.0,0.0,0.0,0.0,0.0,0.0,0.0,0.0,0.0,0.0,0.0,0.0,0.0,0.0,0.0,0.0,0.0,0.0,0.0,0.0,0.0,0.0,0.0,0.0,0.0,0.0,0.0,0.0,0.0,0.0,0.0,0.0,0.0,0.0,0.0,0.0,0.0,0.0,0.0,0.0,0.0,0.0,0.0,0.0,0.0,0.0,0.0,0.0,0.0,0.0,0.0,0.0,0.0,0.0,0.0,0.0,0.0,0.0,0.0,0.0,0.0,0.0,0.0,0.0,0.0,0.0,0.0,0.0,0.0,0.0,0.0,0.0,0.0,0.0,0.0,0.0,0.0,0.0,0.0,0.0,0.0,0.0,0.0,0.0,0.0,0.0,0.0,0.0,0.0,0.0,0.0,0.0,0.0,0.0,0.0,0.0,0.0,0.0,0.0,0.0,0.0,0.0,0.0,0.0,-0.5162,-0.5255,-0.5416,-0.4956,-0.4857,-0.5274,0.0,0.0,0.0,0.0,0.0,0.0,0.0,0.0,0.0,0.0,0.0,0.0,0.0,0.0,0.0,0.0,0.0,0.0,0.0,0.0,0.0,0.0,0.0,0.0,0.0,0.0,0.0,0.0,0.0,0.0,0.0,0.0,0.0,0.0,0.0,0.0,0.0,0.0,0.0,0.0,0.0,0.0,0.0,0.0,0.0,0.0,0.0,0.0,0.0,0.0,0.0,0.0,0.0,0.0,0.0,0.0,0.0,0.0,0.0,0.0,0.0,0.0,0.0,0.0,0.0,0.0,0.0,0.0,0.0,0.0,0.0,0.0,0.0,0.0,0.0,0.0,0.0,0.0,0.0,0.0,0.0,0.0,0.0,0.0,0.0,0.0,0.0,0.0,0.0,0.0,0.0,0.0,0.0,0.0,0.0,0.0,0.0,0.0,0.0,0.0,0.0,0.0,0.0,0.0,0.0,0.0,0.0,0.0,-0.637,-0.5643,-0.5667,-0.6578,-0.592,-0.5539,0.0,0.0,0.0,0.0,0.0,0.0,0.0,0.0,0.0,0.0,0.0,0.0,0.0,0.0,0.0,0.0,0.0,0.0,0.0,0.0,0.0,0.0,0.0,0.0,0.0,0.0,0.0,0.0,0.0,0.0,0.0,0.0,0.0,0.0,0.0,0.0,0.0,0.0,0.0,0.0,0.0,0.0,0.0,0.0,0.0,0.0,0.0,0.0,0.0,0.0,0.0,0.0,0.0,0.0,0.0,0.0,0.0,0.0,0.0,0.0,0.0,0.0,0.0,0.0,0.0,0.0,0.0,0.0,0.0,0.0,0.0,0.0,0.0,0.0,0.0,0.0,0.0,0.0,0.0,0.0,0.0,0.0,0.0,0.0,0.0,0.0,0.0,0.0,0.0,0.0,0.0,0.0,0.0,0.0,0.0,0.0,0.0,0.0,0.0,0.0,0.0,0.0,0.0,0.0,0.0,0.0,0.0,0.0,0.0,-0.4989,-0.5489,-0.64,-0.7617,-0.6319,-0.588,0.0,0.0,0.0,0.0,0.0,0.0,0.0,0.0,0.0,0.0,0.0,0.0,0.0,0.0,0.0,0.0,0.0,0.0,0.0,0.0,0.0,0.0,0.0,0.0,0.0,0.0,0.0,0.0,0.0,0.0,0.0,0.0,0.0,0.0,0.0,0.0,0.0,0.0,0.0,0.0,0.0,0.0,0.0,0.0,0.0,0.0,0.0,0.0,0.0,0.0,0.0,0.0,0.0,0.0,0.0,0.0,0.0,0.0,0.0,0.0,0.0,0.0,0.0,0.0,0.0,0.0,0.0,0.0,0.0,0.0,0.0,0.0,0.0,0.0,0.0,0.0,0.0,0.0,0.0,0.0,0.0,0.0,0.0,0.0,0.0,0.0,0.0,0.0,0.0,0.0,0.0,0.0,0.0,0.0,0.0,0.0,0.0,0.0,0.0,0.0,0.0,0.0,0.0,0.0,0.0,0.0,0.0,0.0,0.0,-0.4994,0.0,-0.7097,-0.7806,-0.6533,-0.5704,0.0,0.0,0.0,0.0,0.0,0.0,0.0,0.0,0.0,0.0,0.0,0.0,0.0,0.0,0.0,0.0,0.0,0.0,0.0,0.0,0.0,0.0,0.0,0.0,0.0,0.0,0.0,0.0,0.0,0.0,0.0,0.0,0.0,0.0,0.0,0.0,0.0,0.0,0.0,0.0,0.0,0.0,0.0,0.0,0.0,0.0,0.0,0.0,0.0,0.0,0.0,0.0,0.0,0.0,0.0,0.0,0.0,0.0,0.0,0.0,0.0,0.0,0.0,0.0,0.0,0.0,0.0,0.0,0.0,0.0,0.0,0.0,0.0,0.0,0.0,0.0,0.0,0.0,0.0,0.0,0.0,0.0,0.0,0.0,0.0,0.0,0.0,0.0,0.0,0.0,0.0,0.0,0.0,0.0,0.0,0.0,0.0,0.0,0.0,0.0,0.0,0.0,0.0,0.0,0.0,0.0,0.0,0.0,-0.4195,-0.6752,-0.7605,-0.778,-0.7169,-0.6627,-0.5061,0.0,0.0,0.0,0.0,0.0,0.0,0.0,0.0,0.0,0.0,0.0,0.0,0.0,0.0,0.0,0.0,0.0,0.0,0.0,0.0,0.0,0.0,0.0,0.0,0.0,0.0,0.0,0.0,0.0,0.0,0.0,0.0,0.0,0.0,0.0,0.0,0.0,0.0,0.0,0.0,0.0,0.0,0.0,0.0,0.0,0.0,0.0,0.0,0.0,0.0,0.0,0.0,0.0,0.0,0.0,0.0,0.0,0.0,0.0,0.0,0.0,0.0,0.0,0.0,0.0,0.0,0.0,0.0,0.0,0.0,0.0,0.0,0.0,0.0,0.0,0.0,0.0,0.0,0.0,0.0,0.0,0.0,0.0,0.0,0.0,0.0,0.0,0.0,0.0,0.0,0.0,0.0,0.0,0.0,0.0,0.0,0.0,0.0,0.0,0.0,0.0,0.0,0.0,0.0,0.0,0.0,0.0,0.0,0.0,-0.6185,-0.8155,-0.9048,-0.8763,-0.6565,-0.493,0.0,0.0,0.0,0.0,0.0,0.0,0.0,0.0,0.0,0.0,0.0,0.0,0.0,0.0,0.0,0.0,0.0,0.0,0.0,0.0,0.0,0.0,0.0,0.0,0.0,0.0,0.0,0.0,0.0,0.0,0.0,0.0,0.0,0.0,0.0,0.0,0.0,0.0,0.0,0.0,0.0,0.0,0.0,0.0,0.0,0.0,0.0,0.0,0.0,0.0,0.0,0.0,0.0,0.0,0.0,0.0,0.0,0.0,0.0,0.0,0.0,0.0,0.0,0.0,0.0,0.0,0.0,0.0,0.0,0.0,0.0,0.0,0.0,0.0,0.0,0.0,0.0,0.0,0.0,0.0,0.0,0.0,0.0,0.0,0.0,0.0,0.0,0.0,0.0,0.0,0.0,0.0,0.0,0.0,0.0,0.0,0.0,0.0,0.0,0.0,0.0,0.0,0.0,0.0,0.0,0.0,0.0,0.0,0.0,-0.7751,-0.9555,-1.0347,-0.9986,-0.8123,-0.6389,-0.4818,0.0,0.0,0.0,0.0,0.0,0.0,0.0,0.0,0.0,0.0,0.0,0.0,0.0,0.0,0.0,0.0,0.0,0.0,0.0,0.0,0.0,0.0,0.0,0.0,0.0,0.0,0.0,0.0,0.0,0.0,0.0,0.0,0.0,0.0,0.0,0.0,0.0,0.0,0.0,0.0,0.0,0.0,0.0,0.0,0.0,0.0,0.0,0.0,0.0,0.0,0.0,0.0,0.0,0.0,0.0,0.0,0.0,0.0,0.0,0.0,0.0,0.0,0.0,0.0,0.0,0.0,0.0,0.0,0.0,0.0,0.0,0.0,0.0,0.0,0.0,0.0,0.0,0.0,0.0,0.0,0.0,0.0,0.0,0.0,0.0,0.0,0.0,0.0,0.0,0.0,0.0,0.0,0.0,0.0,0.0,0.0,0.0,0.0,0.0,0.0,0.0,0.0,0.0,0.0,0.0,0.0,0.0,0.0,-1.0985,-1.1773,-1.1765,-1.0836,-1.0798,-0.8975,0.0,0.0,0.0,0.0,0.0,0.0,0.0,0.0,0.0,0.0,0.0,0.0,0.0,0.0,0.0,0.0,0.0,0.0,0.0,0.0,0.0,0.0,0.0,0.0,0.0,0.0,0.0,0.0,0.0,0.0,0.0,0.0,0.0,0.0,0.0,0.0,0.0,0.0,0.0,0.0,0.0,0.0,0.0,0.0,0.0,0.0,0.0,0.0,0.0,0.0,0.0,0.0,0.0,0.0,0.0,0.0,0.0,0.0,0.0,0.0,0.0,0.0,0.0,0.0,0.0,0.0,0.0,0.0,0.0,0.0,0.0,0.0,0.0,0.0,0.0,0.0,0.0,0.0,0.0,0.0,0.0,0.0,0.0,0.0,0.0,0.0,0.0,0.0,0.0,0.0,0.0,0.0,0.0,0.0,0.0,0.0,0.0,0.0,0.0,0.0,0.0,0.0,0.0,0.0,0.0,0.0,0.0,0.0,0.0,-1.325,-1.4802,-1.4798,-1.3147,-1.1388,-0.9634,0.0,0.0,0.0,0.0,0.0,0.0,0.0,0.0,0.0,0.0,0.0,0.0,0.0,0.0,0.0,0.0,0.0,0.0,0.0,0.0,0.0,0.0,0.0,0.0,0.0,0.0,0.0,0.0,0.0,0.0,0.0,0.0,0.0,0.0,0.0,0.0,0.0,0.0,0.0,0.0,0.0,0.0,0.0,0.0,0.0,0.0,0.0,0.0,0.0,0.0,0.0,0.0,0.0,0.0,0.0,0.0,0.0,0.0,0.0,0.0,0.0,0.0,0.0,0.0,0.0,0.0,0.0,0.0,0.0,0.0,0.0,0.0,0.0,0.0,0.0,0.0,0.0,0.0,0.0,0.0,0.0,0.0,0.0,0.0,0.0,0.0,0.0,0.0,0.0,0.0,0.0,0.0,0.0,0.0,0.0,0.0,0.0,0.0,0.0,0.0,0.0,0.0,0.0,0.0,0.0,0.0,0.0,0.0,-1.1297,-1.4553,-1.6148,-1.6655,-1.5989,-1.3679,-1.1585,0.0,0.0,0.0,0.0,0.0,0.0,0.0,0.0,0.0,0.0,0.0,0.0,0.0,0.0,0.0,0.0,0.0,0.0,0.0,0.0,0.0,0.0,0.0,0.0,0.0,0.0,0.0,0.0,0.0,0.0,0.0,0.0,0.0,0.0,0.0,0.0,0.0,0.0,0.0,0.0,0.0,0.0,0.0,0.0,0.0,0.0,0.0,0.0,0.0,0.0,0.0,0.0,0.0,0.0,0.0,0.0,0.0,0.0,0.0,0.0,0.0,0.0,0.0,0.0,0.0,0.0,0.0,0.0,0.0,0.0,0.0,0.0,0.0,0.0,0.0,0.0,0.0,0.0,0.0,0.0,0.0,0.0,0.0,0.0,0.0,0.0,0.0,0.0,0.0,0.0,0.0,0.0,0.0,0.0,0.0,0.0,0.0,0.0,0.0,0.0,0.0,0.0,0.0,0.0,0.0,0.0,0.0,0.0,-1.1633,-1.5333,-1.6553,-1.7744,-1.8868,-1.6703,-1.3951,0.0,0.0,0.0,0.0,0.0,0.0,0.0,0.0,0.0,0.0,0.0,0.0,0.0,0.0,0.0,0.0,0.0,0.0,0.0,0.0,0.0,0.0,0.0,0.0,0.0,0.0,0.0,0.0,0.0,0.0,0.0,0.0,0.0,0.0,0.0,0.0,0.0,0.0,0.0,0.0,0.0,0.0,0.0,0.0,0.0,0.0,0.0,0.0,0.0,0.0,0.0,0.0,0.0,0.0,0.0,0.0,0.0,0.0,0.0,0.0,0.0,0.0,0.0,0.0,0.0,0.0,0.0,0.0,0.0,0.0,0.0,0.0,0.0,0.0,0.0,0.0,0.0,0.0,0.0,0.0,0.0,0.0,0.0,0.0,0.0,0.0,0.0,0.0,0.0,0.0,0.0,0.0,0.0,0.0,0.0,0.0,0.0,0.0,0.0,0.0,0.0,0.0,0.0,0.0,0.0,0.0,0.0,0.0,-1.2608,-1.673,-1.7325,-1.8663,-2.0895,-1.7683,-1.417,0.0,0.0,0.0,0.0,0.0,0.0,0.0,0.0,0.0,0.0,0.0,0.0,0.0,0.0,0.0,0.0,0.0,0.0,0.0,0.0,0.0,0.0,0.0,0.0,0.0,0.0,0.0,0.0,0.0,0.0,0.0,0.0,0.0,0.0,0.0,0.0,0.0,0.0,0.0,0.0,0.0,0.0,0.0,0.0,0.0,0.0,0.0,0.0,-0.7763,0.0,0.0,0.0,0.0,0.0,0.0,0.0,0.0,0.0,0.0,0.0,0.0,0.0,0.0,0.0,0.0,0.0,0.0,0.0,0.0,0.0,0.0,0.0,0.0,0.0,0.0,0.0,0.0,0.0,0.0,0.0,0.0,0.0,0.0,0.0,0.0,0.0,0.0,0.0,0.0,0.0,0.0,0.0,0.0,0.0,0.0,0.0,0.0,0.0,0.0,0.0,0.0,0.0,0.0,0.0,0.0,0.0,0.0,0.0,-1.2955,-1.6427,-1.7567,-1.8799,-2.0166,-1.7914,-1.494,0.0,0.0,0.0,0.0,0.0,0.0,0.0,0.0,0.0,0.0,0.0,0.0,0.0,0.0,0.0,0.0,0.0,0.0,0.0,0.0,0.0,0.0,0.0,0.0,0.0,0.0,0.0,0.0,0.0,0.0,0.0,0.0,0.0,0.0,0.0,0.0,0.0,0.0,0.0,0.0,0.0,0.0,0.0,0.0,0.0,0.0,0.0,0.0,0.0,0.0,0.0,0.0,0.0,0.0,0.0,0.0,0.0,0.0,0.0,0.0,0.0,0.0,0.0,0.0,0.0,0.0,0.0,0.0,0.0,0.0,0.0,0.0,0.0,0.0,0.0,0.0,0.0,0.0,0.0,0.0,0.0,0.0,0.0,0.0,0.0,0.0,0.0,0.0,0.0,0.0,0.0,0.0,0.0,0.0,0.0,0.0,0.0,0.0,0.0,0.0,0.0,0.0,0.0,0.0,0.0,0.0,0.0,-1.0685,-1.3018,-1.575,-1.7392,-1.8431,-1.8821,-1.7675,-1.5494,-1.221,0.0,0.0,0.0,0.0,0.0,0.0,0.0,0.0,0.0,0.0,0.0,0.0,0.0,0.0,0.0,0.0,0.0,0.0,0.0,0.0,0.0,0.0,0.0,0.0,0.0,0.0,0.0,0.0,0.0,0.0,0.0,0.0,0.0,0.0,0.0,0.0,0.0,0.0,-0.5473,-0.6777,0.0,0.0,0.0,0.0,0.0,0.0,0.0,0.0,-0.9904,0.0,0.0,0.0,0.0,0.0,0.0,0.0,0.0,0.0,0.0,0.0,0.0,0.0,0.0,0.0,0.0,0.0,0.0,0.0,0.0,0.0,0.0,0.0,0.0,0.0,0.0,0.0,0.0,0.0,0.0,0.0,0.0,0.0,0.0,0.0,0.0,0.0,0.0,0.0,0.0,0.0,0.0,0.0,0.0,0.0,0.0,0.0,0.0,0.0,0.0,0.0,0.0,0.0,0.0,0.0,0.0,-1.0201,-1.1041,-1.305,-1.6252,-1.684,-1.7599,-1.8627,-1.6933,-1.4438,-1.1293,0.0,0.0,0.0,0.0,0.0,0.0,0.0,0.0,0.0,0.0,0.0,0.0,0.0,0.0,0.0,0.0,0.0,0.0,0.0,0.0,0.0,0.0,0.0,0.0,0.0,0.0,0.0,0.0,0.0,0.0,0.0,0.0,0.0,0.0,0.0,0.0,0.0,0.0,0.0,-0.7537,-0.8212,0.0,0.0,0.0,0.0,0.0,0.0,0.0,0.0,-1.1049,0.0,0.0,0.0,0.0,0.0,0.0,0.0,0.0,0.0,0.0,0.0,0.0,0.0,0.0,0.0,0.0,0.0,0.0,0.0,0.0,0.0,0.0,0.0,0.0,0.0,0.0,0.0,0.0,0.0,0.0,0.0,0.0,0.0,0.0,0.0,0.0,0.0,0.0,0.0,0.0,0.0,0.0,0.0,0.0,0.0,0.0,0.0,0.0,0.0,0.0,0.0,0.0,0.0,0.0,0.0,-0.9798,-1.1152,-1.3074,-1.5572,-1.604,-1.6417,-1.6787,-1.4806,-1.2471,0.0,0.0,0.0,0.0,0.0,0.0,0.0,0.0,0.0,0.0,0.0,0.0,0.0,0.0,0.0,0.0,0.0,0.0,0.0,0.0,0.0,0.0,0.0,0.0,0.0,0.0,0.0,0.0,0.0,0.0,0.0,0.0,0.0,0.0,0.0,0.0,0.0,0.0,0.0,0.0,-0.7988,-0.8628,-1.1153,0.0,0.0,0.0,0.0,0.0,0.0,-1.2373,-1.1546,0.0,0.0,0.0,0.0,0.0,0.0,0.0,0.0,0.0,0.0,0.0,0.0,0.0,0.0,0.0,0.0,0.0,0.0,0.0,0.0,0.0,0.0,0.0,0.0,0.0,0.0,0.0,0.0,0.0,0.0,0.0,0.0,0.0,0.0,0.0,0.0,0.0,0.0,0.0,0.0,0.0,0.0,0.0,0.0,0.0,0.0,0.0,0.0,0.0,0.0,0.0,0.0,0.0,0.0,0.0,-0.9125,-1.0929,-1.2755,-1.453,-1.5129,-1.5267,-1.4909,-1.2932,-1.0887,0.0,0.0,0.0,0.0,0.0,0.0,0.0,0.0,0.0,0.0,0.0,0.0,0.0,0.0,0.0,0.0,0.0,0.0,0.0,0.0,0.0,0.0,0.0,0.0,0.0,0.0,0.0,0.0,0.0,0.0,0.0,0.0,0.0,0.0,0.0,0.0,0.0,0.0,0.0,0.0,0.0,-0.9811,-1.2747,-1.3165,0.0,0.0,0.0,0.0,-1.2591,-1.3223,0.0,0.0,0.0,0.0,0.0,0.0,0.0,0.0,0.0,0.0,0.0,0.0,0.0,0.0,0.0,0.0,0.0,0.0,0.0,0.0,0.0,0.0,0.0,0.0,0.0,0.0,0.0,0.0,0.0,0.0,0.0,0.0,0.0,0.0,0.0,0.0,0.0,0.0,0.0,0.0,0.0,0.0,0.0,0.0,0.0,0.0,0.0,0.0,0.0,0.0,0.0,0.0,0.0,0.0,0.0,0.0,-0.8829,-1.0134,-1.1705,-1.359,-1.4186,-1.4404,-1.4276,-1.2682,-1.0897,0.0,0.0,0.0,0.0,0.0,0.0,0.0,0.0,0.0,0.0,0.0,0.0,0.0,0.0,0.0,0.0,0.0,0.0,0.0,0.0,0.0,0.0,0.0,0.0,0.0,0.0,0.0,0.0,0.0,0.0,0.0,0.0,0.0,0.0,0.0,0.0,0.0,0.0,0.0,0.0,0.0,-1.2833,-1.4578,-1.5652,-1.6183,0.0,0.0,-1.24,-1.4671,-1.399,0.0,0.0,0.0,0.0,0.0,0.0,0.0,0.0,0.0,0.0,0.0,0.0,0.0,0.0,0.0,0.0,0.0,0.0,0.0,0.0,0.0,0.0,0.0,0.0,0.0,0.0,0.0,0.0,0.0,0.0,0.0,0.0,0.0,0.0,0.0,0.0,0.0,0.0,0.0,0.0,0.0,0.0,0.0,0.0,0.0,0.0,0.0,0.0,0.0,0.0,0.0,0.0,0.0,0.0,0.0,-0.745,-0.8677,-0.9859,-1.1395,-1.3221,-1.3067,-1.3115,-1.3458,-1.1671,-0.9986,0.0,0.0,0.0,0.0,0.0,0.0,0.0,0.0,0.0,0.0,0.0,0.0,0.0,0.0,0.0,0.0,0.0,0.0,0.0,0.0,0.0,0.0,0.0,0.0,0.0,0.0,0.0,0.0,0.0,0.0,0.0,0.0,0.0,0.0,0.0,0.0,0.0,0.0,0.0,0.0,0.0,0.0,-1.6176,-1.7331,0.0,0.0,0.0,-1.4916,-1.6238,0.0,0.0,0.0,0.0,0.0,0.0,0.0,0.0,0.0,0.0,0.0,0.0,0.0,0.0,0.0,0.0,0.0,0.0,0.0,0.0,0.0,0.0,0.0,0.0,0.0,0.0,0.0,0.0,0.0,0.0,0.0,0.0,0.0,0.0,0.0,0.0,0.0,0.0,0.0,0.0,0.0,0.0,0.0,0.0,0.0,0.0,0.0,0.0,0.0,0.0,0.0,0.0,0.0,0.0,0.0,0.0,0.0,-0.8555,-0.9745,-1.1202,-1.2814,-1.2271,-1.2175,-1.2607,-1.1052,0.0,0.0,0.0,0.0,0.0,0.0,0.0,0.0,0.0,0.0,0.0,0.0,0.0,0.0,0.0,0.0,0.0,0.0,0.0,0.0,0.0,0.0,0.0,0.0,0.0,0.0,0.0,0.0,0.0,0.0,0.0,0.0,0.0,0.0,0.0,0.0,0.0,0.0,0.0,0.0,0.0,0.0,-1.3926,-1.7054,-1.8536,-1.8892,0.0,0.0,-1.6809,-1.7733,-1.8808,-1.8106,0.0,0.0,0.0,0.0,0.0,0.0,0.0,0.0,0.0,0.0,0.0,0.0,0.0,0.0,0.0,0.0,0.0,0.0,0.0,0.0,0.0,0.0,0.0,0.0,0.0,0.0,0.0,0.0,0.0,0.0,0.0,0.0,0.0,0.0,0.0,0.0,0.0,0.0,0.0,0.0,0.0,0.0,0.0,0.0,0.0,0.0,0.0,0.0,0.0,0.0,0.0,0.0,0.0,0.0,-0.7086,-0.839,-0.9686,-1.0878,-1.2027,-1.21,-1.2049,-1.1973,-1.1268,-1.0255,0.0,0.0,0.0,0.0,0.0,0.0,0.0,0.0,0.0,0.0,0.0,0.0,0.0,0.0,0.0,0.0,0.0,0.0,0.0,0.0,0.0,0.0,0.0,0.0,0.0,0.0,0.0,0.0,0.0,0.0,0.0,0.0,0.0,0.0,0.0,0.0,0.0,0.0,0.0,0.0,0.0,-1.3807,-1.6798,-1.9182,-2.0678,0.0,-1.8253,-1.7167,-1.9393,-2.1619,-2.1343,-1.6056,0.0,0.0,0.0,0.0,0.0,0.0,0.0,0.0,0.0,0.0,0.0,0.0,0.0,0.0,0.0,0.0,0.0,0.0,0.0,0.0,0.0,0.0,0.0,0.0,0.0,0.0,0.0,0.0,0.0,0.0,0.0,0.0,0.0,0.0,0.0,0.0,0.0,0.0,0.0,0.0,0.0,0.0,0.0,0.0,0.0,0.0,0.0,0.0,0.0,0.0,0.0,0.0,0.0,-0.7783,-0.8229,-0.9884,-1.107,-1.1781,-1.1848,-1.1848,-1.1848,-1.1629,-1.0662,0.0,0.0,0.0,0.0,0.0,0.0,0.0,0.0,0.0,0.0,0.0,0.0,0.0,0.0,0.0,0.0,0.0,0.0,0.0,0.0,0.0,0.0,0.0,0.0,0.0,0.0,0.0,0.0,0.0,-0.0682,-0.2415,0.0,0.0,0.0,0.0,0.0,0.0,0.0,0.0,0.0,0.0,-1.5335,-1.6771,-1.899,0.0,0.0,-2.0713,-1.9657,-2.0947,-2.1096,-2.0142,-1.7326,-1.4747,0.0,0.0,0.0,0.0,0.0,0.0,0.0,0.0,0.0,0.0,0.0,0.0,0.0,0.0,0.0,0.0,0.0,0.0,0.0,0.0,0.0,0.0,0.0,0.0,0.0,0.0,0.0,0.0,0.0,0.0,0.0,0.0,0.0,0.0,0.0,0.0,0.0,0.0,0.0,0.0,0.0,0.0,0.0,0.0,0.0,0.0,0.0,0.0,0.0,0.0,0.0,0.0,-0.8312,-0.8417,-1.0099,-1.1187,-1.1659,-1.1659,-1.1681,-1.1718,-1.1718,-1.094,0.0,0.0,0.0,0.0,0.0,0.0,0.0,0.0,0.0,0.0,0.0,0.0,0.0,0.0,0.0,0.0,0.0,0.0,0.0,0.0,0.0,0.0,0.0,0.0,0.0,0.0,0.0,0.0,-0.0614,-0.0468,-0.1713,0.0,0.0,0.0,0.0,0.0,0.0,0.0,0.0,0.0,0.0,-1.6627,-1.7371,-1.9686,-2.1967,-2.3611,-2.2683,-2.1861,-2.2042,-2.1494,-2.0433,-1.8694,0.0,0.0,0.0,0.0,0.0,0.0,0.0,0.0,0.0,0.0,0.0,0.0,0.0,0.0,0.0,0.0,0.0,0.0,0.0,0.0,0.0,0.0,0.0,0.0,0.0,0.0,0.0,-0.1838,0.0,0.0,-0.0368,0.0,0.0,0.0,0.0,0.0,0.0,0.0,0.0,0.0,0.0,0.0,0.0,0.0,0.0,0.0,0.0,0.0,0.0,0.0,0.0,0.0,0.0,-0.8447,-0.908,-1.0288,-1.1156,-1.1601,-1.1608,-1.163,-1.1555,-1.1519,-1.1183,-1.0477,0.0,0.0,0.0,0.0,0.0,0.0,0.0,0.0,0.0,0.0,0.0,0.0,0.0,0.0,0.0,0.0,0.0,0.0,0.0,0.0,0.0,0.0,0.0,0.0,0.0,0.0,-0.5191,-0.202,-0.0136,0.0,0.0,0.0,0.0,0.0,0.0,0.0,0.0,0.0,-1.5536,-1.6402,-1.749,-1.8792,-2.1676,-2.3712,-2.4133,-2.3876,-2.3353,-2.263,-2.3489,-2.3337,0.0,0.0,0.0,0.0,0.0,0.0,0.0,0.0,0.0,0.0,0.0,0.0,0.0,0.0,0.0,0.0,0.0,0.0,0.0,0.0,0.0,0.0,0.0,0.0,0.0,0.0,0.0,-0.8072,-0.6383,0.0,0.0,0.0,0.0,0.0,0.0,0.0,0.0,0.0,0.0,0.0,-1.0877,-1.0985,0.0,0.0,0.0,0.0,0.0,0.0,0.0,0.0,0.0,0.0,0.0,0.0,-0.928,-0.8946,-1.0808,-1.1911,-1.2081,-1.2462,-1.2665,-1.2614,-1.264,-1.2168,-1.1213,0.0,0.0,0.0,0.0,0.0,0.0,0.0,0.0,0.0,0.0,0.0,0.0,0.0,0.0,0.0,0.0,0.0,0.0,0.0,0.0,0.0,0.0,0.0,0.0,0.0,-0.858,0.0,0.0,0.0,0.0,0.0,0.0,0.0,0.0,0.0,0.0,0.0,-1.7928,-1.858,-1.9591,-2.0264,-2.0342,-2.166,-2.3037,0.0,0.0,0.0,0.0,0.0,0.0,0.0,0.0,0.0,0.0,0.0,0.0,0.0,0.0,-2.0834,-1.3767,-1.2484,-1.27,-1.3265,0.0,0.0,0.0,0.0,0.0,0.0,0.0,0.0,0.0,0.0,0.0,0.0,0.0,0.0,-1.0762,-0.9555,-0.8134,0.0,0.0,0.0,0.0,0.0,0.0,0.0,0.0,-1.1211,-1.1721,-1.1985,-1.2342,-1.239,-1.2177,-1.1869,-1.0587,0.0,0.0,0.0,0.0,0.0,0.0,0.0,0.0,-0.9463,-0.9303,-1.124,-1.2435,-1.2796,-1.2986,-1.3102,-1.3061,-1.298,-1.2512,-1.1613,-1.1407,-1.0908,0.0,0.0,0.0,0.0,0.0,0.0,0.0,0.0,0.0,0.0,0.0,0.0,0.0,0.0,0.0,0.0,0.0,0.0,0.0,0.0,0.0,0.0,0.0,-0.8687,0.0,0.0,0.0,0.0,0.0,0.0,0.0,0.0,0.0,-2.0403,-2.0439,-2.0497,-2.1256,-2.1899,-2.202,-2.1185,0.0,0.0,0.0,0.0,0.0,0.0,0.0,-2.2012,-2.4165,-2.5797,-2.5997,-2.3506,-2.1352,-2.0978,-2.4174,0.0,0.0,-1.8561,-1.7399,-1.7619,-1.8273,-1.9282,-2.0471,-2.1666,-1.9796,-1.7352,0.0,0.0,0.0,0.0,-1.2507,0.0,0.0,0.0,-1.2745,-1.2194,0.0,-1.1281,0.0,0.0,0.0,0.0,-1.1,-1.0652,0.0,0.0,-1.2621,-1.3077,-1.3369,-1.3485,-1.3693,-1.3927,-1.4058,-1.3633,-1.2617,-0.9742,0.0,0.0,0.0,0.0,0.0,0.0,-0.9017,-1.0146,-1.1536,-1.2692,-1.3629,-1.3193,-1.2941,-1.2872,-1.262,-1.2251,-1.1814,-1.2443,-1.251,-1.1822,-1.2097,0.0,0.0,0.0,0.0,0.0,0.0,0.0,0.0,0.0,0.0,0.0,0.0,0.0,0.0,0.0,0.0,0.0,0.0,0.0,0.0,-0.7601,0.0,0.0,0.0,0.0,0.0,0.0,0.0,0.0,0.0,-2.0297,-2.3145,-2.2743,-2.2515,-2.3388,0.0,0.0,0.0,0.0,-2.4036,-2.4171,-2.4247,-2.4321,-2.4464,-2.4557,-2.4631,-2.4594,0.0,0.0,-2.6934,-2.5706,-2.4696,-2.4941,-2.6167,-2.6066,-2.2619,-2.2009,-2.2635,-2.4326,-2.5735,-2.6842,-2.6477,-2.3543,-2.0779,-1.559,0.0,0.0,0.0,0.0,-1.41,-1.4214,-1.4252,-1.4849,-1.438,-1.3106,-1.3514,0.0,0.0,0.0,0.0,0.0,0.0,-1.2406,-1.3685,-1.3729,-1.4095,-1.472,-1.4622,-1.4686,-1.4885,-1.4946,-1.4421,-1.3354,-1.253,-1.1269,-0.9591,0.0,0.0,0.0,0.0,-0.9818,-0.9891,-1.184,-1.3118,-1.35,-1.3827,-1.3895,-1.3802,-1.3583,-1.3271,-1.286,-1.3629,-1.3896,-1.3448,-1.4151,0.0,0.0,0.0,0.0,0.0,0.0,0.0,0.0,0.0,0.0,0.0,0.0,0.0,0.0,0.0,0.0,0.0,0.0,0.0,-0.552,-0.5836,-0.6777,0.0,0.0,0.0,0.0,0.0,0.0,0.0,0.0,0.0,-2.4431,-2.4605,-2.4298,0.0,0.0,-2.5778,-2.3213,-2.3581,-2.4151,-2.4208,-2.4209,0.0,-2.4339,-2.6239,-2.7301,-2.6059,-2.6698,-2.7672,-2.8552,-2.833,-2.8014,-2.8016,-2.6594,-2.5048,-2.4308,-2.481,-2.595,-2.7446,-2.8285,-2.8663,-2.8454,-2.6265,-2.4001,-1.7529,-1.6207,-1.5644,-1.5278,-1.5176,-1.5451,-1.5644,-1.5808,-1.6296,-1.5971,-1.5099,-1.5429,-1.5489,-1.5259,-1.3237,0.0,0.0,0.0,-1.328,-1.4531,-1.4307,-1.4552,-1.5065,-1.5032,-1.5124,-1.5352,-1.5295,-1.4935,-1.4306,-1.4125,-1.3308,-1.1918,0.0,-1.0353,-1.0084,-1.0598,-1.0847,-1.0867,-1.2323,-1.3341,-1.3747,-1.4106,-1.4203,-1.4026,-1.3697,-1.338,-1.3239,-1.3748,-1.4051,-1.4113,-1.5307,-1.4965,0.0,0.0,0.0,0.0,0.0,0.0,0.0,0.0,0.0,0.0,0.0,-0.3261,-1.0831,0.0,0.0,0.0,-0.2555,-0.5216,-0.768,-0.6673,0.0,0.0,0.0,0.0,0.0,0.0,0.0,-2.0416,-2.1399,-2.277,-2.4541,-2.5225,-2.5446,-2.5158,-2.6328,-2.6576,-2.4818,0.0,-2.5993,-2.6078,-2.5034,-2.4209,-2.4284,-2.6909,-2.8517,-2.7079,-2.7156,-2.7948,-2.9145,-2.8907,-2.8258,-2.7531,-2.6376,-2.5293,-2.49,-2.648,-2.8084,-2.8864,-2.92,-2.9349,-2.9388,-2.7938,-2.6414,-1.841,-1.8006,-1.6504,-1.6178,-1.6692,-1.6585,-1.6874,-1.74,-1.7183,-1.7046,-1.6969,-1.6954,-1.7087,-1.7127,-1.4166,0.0,-1.368,-1.3499,-1.3897,-1.4783,-1.4633,-1.4607,-1.4758,-1.4946,-1.5153,-1.54,-1.5312,-1.5325,-1.5379,-1.4955,-1.4451,-1.3916,-1.2484,-1.1893,-1.2025,-1.1827,-1.2012,-1.2636,-1.3058,-1.3613,-1.4357,-1.4245,-1.4067,-1.3866,-1.3181,-1.2938,-1.309,-1.3151,-1.3454,-1.4184,-1.5726,-1.572,-1.383,0.0,0.0,0.0,0.0,0.0,0.0,0.0,0.0,0.0,0.0,0.0,0.0,0.0,0.0,0.0,-0.2871,0.0,-1.0945,-0.9843,0.0,0.0,0.0,-1.862,-1.8833,-2.6341,-2.9486,-2.4375,0.0,0.0,-2.4064,-2.5105,-2.6051,-2.5942,-2.5904,-2.5989,-2.6157,-2.7514,-2.8737,-2.8815,-2.6523,-2.4612,-2.4685,-2.7053,-2.8654,-2.7693,-2.7185,-2.7524,-2.8717,-2.8052,-2.6504,-2.5626,-2.5856,-2.6293,-2.5408,-2.7472,-2.9204,-2.9034,-2.9181,-2.9312,-2.9312,-2.8629,-2.766,-1.7302,-1.6872,-1.7029,-1.7385,-1.7746,-1.7862,-1.7847,-1.7722,-1.7847,-1.7424,-1.669,-1.7454,-1.7661,-1.7224,-1.5675,-1.512,-1.5414,-1.5112,-1.5165,-1.5459,-1.5137,-1.5071,-1.5052,-1.5061,-1.5216,-1.5604,-1.5573,-1.5628,-1.5745,-1.5775,-1.5257,-1.4415,-1.4236,-1.3604,-1.2565,-1.2614,-1.2793,-1.3036,-1.4037,-1.4719,-1.5045,-1.4843,-1.4598,-1.4336,-1.3595,-1.3181,-1.3178,-1.2853,-1.3295,-1.4649,-1.5287,-1.5782,-1.6181,-1.3729,0.0,0.0,0.0,0.0,0.0,0.0,0.0,0.0,0.0,-0.6748,-1.3429,0.0,-1.0436,0.0,-0.8745,-1.1911,-1.6897,-1.5947,0.0,0.0,-1.8047,-2.149,-2.1978,-2.5967,-2.8952,-2.966,-2.8533,-2.7151,-2.5673,-2.5835,-2.6093,-2.6063,-2.6537,-2.6693,-2.6331,-2.7765,-2.9017,-2.9144,-2.8412,-2.7438,-2.6392,-2.7677,-2.8746,-2.8009,-2.7714,-2.7627,-2.7509,-2.7195,-2.7062,-2.7427,-2.6881,-2.6772,-2.75,-2.7567,-2.7827,-2.8947,-2.9283,-2.9246,-2.9293,-2.8157,-2.7189,-1.7634,-1.7615,-1.8446,-1.8842,-1.8843,-1.8511,-1.8116,-1.7715,-1.7864,-1.7458,-1.6699,-1.7164,-1.7092,-1.6632,-1.6042,-1.5743,-1.5649,-1.5505,-1.5425,-1.5488,-1.5274,-1.5156,-1.5098,-1.5098,-1.5205,-1.5508,-1.5614,-1.583,-1.598,-1.6004,-1.571,-1.5152,-1.5013,-1.4716,-1.428,-1.3629,-1.336,-1.3538,-1.4563,-1.5146,-1.5261,-1.5479,-1.5376,-1.4859,-1.3906,-1.3336,-1.3178,-1.266,-1.2785,-1.3672,-1.4569,-1.5572,-1.6589,-1.3931,-1.0435,0.0,0.0,0.0,0.0,0.0,0.0,0.0,0.0,0.0,0.0,0.0,-1.4951,-1.2908,-1.3592,-1.6232,-2.1266,-2.0329,-1.8816,-1.7392,-2.1446,-2.4496,-2.5075,-2.6665,-2.8277,-2.9777,-2.9196,-2.8294,-2.7353,-2.726,-2.7121,-2.676,-2.7427,-2.7593,-2.6704,-2.7948,-2.924,-2.9365,-2.9262,-2.8872,-2.7791,-2.8456,-2.8832,-2.8135,-2.7972,-2.7477,-2.6042,-2.5783,-2.637,-2.7954,-2.777,-2.7452,-2.8216,-2.7893,-2.7783,-2.8439,-2.7827,-2.6969,-2.7022,-2.6911,-2.6742,-1.8519,-1.8999,-1.9818,-1.9951,-1.955,-1.8737,-1.8118,-1.7713,-1.7627,-1.73,-1.6841,-1.6446,-1.6136,-1.5862,-1.5917,-1.5653,-1.5275,-1.5209,-1.5249,-1.5196,-1.5156,-1.5088,-1.5029,-1.5156,-1.5215,-1.5332,-1.5566,-1.5904,-1.6151,-1.6081,-1.5988,-1.5997,-1.537,-1.544,-1.6045,-1.4559,-1.3984,-1.4299,-1.5018,-1.5337,-1.535,-1.6115,-1.6157,-1.5402,-1.4223,-1.3485,-1.3236,-1.2678,-1.24,-1.2538,-1.3714,-1.4906,-1.6006,-1.4347,-1.2205,0.0,-0.9468,0.0,0.0,0.0,0.0,0.0,0.0,0.0,0.0,-1.7041,-1.8426,-1.7746,-1.7694,-1.9646,-2.4326,-2.363,-2.2192,-2.0671,-2.4115,-2.6989,-2.7595,-2.7701,-2.7701,-2.7701,-2.8806,-2.9273,-2.8576,-2.8662,-2.8446,-2.7774,-2.8257,-2.832,-2.7236,-2.8267,-2.9365,-2.9388,-2.9388,-2.9228,-2.8934,-2.9012,-2.8854,-2.8113,-2.7782,-2.7069,-2.5152,-2.4634,-2.5315,-2.7579,-2.8246,-2.8291,-2.8237,-2.8165,-2.7785,-2.7055,-2.4907,-2.3666,-2.4669,-2.5557,-2.587,-1.8874,-1.9089,-1.9114,-1.896,-1.8596,-1.8725,-1.8634,-1.8383,-1.789,-1.7236,-1.6507,-1.6042,-1.5823,-1.5743,-1.583,-1.584,-1.5726,-1.5476,-1.5342,-1.5352,-1.4951,-1.4902,-1.5147,-1.5098,-1.5332,-1.574,-1.5866,-1.6144,-1.6637,-1.661,-1.6461,-1.6193,-1.6081,-1.5739,-1.528,0.0,0.0,0.0,-1.6298,-1.622,-1.6178,-1.6366,-1.6304,-1.5849,-1.4737,0.0,-1.3925,-1.3431,-1.3465,-1.404,-1.286,0.0,0.0,0.0,0.0,0.0,0.0,0.0,0.0,0.0,0.0,0.0,-1.9751,-1.7673,-1.7194,-1.9796,-2.1356,-2.0941,-2.0912,-2.2382,-2.5897,-2.6048,-2.527,-2.3904,-2.5441,-2.6971,-2.7595,-2.7701,-2.7701,-2.7701,-2.7935,-2.8141,-2.8281,-2.8502,-2.8558,-2.8377,-2.8603,-2.8682,-2.8507,-2.8913,-2.9344,-2.9386,-2.9388,-2.9304,-2.9021,-2.8929,-2.8672,-2.7967,-2.7258,-2.6786,-2.6331,-2.5134,-2.5311,-2.7821,-2.8291,-2.8264,-2.8327,-2.7374,-2.5386,-2.1712,-2.0589,-2.1279,-2.5113,-2.5212,-2.4777,-1.9239,-1.9477,-1.9524,-1.9158,0.0,-1.8718,-1.8508,-1.8014,-1.8039,-1.7455,-1.6422,-1.6227,-1.6038,-1.5768,-1.5846,-1.5856,-1.5798,-1.5536,-1.5362,-1.5313,-1.502,-1.497,-1.5205,-1.5156,-1.5391,-1.5856,-1.5914,-1.6192,-1.6761,-1.6761,-1.6677,-1.6436,-1.6488,-1.6333,-1.6109,-1.5921,-1.6138,-1.6676,-1.6458,-1.661,-1.7177,-1.7293,-1.7301,-1.7142,-1.6061,0.0,0.0,0.0,0.0,0.0,0.0,0.0,0.0,-1.7742,0.0,-1.9087,-1.8244,-1.835,-1.9783,-2.195,-2.3452,-2.3935,-2.2444,-2.1488,-2.1628,-2.3059,-2.3935,-2.3984,-2.3967,-2.4647,-2.6216,-2.6607,-2.6404,-2.571,-2.6234,-2.6841,-2.7164,-2.7504,-2.7701,-2.7701,-2.7701,-2.776,-2.7922,-2.8219,-2.8432,-2.8536,-2.8637,-2.8785,-2.897,-2.9085,-2.9215,-2.9365,-2.9388,-2.924,-2.8881,-2.881,-2.8742,-2.8384,-2.8017,-2.7868,-2.8001,-2.6591,-2.6106,-2.7867,-2.8237,-2.8209,-2.8094,-2.6412,-2.4046,-2.2018,-2.0988,-2.1552,-2.4595,-2.429,-2.3324,-1.9618,-1.999,-2.0065,-1.9661,-1.8907,-1.8757,-1.8208,-1.748,-1.7936,0.0,0.0,-1.6404,-1.6227,-1.585,-1.578,-1.5672,-1.5556,-1.543,-1.5254,-1.5147,-1.5029,-1.5029,-1.5215,-1.5156,-1.5449,-1.5914,-1.5914,-1.6192,-1.6705,-1.6751,-1.6727,-1.6699,-1.6709,-1.6882,-1.7126,-1.6825,-1.6619,-1.6619,-1.6303,-1.6716,-1.7904,-1.8284,-1.8488,-1.8393,-1.7403,-1.6697,-1.6309,-1.5569,-1.5053,-1.4902,-1.4998,-1.5407,-1.6225,-1.847,-1.9783,-1.9783,-2.0152,-2.1306,-2.343,-2.3595,-2.3979,-2.4886,-2.402,-2.4047,-2.5497,-2.5616,-2.5728,-2.6059,-2.6096,-2.6096,-2.6184,-2.6452,-2.6624,-2.6657,-2.6691,-2.6691,-2.6725,-2.7244,-2.7642,-2.7701,-2.7701,-2.773,-2.7818,-2.8035,-2.8282,-2.8424,-2.8562,-2.8718,-2.8905,-2.8947,-2.904,-2.9344,-2.9344,-2.9134,-2.8761,-2.8662,-2.8761,-2.8845,-2.8675,-2.8769,-2.8894,-2.7742,-2.71,-2.7987,-2.8031,-2.7861,-2.7897,-2.5943,-2.3912,-2.3786,-2.294,-2.247,-2.3466,-2.3246,-2.2535,-2.0149,-2.0395,-1.9972,-1.9489,-1.9027,-1.8617,-1.8161,-1.7637,-1.7254,-1.6845,-1.6403,-1.5942,-1.5689,-1.5594,-1.531,-1.5098,-1.5088,-1.5088,-1.5029,-1.5029,-1.4834,-1.4902,-1.5215,-1.5088,-1.5323,-1.5856,-1.5914,-1.6087,-1.6431,-1.6591,-1.6595,-1.6655,-1.6711,-1.6869,-1.7014,-1.7148,-1.7301,-1.7472,-1.6409,-1.649,-1.7798,-1.8946,-1.9183,-1.8405,-1.7738,-1.739,-1.7447,-1.7471,-1.7496,-1.7489,-1.8275,-1.9043,-1.9667,-2.1327,-2.2352,-2.2396,-2.2801,-2.3221,-2.3565,-2.3595,-2.3894,-2.4589,-2.4697,-2.4994,-2.5562,-2.5616,-2.56,-2.5675,-2.5728,-2.584,-2.6132,-2.6239,-2.6347,-2.6521,-2.6607,-2.6708,-2.6708,-2.7087,-2.7452,-2.7642,-2.7701,-2.7818,-2.8025,-2.8154,-2.8227,-2.8264,-2.8406,-2.8569,-2.8676,-2.8694,-2.8881,-2.924,-2.9197,-2.8929,-2.8554,-2.851,-2.8536,-2.8637,-2.8087,-2.7978,-2.8621,-2.7531,-2.6856,-2.7861,-2.7049,-2.6817,-2.7665,-2.6494,-2.4777,-2.3941,-2.3014,-2.2643,-2.3063,-2.2898,-2.2862,-2.014,-2.0215,-1.9552,-1.9093,-1.8691,-1.808,-1.775,-1.755,-1.7321,-1.7014,-1.6598,-1.6343,-1.6145,-1.5908,-1.5491,-1.5434,-1.5652,-1.5294,-1.5303,-1.5448,-1.5325,-1.5275,-1.526,-1.5191,-1.5317,-1.5517,-1.5614,-1.5908,-1.6402,-1.6362,-1.6477,-1.6811,-1.666,-1.6637,-1.6853,-1.6976,-1.7267,-1.7689,-1.7272,-1.7485,-1.8418,-1.9202,-1.9432,-1.907,-1.8446,-1.8124,-1.8194,-1.8092,-1.8157,-1.8384,-1.9078,-1.9789,-2.04,-2.1749,-2.2509,-2.2509,-2.2963,-2.3363,-2.361,-2.3824,-2.4135,-2.441,-2.4806,-2.5045,-2.5256,-2.5448,-2.5616,-2.5616,-2.5803,-2.5987,-2.6168,-2.6203,-2.6258,-2.6383,-2.64,-2.6521,-2.6775,-2.699,-2.7201,-2.7434,-2.763,-2.776,-2.7922,-2.8081,-2.8182,-2.8209,-2.8273,-2.838,-2.8342,-2.7641,-2.7242,-2.7728,-2.837,-2.8463,-2.7931,-2.8236,-2.8456,-2.8536,-2.8247,-2.8106,-2.8378,-2.7687,-2.6997,-2.5915,-2.5604,-2.5729,-2.5908,-2.5386,-2.4639,-2.3999,-2.3485,-2.3258,-2.3355,-2.3411,-2.3557,-2.0085,-2.0042,-1.9415,-1.8923,-1.8472,-1.784,-1.7514,-1.7529,-1.7461,-1.7281,-1.693,-1.6817,-1.66,-1.6353,-1.5908,-1.5908,-1.609,-1.5701,-1.5594,-1.5863,-1.5753,-1.5587,-1.5383,-1.5417,-1.5435,-1.5403,-1.5594,-1.6009,-1.6457,-1.6416,-1.6483,-1.6806,-1.6499,-1.6446,-1.6705,-1.6761,-1.7043,-1.7601,-1.7822,-1.8259,-1.8946,-1.9263,-1.9473,-1.9488,-1.9054,-1.8794,-1.8769,-1.8573,-1.8627,-1.8939,-1.946,-1.9947,-2.0464,-2.1573,-2.217,-2.2231,-2.2661,-2.3098,-2.3566,-2.3967,-2.4234,-2.4219,-2.4645,-2.4926,-2.5021,-2.5371,-2.5654,-2.5766,-2.6023,-2.6184,-2.6132,-2.6168,-2.6203,-2.6225,-2.6222,-2.6399,-2.6775,-2.6975,-2.7122,-2.7282,-2.7526,-2.7689,-2.7818,-2.8081,-2.8147,-2.7987,-2.8084,-2.8138,-2.7665,-2.6326,-2.5566,-2.5945,-2.7113,-2.7725,-2.6977,-2.7405,-2.7922,-2.8088,-2.8167,-2.8144,-2.8201,-2.8327,-2.7122,-2.4771,-2.4592,-2.4801,-2.3879,-2.4073,-2.4275,-2.3883,-2.3744,-2.3821,-2.3883,-2.3923,-2.3978,-2.0107,-2.0085,-2.0042,-1.9617,-1.8926,-1.822,-1.7774,-1.7539,-1.747,-1.7382,-1.7133,-1.6796,-1.6703,-1.6741,-1.6343,-1.6128,-1.6066,-1.6,-1.5872,-1.5781,-1.5689,-1.567,-1.5698,-1.5762,-1.5935,-1.6005,-1.6321,-1.6539,-1.6699,-1.6964,-1.6868,-1.6417,-1.6457,-1.6404,-1.6415,-1.6648,-1.6976,-1.7334,-1.7334,-1.7822,-1.8798,-1.9223,-1.942,-1.942,-1.9371,-1.9347,-1.9258,-1.9544,-1.9635,-1.975,-2.0154,-2.0555,-2.0726,-2.1657,-2.2184,-2.2217,-2.2646,-2.3112,-2.3551,-2.3812,-2.397,-2.4024,-2.44,-2.4751,-2.4982,-2.5333,-2.5728,-2.5987,-2.6132,-2.6059,-2.5987,-2.6096,-2.6132,-2.6063,-2.6115,-2.6329,-2.6674,-2.704,-2.7299,-2.7299,-2.7452,-2.7677,-2.8071,-2.8156,-2.7958,-2.7215,-2.7584,-2.7576,-2.6534,-2.4908,-2.3827,-2.4055,-2.5177,-2.6165,-2.6171,-2.6189,-2.6225,-2.6675,-2.7112,-2.7384,-2.7859,-2.8074,-2.7381,-2.4568,-2.3898,-2.3959,-2.3777,-2.3728,-2.3898,-2.3886,-2.3855,-2.3915,-2.3971,-2.3994,-2.3996,-2.1494,-2.0981,-2.0417,-1.966,-1.8724,-1.8478,-1.8025,-1.7558,-1.7875,-1.7777,-1.7451,-1.7407,-1.7398,-1.7312,-1.6835,-1.6778,-1.6921,-1.644,-1.6392,-1.6663,-1.6395,-1.6209,-1.6187,-1.6038,-1.5984,-1.5845,-1.6058,-1.644,-1.6968,-1.7358,-1.7148,-1.6556,-1.6394,-1.6277,-1.6394,-1.643,-1.6524,-1.6874,-1.7155,-1.7545,-1.803,-1.8774,-1.921,-1.9275,-1.921,-1.9146,-1.921,-1.9408,-1.9604,-1.9708,-2.0067,-2.0283,-2.0385,-2.0983,-2.1554,-2.2123,-2.2661,-2.3098,-2.3551,-2.364,-2.3683,-2.3739,-2.4051,-2.4441,-2.4926,-2.4886,-2.4989,-2.5394,-2.5508,-2.5524,-2.5712,-2.5803,-2.5897,-2.599,-2.6115,-2.6329,-2.6657,-2.6219,-2.623,-2.7106,-2.7496,-2.773,-2.7984,-2.752,-2.6727,-2.605,-2.6394,-2.6534,-2.5937,-2.3849,-2.2296,-2.2307,-2.3473,-2.4759,-2.517,-2.3203,-2.3095,-2.4325,-2.5044,-2.5512,-2.7042,-2.7229,-2.6296,-2.4075,-2.3907,-2.3834,-2.3743,-2.3728,-2.3795,-2.3816,-2.3837,-2.3915,-2.399,-2.3994,-2.3937,-2.2619,-2.186,-2.0823,-1.9827,-1.901,-1.8823,-1.8302,-1.7767,-1.8113,-1.7999,-1.7577,-1.7929,-1.8046,-1.7909,-1.7581,-1.7677,-1.7916,-1.7273,-1.7232,-1.7582,-1.7229,-1.6948,-1.6788,-1.6646,-1.6422,-1.62,-1.6247,-1.6665,-1.7394,-1.77,-1.7485,-1.6844,-1.651,-1.6412,-1.6497,-1.6274,-1.6294,-1.6581,-1.6987,-1.7267,-1.7579,-1.8182,-1.8679,-1.9011,-1.8999,-1.8987,-1.8987,-1.9275,-1.9473,-1.9565,-1.9823,-1.9978,-2.0067,-2.0385,-2.1019,-2.2091,-2.2523,-2.2904,-2.3377,-2.3407,-2.3407,-2.3436,-2.3696,-2.4094,-2.4451,-2.4426,-2.4467,-2.4766,-2.4926,-2.5162,-2.554,-2.5616,-2.5712,-2.5954,-2.6115,-2.6279,-2.6353,-2.5548,-2.5471,-2.6485,-2.6742,-2.6989,-2.6827,-2.6007,-2.5117,-2.4718,-2.4998,-2.5386,-2.5039,-2.298,-2.1054,-2.0644,-2.1839,-2.3062,-2.3705,-2.1547,-2.0451,-2.1494,-2.279,-2.4293,-2.5687,-2.5597,-2.5679,-2.4245,-2.4078,-2.3935,-2.3873,-2.3855,-2.3816,-2.3816,-2.3837,-2.3896,-2.3912,-2.3955,-2.3937,-2.2968,-2.2624,-2.1123,-2.0358,-2.0216,-1.9393,-1.8653,-1.801,-1.8157,-1.7938,-1.7653,-1.8098,-1.8421,-1.8562,-1.8664,-1.8818,-1.8879,-1.8531,-1.8302,-1.8064,-1.7935,-1.7688,-1.7189,-1.7505,-1.746,-1.7134,-1.7333,-1.7675,-1.7967,-1.8038,-1.776,-1.711,-1.6985,-1.6865,-1.6526,-1.6347,-1.6355,-1.6509,-1.6705,-1.7032,-1.7412,-1.7434,-1.781,-1.856,-1.8893,-1.8999,-1.904,-1.9251,-1.942,-1.942,-1.9656,-1.9811,-1.985,-2.0118,-2.0871,-2.203,-2.2231,-2.2463,-2.2873,-2.3053,-2.3098,-2.3008,-2.3363,-2.3653,-2.3739,-2.4036,-2.4261,-2.4343,-2.4766,-2.5178,-2.554,-2.5616,-2.5728,-2.5954,-2.6115,-2.6115,-2.5827,-2.524,-2.5028,-2.5293,-2.5488,-2.5235,-2.4221,-2.3746,-2.3799,-2.3701,-2.3768,-2.3696,-2.3315,-2.201,-2.0555,-1.9734,-2.0216,-2.1233,-2.1164,-2.0055,-1.9163,-2.0167,-2.2111,-2.3318,-2.3574,-2.3851,-2.4151,-2.4393,-2.4034,-2.3876,-2.3955,-2.3955,-2.3876,-2.3837,-2.3837,-2.3876,-2.3855,-2.3917,-2.3917,-2.2668,-2.2071,-2.124,-2.0565,-1.997,-1.957,-1.8941,-1.8124,-1.8514,-1.8318,-1.7863,-1.8302,-1.8802,-1.9242,-1.9168,-1.9027,-1.8711,-1.8461,-1.8175,-1.8035,-1.7662,-1.7582,-1.7761,-1.7706,-1.7715,-1.7779,-1.7886,-1.7889,-1.7703,-1.797,-1.7772,-1.7232,-1.6873,-1.6588,-1.6292,-1.6079,-1.5979,-1.5876,-1.6296,-1.6648,-1.6751,-1.7099,-1.7601,-1.8127,-1.856,-1.8786,-1.8851,-1.9117,-1.9275,-1.9275,-1.9512,-1.9708,-1.985,-2.056,-2.1326,-2.2044,-2.2044,-2.2091,-2.2417,-2.2646,-2.2828,-2.2888,-2.3068,-2.3187,-2.3231,-2.3566,-2.3952,-2.4302,-2.4726,-2.5201,-2.5621,-2.5675,-2.5691,-2.5897,-2.6277,-2.6403,-2.5932,-2.4739,-2.4247,-2.5685,-2.5267,-2.3975,-2.3708,-2.3435,-2.3193,-2.2741,-2.2325,-2.1777,-2.0793,-1.9967,-1.952,-1.9037,-1.9234,-1.9627,-1.9645,-1.9324,-1.9056,-2.0061,-2.1339,-2.1954,-2.2353,-2.2587,-2.2883,-2.3759,-2.365,-2.3599,-2.3606,-2.3821,-2.3762,-2.3816,-2.3837,-2.3834,-2.3816,-2.3876,-2.3858,-2.2371,-2.1882,-2.1437,-2.0805,-2.0172,-1.9713,-1.9003,-1.8269,-1.8578,-1.8328,-1.7884,-1.8269,-1.8796,-1.9136,-1.9238,-1.8933,-1.8589,-1.841,-1.8343,-1.819,-1.7885,-1.7831,-1.8085,-1.8106,-1.8115,-1.8215,-1.8249,-1.8024,-1.7578,-1.7685,-1.7524,-1.6978,-1.6665,-1.6411,-1.613,-1.5855,-1.5581,-1.5488,-1.573,-1.5961,-1.6239,-1.6761,-1.7211,-1.7634,-1.8018,-1.8464,-1.8798,-1.9011,-1.917,-1.9223,-1.9473,-1.9656,-1.985,-2.0673,-2.1423,-2.1827,-2.1434,-2.1387,-2.1899,-2.214,-2.2446,-2.2873,-2.2888,-2.2933,-2.3098,-2.3436,-2.3739,-2.4078,-2.4508,-2.5045,-2.5621,-2.5787,-2.584,-2.5987,-2.64,-2.6455,-2.5865,-2.3989,-2.3857,-2.4947,-2.4375,-2.3507,-2.336,-2.3289,-2.2894,-2.2215,-2.1856,-2.1206,-1.9929,-1.9575,-1.9307,-1.895,-1.886,-1.8986,-1.9093,-1.8986,-1.9505,-2.0511,-2.1377,-2.1614,-2.1812,-2.1904,-2.2195,-2.3017,-2.3291,-2.3216,-2.3324,-2.3596,-2.3723,-2.3795,-2.3813,-2.381,-2.3813,-2.3795,-2.3687,-2.2025,-2.2134,-2.1492,-2.1028,-2.0572,-1.9688,-1.8939,-1.8359,-1.8165,-1.7908,-1.7615,-1.8076,-1.8335,-1.8515,-1.8716,-1.8709,-1.8417,-1.855,-1.8647,-1.8576,-1.8523,-1.8338,-1.8202,-1.8469,-1.853,-1.8374,-1.8567,-1.8257,-1.749,-1.7336,-1.704,-1.6695,-1.6524,-1.622,-1.5817,-1.5551,-1.5383,-1.5141,-1.5029,-1.5313,-1.6009,-1.6306,-1.6648,-1.7011,-1.7357,-1.792,-1.8691,-1.8893,-1.9052,-1.9223,-1.942,-1.9656,-1.985,-2.0435,-2.0947,-2.1199,-2.0392,-2.0351,-2.1124,-2.1401,-2.1983,-2.2712,-2.2888,-2.3142,-2.3508,-2.361,-2.3638,-2.3824,-2.412,-2.4639,-2.5357,-2.5848,-2.6132,-2.6154,-2.6218,-2.5675,-2.4696,-2.3522,-2.2799,-2.3172,-2.3122,-2.3119,-2.3119,-2.3119,-2.2845,-2.2482,-2.2617,-2.2574,-2.1292,-2.1021,-2.0494,-1.9632,-1.9076,-1.8861,-1.8914,-1.9039,-1.9992,-2.0909,-2.174,-2.2283,-2.2556,-2.2682,-2.2738,-2.3324,-2.303,-2.2976,-2.3211,-2.3464,-2.3681,-2.3771,-2.3789,-2.3786,-2.3789,-2.3717,-2.3373,-2.1731,-2.1492,-2.1185,-2.0621,-1.9994,-1.923,-1.8498,-1.7825,-1.7685,-1.7516,-1.7432,-1.7705,-1.7918,-1.7906,-1.8069,-1.7951,-1.7716,-1.7878,-1.8031,-1.8129,-1.7968,-1.798,-1.8223,-1.8301,-1.8301,-1.8373,-1.8301,-1.7942,-1.7476,-1.703,-1.6561,-1.6216,-1.5971,-1.5583,-1.5085,-1.4997,-1.4845,-1.4469,-1.4784,-1.5128,-1.5362,-1.6019,-1.6477,-1.674,-1.7134,-1.7601,-1.803,-1.8667,-1.8987,-1.9052,-1.921,-1.9473,-1.9862,-2.0385,-2.0898,-2.1191,-2.0338,-1.9361,-1.923,-2.0534,-2.178,-2.2684,-2.3068,-2.3494,-2.3952,-2.3782,-2.3767,-2.4009,-2.4204,-2.4293,-2.4169,-2.5321,-2.5931,-2.599,-2.4612,-2.3697,-2.3357,-2.2877,-2.279,-2.2893,-2.3003,-2.3077,-2.3077,-2.3028,-2.2828,-2.2744,-2.2986,-2.2823,-2.2517,-2.1945,-2.2078,-2.1985,-2.0655,-1.9183,-1.9273,-1.947,-2.0029,-2.1164,-2.2116,-2.2749,-2.3076,-2.3262,-2.3355,-2.3048,-2.2772,-2.2736,-2.3007,-2.3346,-2.3617,-2.3707,-2.3682,-2.3703,-2.3725,-2.3563,-2.331,-2.1262,-2.1021,-2.0621,-2.0099,-1.9364,-1.8648,-1.8008,-1.7487,-1.7331,-1.7214,-1.7167,-1.7352,-1.7473,-1.7504,-1.7538,-1.7546,-1.7392,-1.7392,-1.7473,-1.7635,-1.7554,-1.7708,-1.8112,-1.8031,-1.7959,-1.7951,-1.7878,-1.7595,-1.7136,-1.6754,-1.6329,-1.593,-1.5671,-1.5329,-1.4764,-1.4626,-1.4452,-1.4232,-1.4561,-1.4775,-1.4951,-1.5604,-1.6124,-1.6296,-1.6705,-1.7099,-1.7379,-1.8127,-1.8667,-1.8827,-1.8999,-1.9316,-1.9747,-2.0169,-2.0536,-2.0483,-1.9704,-1.8655,-1.8208,-1.9836,-2.1536,-2.2626,-2.3068,-2.3392,-2.3867,-2.3824,-2.4051,-2.4219,-2.4467,-2.4186,-2.3635,-2.3712,-2.4574,-2.5151,-2.3416,-2.231,-2.2405,-2.2596,-2.2712,-2.2816,-2.2876,-2.297,-2.2995,-2.2558,-2.2613,-2.2838,-2.307,-2.3119,-2.3021,-2.2682,-2.3056,-2.3173,-2.2252,-2.0979,-1.9993,-1.9975,-2.0172,-2.1313,-2.2548,-2.3034,-2.343,-2.3469,-2.3548,-2.2569,-2.208,-2.1972,-2.2206,-2.3109,-2.3589,-2.3571,-2.3549,-2.3549,-2.3549,-2.3634,-2.3311,-2.0722,-2.073,-1.9965,-1.9345,-1.8833,-1.7935,-1.7449,-1.7327,-1.7037,-1.6842,-1.6839,-1.7008,-1.7025,-1.7131,-1.7221,-1.731,-1.7318,-1.7229,-1.7057,-1.7049,-1.7057,-1.7302,-1.7627,-1.7789,-1.7716,-1.7392,-1.7392,-1.721,-1.6771,-1.6594,-1.6175,-1.5732,-1.5667,-1.5378,-1.4855,-1.453,-1.4382,-1.4247,-1.4292,-1.4483,-1.4675,-1.5177,-1.5536,-1.573,-1.6134,-1.6534,-1.692,-1.7579,-1.8127,-1.856,-1.8839,-1.9198,-1.9631,-1.9723,-1.9485,-1.9458,-1.8442,-1.8084,-1.8208,-1.9461,-2.1167,-2.2669,-2.2933,-2.3039,-2.3327,-2.3758,-2.4039,-2.402,-2.4265,-2.4159,-2.3167,-2.2427,-2.2491,-2.3438,-2.2762,-2.2271,-2.2605,-2.2676,-2.2659,-2.2712,-2.2712,-2.2634,-2.2633,-2.1875,-2.2073,-2.2541,-2.2853,-2.2807,-2.3084,-2.3041,-2.3259,-2.3122,-2.2803,-2.2228,-2.1084,-2.1257,-2.1387,-2.1574,-2.2676,-2.3133,-2.3518,-2.3562,-2.3544,-2.2554,-2.1849,-2.1616,-2.1867,-2.2923,-2.3383,-2.3295,-2.3295,-2.3313,-2.336,-2.343,-2.3053,-2.0255,-2.0362,-1.9266,-1.8705,-1.8393,-1.7446,-1.6865,-1.6564,-1.6738,-1.6653,-1.6516,-1.6652,-1.673,-1.6648,-1.6812,-1.673,-1.6574,-1.65,-1.6327,-1.6064,-1.6147,-1.6484,-1.6894,-1.7221,-1.7221,-1.6902,-1.7057,-1.6919,-1.649,-1.6325,-1.6046,-1.5707,-1.5418,-1.5049,-1.462,-1.4585,-1.4396,-1.4124,-1.4444,-1.4441,-1.4336,-1.5001,-1.5362,-1.5391,-1.5846,-1.6296,-1.6684,-1.7412,-1.8127,-1.8602,-1.8655,-1.8827,-1.8995,-1.8102,-1.7543,-1.7471,-1.7523,-1.7543,-1.8085,-1.9321,-2.098,-2.261,-2.2888,-2.2615,-2.199,-2.3071,-2.3416,-2.3111,-2.2667,-2.231,-2.2037,-2.1647,-2.1882,-2.2513,-2.2485,-2.2443,-2.2525,-2.246,-2.2515,-2.2738,-2.2561,-2.2065,-2.1485,-2.1281,-2.1461,-2.1993,-2.2076,-2.2258,-2.2838,-2.2968,-2.2994,-2.3164,-2.2988,-2.2696,-2.2436,-2.2625,-2.261,-2.2257,-2.27,-2.31,-2.3371,-2.3481,-2.3382,-2.2962,-2.2569,-2.2299,-2.2551,-2.32,-2.3151,-2.3095,-2.3119,-2.3193,-2.3151,-2.3164,-2.2599,-1.9681,-1.9608,-1.8815,-1.8222,-1.7823,-1.7214,-1.6759,-1.6542,-1.6583,-1.654,-1.6356,-1.6716,-1.673,-1.6476,-1.673,-1.6566,-1.617,-1.6095,-1.5831,-1.5492,-1.5318,-1.5741,-1.6327,-1.6648,-1.6648,-1.6492,-1.6484,-1.6476,-1.6324,-1.6059,-1.5787,-1.5666,-1.5265,-1.4895,-1.4528,-1.4596,-1.4488,-1.4151,-1.4432,-1.4462,-1.4105,-1.4775,-1.5137,-1.5264,-1.572,-1.6285,-1.6899,-1.7269,-1.7622,-1.7903,-1.7996,-1.7903,-1.7567,-1.68,-1.6231,-1.6207,-1.682,-1.7323,-1.7825,-1.9152,-2.0834,-2.2255,-2.2752,-2.2075,-2.1133,-2.1525,-2.1901,-2.2928,-2.1706,-2.1214,-2.1388,-2.145,-2.168,-2.2057,-2.2377,-2.2542,-2.2569,-2.2525,-2.2579,-2.2548,-2.2082,-2.1327,-2.0494,-2.0494,-2.0975,-2.1452,-2.122,-2.189,-2.2691,-2.2645,-2.2757,-2.3003,-2.3151,-2.2917,-2.2713,-2.2819,-2.2934,-2.27,-2.2723,-2.3116,-2.3247,-2.3383,-2.3253,-2.3129,-2.306,-2.3028,-2.3102,-2.3126,-2.3045,-2.302,-2.3045,-2.302,-2.2995,-2.296,-2.2369,-1.9058,-1.8861,-1.8452,-1.787,-1.7371,-1.7021,-1.6815,-1.6776,-1.6763,-1.6605,-1.6577,-1.6878,-1.6804,-1.6484,-1.673,-1.6574,-1.6004,-1.5839,-1.5423,-1.5082,-1.4824,-1.5075,-1.5831,-1.6079,-1.6154,-1.5997,-1.5741,-1.5936,-1.6083,-1.5683,-1.552,-1.5541,-1.5209,-1.4917,-1.4752,-1.4837,-1.4629,-1.4388,-1.4632,-1.4551,-1.4317,-1.4731,-1.5029,-1.5147,-1.5778,-1.6513,-1.7014,-1.7059,-1.6916,-1.6991,-1.7008,-1.6667,-1.6013,-1.5772,-1.5836,-1.6001,-1.6693,-1.7253,-1.7481,-1.8913,-2.0615,-2.1907,-2.2457,-2.1785,-2.0156,-1.9938,-2.0744,-2.2445,-2.134,-2.0915,-2.1309,-2.1573,-2.1694,-2.1886,-2.2152,-2.2405,-2.2552,-2.2659,-2.2712,-2.2608,-2.1482,-2.0597,-2.0009,-1.9849,-2.003,-2.115,-2.1022,-2.1598,-2.2148,-2.2154,-2.2481,-2.2982,-2.3102,-2.3175,-2.2994,-2.2878,-2.2944,-2.2905,-2.2887,-2.3077,-2.3175,-2.3223,-2.3102,-2.3003,-2.2902,-2.2927,-2.3028,-2.302,-2.2944,-2.2893,-2.2868,-2.2816,-2.279,-2.2816,-2.2451,-1.8977,-1.9039,-1.7961,-1.7704,-1.7848,-1.7225,-1.6858,-1.6766,-1.7251,-1.7041,-1.6796,-1.6968,-1.6894,-1.6566,-1.6409,-1.5997,-1.5484,-1.5068,-1.4573,-1.4334,-1.4257,-1.4496,-1.4999,-1.5249,-1.5409,-1.5492,-1.565,-1.5681,-1.5721,-1.5656,-1.5584,-1.5356,-1.5338,-1.5284,-1.5095,-1.5263,-1.5341,-1.5036,-1.512,-1.4934,-1.4595,-1.4782,-1.5008,-1.5098,-1.5836,-1.6513,-1.6914,-1.6927,-1.6707,-1.6525,-1.6478,-1.6157,-1.5544,-1.5614,-1.5792,-1.6001,-1.665,-1.7212,-1.7439,-1.8412,-1.9987,-2.1591,-2.1377,-2.0316,-1.902,-1.9101,-1.9634,-2.0483,-2.035,-2.0695,-2.1386,-2.1708,-2.1768,-2.1844,-2.2049,-2.2192,-2.213,-2.2443,-2.2659,-2.2401,-2.1315,-1.9987,-1.8869,-1.9223,-1.9698,-2.0604,-2.1092,-2.1464,-2.1674,-2.185,-2.2268,-2.29,-2.3052,-2.3091,-2.2757,-2.2429,-2.203,-2.25,-2.2765,-2.3397,-2.348,-2.3102,-2.3003,-2.2876,-2.2764,-2.2816,-2.2944,-2.2868,-2.279,-2.2764,-2.2738,-2.2738,-2.2738,-2.2712,-2.2738,-1.9003,-1.8985,-1.8275,-1.7887,-1.7804,-1.7368,-1.7041,-1.6812,-1.7049,-1.6968,-1.664,-1.6812,-1.6738,-1.6409,-1.6079,-1.5658,-1.5151,-1.4573,-1.4159,-1.399,-1.3906,-1.399,-1.4153,-1.4405,-1.4657,-1.4985,-1.5151,-1.5308,-1.5388,-1.5313,-1.5227,-1.5346,-1.5161,-1.5114,-1.5237,-1.5497,-1.5426,-1.5257,-1.537,-1.5225,-1.4917,-1.4937,-1.5181,-1.5361,-1.5894,-1.64,-1.6877,-1.6776,-1.6453,-1.6092,-1.5834,-1.5538,-1.5211,-1.548,-1.5792,-1.5957,-1.6693,-1.717,-1.7439,-1.7887,-1.8861,-2.0385,-2.0344,-1.9726,-1.8962,-1.8889,-1.9398,-1.9833,-2.0216,-2.0595,-2.1119,-2.1661,-2.1738,-2.1738,-2.1903,-2.2049,-2.2077,-2.2349,-2.2596,-2.2211,-2.0711,-1.9383,-1.8637,-1.878,-1.913,-1.9894,-2.0599,-2.1057,-2.2272,-2.2404,-2.2364,-2.2746,-2.2968,-2.2912,-2.2513,-2.1877,-2.0924,-2.1516,-2.2327,-2.3371,-2.4252,-2.3598,-2.2927,-2.2816,-2.2685,-2.2712,-2.279,-2.2712,-2.2712,-2.2712,-2.2738,-2.2721,-2.2747,-2.2721,-2.2825,-1.9213,-1.8961,-1.8811,-1.8287,-1.7648,-1.7554,-1.7282,-1.6836,-1.6812,-1.6812,-1.6566,-1.6648,-1.6574,-1.617,-1.5824,-1.5409,-1.4824,-1.4328,-1.3913,-1.3652,-1.3737,-1.3815,-1.3899,-1.3984,-1.4153,-1.465,-1.4817,-1.4964,-1.5005,-1.481,-1.4965,-1.525,-1.5017,-1.5039,-1.5284,-1.5334,-1.5504,-1.5429,-1.5466,-1.5429,-1.5159,-1.5149,-1.5289,-1.5508,-1.5836,-1.6171,-1.6455,-1.6417,-1.6134,-1.572,-1.5148,-1.4866,-1.4994,-1.5402,-1.5792,-1.5836,-1.6693,-1.7157,-1.724,-1.7446,-1.7896,-1.8442,-1.9402,-1.9557,-1.8849,-1.8889,-1.9325,-1.9797,-2.015,-2.0373,-2.0561,-2.1103,-2.1526,-2.1634,-2.1724,-2.1932,-2.2152,-2.2209,-2.2349,-2.2243,-2.0769,-1.9224,-1.8551,-1.84,-1.8767,-1.9186,-1.9888,-2.0657,-2.1794,-2.2349,-2.1962,-2.2479,-2.2764,-2.2902,-2.2581,-2.2382,-2.1285,-2.1423,-2.2254,-2.3206,-2.4604,-2.4854,-2.4202,-2.2911,-2.2659,-2.2659,-2.2712,-2.2712,-2.2712,-2.2712,-2.2712,-2.2738,-2.2747,-2.2773,-2.2876,-1.9792,-1.9259,-1.8746,-1.8476,-1.8267,-1.779,-1.7406,-1.709,-1.7139,-1.7229,-1.6984,-1.6812,-1.65,-1.6162,-1.565,-1.4901,-1.4243,-1.3906,-1.3737,-1.3568,-1.3652,-1.3815,-1.4062,-1.3815,-1.4068,-1.4566,-1.4713,-1.4782,-1.4978,-1.5142,-1.5054,-1.5082,-1.5031,-1.5204,-1.5342,-1.5384,-1.5531,-1.5809,-1.5671,-1.5569,-1.562,-1.534,-1.5186,-1.5303,-1.5604,-1.5864,-1.5956,-1.5816,-1.5612,-1.5421,-1.5052,-1.4935,-1.5074,-1.5525,-1.5864,-1.6244,-1.6769,-1.7212,-1.724,-1.724,-1.7693,-1.8309,-1.8826,-1.8911,-1.8666,-1.8851,-1.9228,-1.9435,-1.9904,-2.0304,-2.0494,-2.0844,-2.1183,-2.145,-2.1694,-2.1797,-2.1873,-2.1932,-2.1991,-2.2051,-2.0679,-1.9463,-1.8996,-1.8658,-1.8927,-1.8996,-1.9058,-1.9614,-2.0357,-2.0626,-2.0399,-2.1361,-2.2579,-2.2685,-2.2669,-2.2634,-2.2246,-2.222,-2.2729,-2.297,-2.4344,-2.5863,-2.5562,-2.311,-2.2319,-2.2579,-2.2605,-2.2685,-2.2712,-2.2712,-2.2712,-2.2738,-2.279,-2.2799,-2.2868,-1.9909,-1.965,-1.9376,-1.8899,-1.8481,-1.8042,-1.7552,-1.7098,-1.6976,-1.6812,-1.6656,-1.6417,-1.5997,-1.5658,-1.5401,-1.4657,-1.4075,-1.3906,-1.3737,-1.3652,-1.3652,-1.3906,-1.4237,-1.3906,-1.4146,-1.4566,-1.4706,-1.4657,-1.4736,-1.5157,-1.5067,-1.4872,-1.5062,-1.5275,-1.5409,-1.5424,-1.567,-1.5992,-1.5969,-1.5927,-1.6129,-1.545,-1.4898,-1.4968,-1.5216,-1.5428,-1.5369,-1.568,-1.5416,-1.5126,-1.5208,-1.521,-1.5292,-1.569,-1.632,-1.7145,-1.7283,-1.7199,-1.7199,-1.7199,-1.7393,-1.7774,-1.8189,-1.8478,-1.8595,-1.8851,-1.9078,-1.9213,-1.9325,-1.9833,-2.0185,-2.0561,-2.0893,-2.1151,-2.1355,-2.1479,-2.154,-2.1556,-2.1678,-2.1873,-2.1312,-2.0415,-1.9532,-1.9335,-1.9328,-1.9028,-1.8575,-1.8807,-1.9311,-1.9849,-2.015,-2.0925,-2.2304,-2.2552,-2.2605,-2.2579,-2.2535,-2.2672,-2.2956,-2.3241,-2.3869,-2.5308,-2.4013,-2.1569,-2.1562,-2.2136,-2.2552,-2.2605,-2.2659,-2.2712,-2.2712,-2.2738,-2.2816,-2.2868,-2.2919,-1.9828,-1.9837,-1.967,-1.9254,-1.8523,-1.8054,-1.7572,-1.6974,-1.6566,-1.6327,-1.6245,-1.6004,-1.5582,-1.5075,-1.4831,-1.4503,-1.4088,-1.3997,-1.3913,-1.3822,-1.3822,-1.3913,-1.4075,-1.4075,-1.423,-1.4727,-1.4691,-1.4607,-1.456,-1.4995,-1.4976,-1.4824,-1.4991,-1.5284,-1.5409,-1.5275,-1.5711,-1.6018,-1.6008,-1.6094,-1.6012,-1.5097,-1.4387,-1.4451,-1.4866,-1.4936,-1.4863,-1.4992,-1.4997,-1.4828,-1.4999,-1.5333,-1.5257,-1.5926,-1.7219,-1.8467,-1.7735,-1.7248,-1.7199,-1.717,-1.7199,-1.7365,-1.7855,-1.8189,-1.8595,-1.8851,-1.9116,-1.9116,-1.9139,-1.9325,-1.9762,-2.0289,-2.0595,-2.0794,-2.0958,-2.1119,-2.1214,-2.1294,-2.1371,-2.1556,-2.1735,-2.1349,-2.0391,-1.99,-1.9883,-1.9554,-1.9106,-1.8882,-1.9496,-2.0761,-2.1213,-2.1396,-2.2003,-2.2388,-2.247,-2.2388,-2.2343,-2.2349,-2.2762,-2.3159,-2.3773,-2.4619,-2.2524,-2.0565,-2.0827,-2.1407,-2.1983,-2.2535,-2.2579,-2.2632,-2.2685,-2.2738,-2.279,-2.2816,-2.2842,-1.9745,-1.9563,-1.906,-1.8676,-1.8354,-1.7461,-1.7028,-1.677,-1.6327,-1.617,-1.617,-1.5922,-1.5423,-1.4831,-1.4334,-1.4173,-1.4088,-1.3913,-1.3913,-1.3997,-1.3997,-1.4159,-1.4489,-1.4398,-1.4489,-1.488,-1.475,-1.4568,-1.4509,-1.4972,-1.5008,-1.4704,-1.4784,-1.5078,-1.5346,-1.5093,-1.5263,-1.5809,-1.5408,-1.5068,-1.4843,-1.4127,-1.4003,-1.4177,-1.4271,-1.4241,-1.4334,-1.4389,-1.4225,-1.4399,-1.4462,-1.4675,-1.5195,-1.7337,-1.843,-1.8491,-1.7684,-1.6778,-1.7031,-1.7086,-1.7128,-1.7157,-1.7406,-1.7774,-1.8411,-1.8889,-1.9116,-1.9116,-1.9116,-1.9139,-1.9362,-1.9777,-2.015,-2.0392,-2.0527,-2.0695,-2.0794,-2.1023,-2.1119,-2.1356,-2.157,-2.1587,-2.1138,-2.0739,-2.0377,-1.9989,-1.9679,-1.9527,-1.9714,-2.0994,-2.1675,-2.1738,-2.1784,-2.2135,-2.2276,-2.2203,-2.2175,-2.2101,-2.2473,-2.2919,-2.3231,-2.3277,-2.1674,-2.0267,-2.0377,-2.0733,-2.1465,-2.198,-2.2351,-2.2552,-2.2632,-2.2685,-2.2712,-2.2738,-2.279,-1.9076,-1.9085,-1.8921,-1.8521,-1.792,-1.7302,-1.6964,-1.6621,-1.6072,-1.5997,-1.6004,-1.5582,-1.4999,-1.4412,-1.4173,-1.4088,-1.4082,-1.3997,-1.3997,-1.4082,-1.4173,-1.4243,-1.4405,-1.4321,-1.4496,-1.4789,-1.4814,-1.461,-1.451,-1.453,-1.4649,-1.4439,-1.4569,-1.4864,-1.5158,-1.4931,-1.5166,-1.5343,-1.5199,-1.4801,-1.4336,-1.3987,-1.389,-1.413,-1.4236,-1.4146,-1.394,-1.4053,-1.4009,-1.4145,-1.4275,-1.4843,-1.58,-1.7203,-1.8108,-1.6703,-1.6459,-1.6331,-1.668,-1.6914,-1.7002,-1.7157,-1.7282,-1.772,-1.8567,-1.8965,-1.9078,-1.9116,-1.9116,-1.9116,-1.9101,-1.9325,-1.9654,-1.9925,-2.015,-2.0357,-2.0527,-2.0679,-2.0877,-2.1119,-2.1356,-2.1325,-2.1294,-2.1043,-2.0776,-2.0792,-2.0643,-2.0643,-2.0669,-2.1236,-2.1631,-2.1661,-2.1738,-2.1873,-2.1945,-2.1974,-2.1974,-2.1928,-2.1986,-2.2312,-2.2324,-2.1792,-2.0621,-1.9334,-1.8726,-1.9411,-2.0689,-2.1708,-2.2326,-2.2487,-2.2579,-2.2659,-2.2712,-2.2712,-2.2738,-1.8423,-1.841,-1.8674,-1.8345,-1.7676,-1.7235,-1.6885,-1.6507,-1.5824,-1.5658,-1.5582,-1.4992,-1.4405,-1.4166,-1.4088,-1.3997,-1.4088,-1.4088,-1.4166,-1.4166,-1.4166,-1.4243,-1.4321,-1.4237,-1.4405,-1.4727,-1.4842,-1.4617,-1.4438,-1.4295,-1.4275,-1.4145,-1.4425,-1.4721,-1.4864,-1.4871,-1.4944,-1.485,-1.4878,-1.4547,-1.4044,-1.3978,-1.3976,-1.4067,-1.4064,-1.4015,-1.3661,-1.3461,-1.3555,-1.4033,-1.427,-1.49,-1.592,-1.6399,-1.6535,-1.588,-1.6136,-1.706,-1.7148,-1.7099,-1.6948,-1.6989,-1.724,-1.7598,-1.8489,-1.8874,-1.9026,-1.9078,-1.9116,-1.9064,-1.9049,-1.9101,-1.9288,-1.9603,-1.9854,-2.008,-2.027,-2.0357,-2.0512,-2.0712,-2.0893,-2.0925,-2.0958,-2.1023,-2.1102,-2.1401,-2.1542,-2.1603,-2.1587,-2.1526,-2.1617,-2.1661,-2.1738,-2.1784,-2.1797,-2.1827,-2.1797,-2.1797,-2.184,-2.1899,-2.1995,-2.1545,-2.0639,-1.924,-1.7872,-1.8044,-1.9261,-2.0851,-2.2327,-2.2422,-2.2542,-2.2632,-2.2712,-2.2685,-2.2685,-1.792,-1.7665,-1.7926,-1.791,-1.7719,-1.6814,-1.635,-1.6087,-1.5416,-1.5082,-1.4992,-1.423,-1.3899,-1.399,-1.3913,-1.3913,-1.4082,-1.4088,-1.4166,-1.4243,-1.4237,-1.4237,-1.4321,-1.4321,-1.4482,-1.4692,-1.4689,-1.4604,-1.4394,-1.4204,-1.4178,-1.4111,-1.4289,-1.4577,-1.4768,-1.4783,-1.46,-1.4405,-1.4254,-1.3958,-1.3687,-1.3744,-1.395,-1.385,-1.3429,-1.3095,-1.3422,-1.2917,-1.2935,-1.3736,-1.4297,-1.4922,-1.5631,-1.575,-1.5564,-1.5893,-1.7023,-1.7918,-1.8075,-1.7076,-1.6517,-1.665,-1.6934,-1.7406,-1.8016,-1.8347,-1.8659,-1.8912,-1.8912,-1.895,-1.895,-1.8988,-1.9064,-1.9236,-1.9493,-1.9762,-1.9904,-1.999,-2.0115,-2.0323,-2.0426,-2.0494,-2.0527,-2.0545,-2.0893,-2.1167,-2.1341,-2.1388,-2.1419,-2.1388,-2.1587,-2.1678,-2.1738,-2.1768,-2.1768,-2.1768,-2.1708,-2.1708,-2.1708,-2.1768,-2.1827,-2.1201,-2.0804,-1.9628,-1.8452,-1.8095,-1.802,-1.9913,-2.1423,-2.2101,-2.2449,-2.2542,-2.2632,-2.2632,-2.2632,-1.7638,-1.7516,-1.7524,-1.7351,-1.6921,-1.6118,-1.5726,-1.5575,-1.5068,-1.4664,-1.4412,-1.3899,-1.3646,-1.3652,-1.3737,-1.3737,-1.3828,-1.4004,-1.4166,-1.4166,-1.4159,-1.4166,-1.4243,-1.4243,-1.4405,-1.4594,-1.4597,-1.4532,-1.4465,-1.4212,-1.403,-1.4026,-1.4145,-1.4425,-1.4609,-1.467,-1.4344,-1.3957,-1.3663,-1.3289,-1.3367,-1.3649,-1.3941,-1.3828,-1.3656,-1.3247,-1.3095,-1.265,-1.2856,-1.337,-1.4133,-1.4964,-1.5812,-1.585,-1.5992,-1.6236,-1.7557,-1.8009,-1.8101,-1.7015,-1.6262,-1.6705,-1.6947,-1.7157,-1.7447,-1.7652,-1.7935,-1.8254,-1.8606,-1.8644,-1.8644,-1.8697,-1.8774,-1.8912,-1.9124,-1.9398,-1.9508,-1.956,-1.9741,-1.9904,-2.0045,-2.0115,-2.0115,-2.008,-2.0494,-2.0876,-2.1054,-2.1151,-2.1135,-2.1199,-2.134,-2.1542,-2.1603,-2.1587,-2.1587,-2.1587,-2.1617,-2.1634,-2.1603,-2.1648,-2.1738,-2.1748,-2.1185,-2.0025,-1.9062,-1.8583,-1.8708,-1.9608,-2.0676,-2.1804,-2.2287,-2.2405,-2.2487,-2.2552,-2.2552,-1.7488,-1.7171,-1.7188,-1.6812,-1.6237,-1.5733,-1.5401,-1.5144,-1.4734,-1.4405,-1.3997,-1.3652,-1.3476,-1.3476,-1.3483,-1.3646,-1.3737,-1.3906,-1.4004,-1.4088,-1.4082,-1.4088,-1.4082,-1.4243,-1.4398,-1.458,-1.4597,-1.4532,-1.4535,-1.4357,-1.4104,-1.4018,-1.4,-1.4217,-1.4442,-1.4544,-1.4267,-1.3743,-1.3509,-1.3067,-1.3133,-1.3519,-1.3767,-1.362,-1.3446,-1.3166,-1.2842,-1.2492,-1.2634,-1.3153,-1.3901,-1.4899,-1.5818,-1.6524,-1.6818,-1.6998,-1.7224,-1.7323,-1.6888,-1.6586,-1.6013,-1.6362,-1.662,-1.6791,-1.6947,-1.6989,-1.7269,-1.7706,-1.8069,-1.8307,-1.8307,-1.8307,-1.8478,-1.862,-1.8774,-1.8988,-1.8988,-1.9026,-1.9288,-1.9472,-1.9617,-1.9762,-1.9833,-1.9818,-2.003,-2.0444,-2.0695,-2.0761,-2.0712,-2.0794,-2.1006,-2.1199,-2.1404,-2.1373,-2.1356,-2.1419,-2.1464,-2.1511,-2.1511,-2.1573,-2.1617,-2.1708,-2.1661,-2.0852,-1.9972,-1.9159,-1.9036,-1.9372,-2.0494,-2.1826,-2.2108,-2.2276,-2.2366,-2.2432,-2.2388,-1.7418,-1.6596,-1.6684,-1.6492,-1.6087,-1.5824,-1.5318,-1.4817,-1.4482,-1.4146,-1.3646,-1.3307,-1.3222,-1.3313,-1.3137,-1.3307,-1.3561,-1.3652,-1.3828,-1.3997,-1.4082,-1.4088,-1.4146,-1.4294,-1.4386,-1.4636,-1.4565,-1.4525,-1.4639,-1.4275,-1.4037,-1.4011,-1.3928,-1.4072,-1.4433,-1.4721,-1.4407,-1.3814,-1.3925,-1.3452,-1.312,-1.3338,-1.3425,-1.3299,-1.312,-1.2905,-1.2547,-1.2272,-1.2476,-1.3114,-1.3405,-1.4355,-1.5573,-1.5642,-1.5941,-1.6477,-1.6826,-1.6409,-1.5452,-1.5608,-1.5848,-1.5969,-1.6188,-1.6362,-1.6479,-1.6565,-1.6723,-1.7199,-1.757,-1.7842,-1.7882,-1.7963,-1.8202,-1.8361,-1.8478,-1.8581,-1.862,-1.862,-1.8851,-1.9078,-1.9302,-1.945,-1.953,-1.9603,-1.9711,-1.9995,-2.0308,-2.0376,-2.0292,-2.0308,-2.0494,-2.081,-2.1054,-2.1135,-2.1119,-2.1262,-2.1356,-2.1356,-2.1453,-2.1596,-2.1577,-2.1587,-2.1509,-2.1388,-2.0884,-2.0094,-1.9367,-1.8823,-2.0334,-2.1707,-2.1994,-2.2175,-2.2237,-2.2293,-2.2276,-1.7029,-1.721,-1.7009,-1.6409,-1.5499,-1.5159,-1.4901,-1.4657,-1.4153,-1.373,-1.3307,-1.3143,-1.2966,-1.2966,-1.2966,-1.3052,-1.3307,-1.3476,-1.3652,-1.3822,-1.3997,-1.4159,-1.4189,-1.4227,-1.4296,-1.4455,-1.4374,-1.4311,-1.4433,-1.4141,-1.4035,-1.395,-1.4065,-1.4201,-1.4497,-1.4736,-1.4579,-1.3988,-1.3785,-1.3461,-1.2972,-1.3199,-1.3322,-1.3021,-1.2923,-1.2653,-1.2263,-1.2079,-1.2448,-1.2964,-1.3203,-1.405,-1.4974,-1.505,-1.5631,-1.5792,-1.5881,-1.5039,-1.5017,-1.5468,-1.5703,-1.5792,-1.5893,-1.6013,-1.6044,-1.6349,-1.6565,-1.668,-1.6947,-1.7199,-1.7323,-1.776,-1.8003,-1.8123,-1.8242,-1.8386,-1.8425,-1.8361,-1.8464,-1.8659,-1.8889,-1.8889,-1.895,-1.9087,-1.9221,-1.9384,-1.9711,-1.9945,-1.9945,-1.9818,-1.9869,-2.0304,-2.061,-2.0761,-2.0877,-2.1055,-2.1295,-2.1456,-2.1601,-2.1795,-2.1713,-2.1743,-2.1745,-2.1827,-2.1455,-2.1032,-2.0358,-1.9988,-2.0643,-2.1486,-2.1761,-2.1928,-2.1974,-2.2106,-2.2192,-1.6355,-1.6929,-1.6855,-1.6167,-1.5284,-1.4949,-1.4734,-1.4412,-1.3906,-1.3568,-1.3313,-1.3143,-1.3052,-1.2966,-1.2796,-1.2966,-1.3222,-1.3307,-1.3561,-1.3737,-1.4004,-1.4092,-1.4117,-1.4138,-1.4251,-1.4338,-1.4304,-1.4215,-1.4516,-1.424,-1.4088,-1.4072,-1.4209,-1.4425,-1.4609,-1.4616,-1.4458,-1.398,-1.3793,-1.3518,-1.3078,-1.2915,-1.2957,-1.2728,-1.2586,-1.2546,-1.2175,-1.2228,-1.249,-1.2876,-1.3429,-1.3977,-1.4477,-1.4638,-1.5015,-1.4816,-1.5153,-1.4592,-1.5062,-1.5468,-1.5703,-1.5792,-1.5792,-1.5792,-1.5836,-1.6057,-1.6188,-1.6262,-1.6392,-1.665,-1.6989,-1.7419,-1.7666,-1.7788,-1.7963,-1.8109,-1.8189,-1.8123,-1.8123,-1.8321,-1.8464,-1.8478,-1.8439,-1.8503,-1.863,-1.8836,-1.9064,-1.931,-1.9551,-1.9472,-1.945,-1.9848,-2.0185,-2.0376,-2.0613,-2.0925,-2.1166,-2.1472,-2.1777,-2.2082,-2.2292,-2.2359,-2.2292,-2.2163,-2.1665,-2.1311,-2.1262,-2.1293,-2.1228,-2.1321,-2.1507,-2.1661,-2.1738,-2.1886,-2.2061,-1.5583,-1.5823,-1.6043,-1.5904,-1.5529,-1.5141,-1.4671,-1.4088,-1.3822,-1.3646,-1.3652,-1.3228,-1.3137,-1.3222,-1.2875,-1.2966,-1.3313,-1.3398,-1.3483,-1.3711,-1.3937,-1.4041,-1.4042,-1.4128,-1.423,-1.4314,-1.4334,-1.4439,-1.4708,-1.4444,-1.4209,-1.4274,-1.4641,-1.4713,-1.4696,-1.455,-1.4312,-1.4061,-1.3983,-1.3583,-1.3002,-1.2699,-1.2552,-1.2438,-1.2444,-1.2263,-1.2166,-1.2343,-1.2689,-1.3209,-1.3877,-1.4304,-1.4298,-1.3774,-1.3613,-1.399,-1.5051,-1.5395,-1.5312,-1.5638,-1.5727,-1.5828,-1.5792,-1.5792,-1.5836,-1.5881,-1.5969,-1.6088,-1.6262,-1.6392,-1.662,-1.6947,-1.724,-1.7447,-1.7706,-1.7828,-1.7909,-1.7922,-1.7882,-1.8003,-1.8189,-1.8189,-1.8069,-1.8109,-1.8201,-1.8411,-1.8606,-1.8798,-1.9049,-1.925,-1.9265,-1.9413,-1.9762,-1.9995,-2.0308,-2.0724,-2.1256,-2.1609,-2.2202,-2.2537,-2.2745,-2.3048,-2.3171,-2.2885,-2.1947,-2.1518,-2.1455,-2.1295,-2.1103,-2.1198,-2.1246,-2.1386,-2.1479,-2.1721,-2.1886,-1.5442,-1.5574,-1.6047,-1.6011,-1.5374,-1.4706,-1.425,-1.4088,-1.3822,-1.3652,-1.3483,-1.3228,-1.3222,-1.3313,-1.2796,-1.2966,-1.3137,-1.3313,-1.3483,-1.3685,-1.3901,-1.4077,-1.4093,-1.413,-1.4183,-1.4275,-1.4439,-1.4548,-1.4655,-1.4569,-1.4776,-1.4919,-1.4999,-1.4999,-1.4947,-1.4727,-1.4453,-1.4182,-1.4188,-1.3656,-1.3068,-1.2741,-1.2476,-1.2322,-1.2458,-1.2307,-1.2105,-1.2618,-1.294,-1.323,-1.42,-1.4815,-1.4787,-1.4277,-1.3987,-1.4302,-1.5414,-1.6244,-1.5773,-1.5924,-1.6017,-1.5832,-1.5792,-1.5792,-1.5792,-1.5792,-1.5792,-1.5957,-1.6132,-1.6306,-1.6362,-1.6565,-1.6808,-1.7031,-1.7199,-1.7282,-1.7365,-1.7365,-1.7419,-1.776,-1.7909,-1.7733,-1.7666,-1.7733,-1.7841,-1.8016,-1.8175,-1.8386,-1.8581,-1.8851,-1.9304,-1.9485,-1.9479,-1.9771,-2.0233,-2.0659,-2.1236,-2.1818,-2.2386,-2.2975,-2.3307,-2.3601,-2.398,-2.3569,-2.2596,-2.1998,-2.1652,-2.1318,-2.0711,-2.0777,-2.0859,-2.1055,-2.1261,-2.1479,-2.1601,-1.5204,-1.5394,-1.5688,-1.5531,-1.5032,-1.4275,-1.3908,-1.3761,-1.36,-1.3561,-1.3483,-1.3228,-1.3222,-1.3392,-1.2875,-1.2875,-1.3483,-1.3476,-1.3568,-1.384,-1.3994,-1.4149,-1.4194,-1.4084,-1.4186,-1.4355,-1.4582,-1.4681,-1.4856,-1.5213,-1.5426,-1.5275,-1.5355,-1.5417,-1.5359,-1.5163,-1.4841,-1.4457,-1.4053,-1.3639,-1.3284,-1.2983,-1.2712,-1.2414,-1.2612,-1.2499,-1.2272,-1.295,-1.323,-1.3524,-1.4561,-1.501,-1.4946,-1.4508,-1.4255,-1.4606,-1.5717,-1.6781,-1.7014,-1.6527,-1.616,-1.5723,-1.5647,-1.5748,-1.5792,-1.5792,-1.5792,-1.5881,-1.6044,-1.6219,-1.6219,-1.6219,-1.6392,-1.6552,-1.6637,-1.6693,-1.6735,-1.6765,-1.7031,-1.7419,-1.7447,-1.7282,-1.724,-1.7352,-1.7516,-1.772,-1.7895,-1.8083,-1.8307,-1.8542,-1.9262,-1.9798,-1.9616,-1.9553,-2.0128,-2.0935,-2.1734,-2.2346,-2.2676,-2.3211,-2.3725,-2.4014,-2.4177,-2.3826,-2.3192,-2.266,-2.2103,-2.0844,-2.0181,-2.0377,-2.0562,-2.0592,-2.0876,-2.1199,-2.1214,-1.4721,-1.5136,-1.4925,-1.4746,-1.4545,-1.3878,-1.3431,-1.3225,-1.3182,-1.3419,-1.3503,-1.3184,-1.3243,-1.3296,-1.2868,-1.288,-1.3296,-1.3458,-1.3542,-1.4001,-1.4068,-1.4129,-1.4137,-1.416,-1.4289,-1.4519,-1.4784,-1.5133,-1.5417,-1.57,-1.585,-1.5638,-1.6123,-1.6193,-1.5683,-1.5675,-1.5295,-1.4645,-1.4101,-1.3631,-1.3284,-1.3223,-1.316,-1.2655,-1.2811,-1.295,-1.2926,-1.3226,-1.3693,-1.4116,-1.4571,-1.5069,-1.5054,-1.512,-1.4881,-1.5078,-1.6211,-1.7225,-1.7656,-1.7145,-1.601,-1.552,-1.5334,-1.557,-1.5703,-1.5969,-1.6001,-1.5881,-1.6057,-1.6088,-1.6088,-1.6057,-1.6132,-1.6175,-1.6219,-1.6349,-1.6479,-1.6565,-1.6765,-1.7115,-1.7282,-1.7115,-1.7031,-1.7157,-1.7227,-1.7434,-1.7733,-1.7922,-1.818,-1.8407,-1.9244,-2.0105,-2.0098,-2.0084,-2.0749,-2.159,-2.2469,-2.2983,-2.3071,-2.33,-2.3662,-2.3974,-2.4297,-2.384,-2.3329,-2.3062,-2.2447,-2.1424,-2.0685,-2.0442,-2.0527,-2.0248,-2.0404,-2.0677,-2.0728,-1.3657,-1.3535,-1.3775,-1.395,-1.3838,-1.3166,-1.2734,-1.2512,-1.232,-1.2638,-1.3048,-1.2901,-1.28,-1.2845,-1.2533,-1.2616,-1.294,-1.3213,-1.3411,-1.3635,-1.3801,-1.4079,-1.4138,-1.4342,-1.447,-1.4761,-1.515,-1.5709,-1.6053,-1.6333,-1.6542,-1.6551,-1.676,-1.6403,-1.6061,-1.607,-1.5607,-1.4837,-1.44,-1.3769,-1.322,-1.3054,-1.2937,-1.2722,-1.2779,-1.2937,-1.3023,-1.3338,-1.365,-1.4033,-1.4636,-1.5167,-1.5613,-1.6187,-1.6729,-1.7085,-1.6637,-1.7447,-1.7674,-1.7118,-1.5986,-1.5383,-1.5244,-1.548,-1.5736,-1.6088,-1.6219,-1.6057,-1.5969,-1.6013,-1.5969,-1.5881,-1.5836,-1.5836,-1.5881,-1.6057,-1.6231,-1.6392,-1.6509,-1.6723,-1.6989,-1.6989,-1.6876,-1.6918,-1.6989,-1.724,-1.7666,-1.7963,-1.8234,-1.8618,-1.9515,-2.0302,-2.0635,-2.0869,-2.1474,-2.1911,-2.2614,-2.2951,-2.2993,-2.3271,-2.358,-2.3666,-2.3767,-2.3739,-2.3471,-2.3179,-2.2888,-2.261,-2.1921,-2.1129,-2.0309,-2.0028,-1.9722,-1.9854,-1.9975,-1.2848,-1.2585,-1.3079,-1.316,-1.2933,-1.2397,-1.1975,-1.183,-1.1672,-1.1836,-1.2128,-1.2135,-1.2148,-1.2172,-1.1988,-1.2123,-1.2447,-1.2859,-1.3214,-1.3441,-1.3803,-1.4138,-1.4349,-1.4574,-1.4936,-1.5229,-1.578,-1.6333,-1.6682,-1.6899,-1.7047,-1.6968,-1.689,-1.6751,-1.6412,-1.6202,-1.5773,-1.5018,-1.466,-1.4122,-1.3308,-1.3054,-1.2931,-1.2796,-1.2999,-1.3154,-1.3305,-1.3564,-1.3614,-1.4013,-1.4636,-1.54,-1.5972,-1.6476,-1.6645,-1.6627,-1.6531,-1.6769,-1.6947,-1.6607,-1.5742,-1.5337,-1.5119,-1.5334,-1.5424,-1.5768,-1.6219,-1.61,-1.5925,-1.5925,-1.5824,-1.5703,-1.5736,-1.5748,-1.5836,-1.5969,-1.6057,-1.6132,-1.6262,-1.6392,-1.6534,-1.6448,-1.6491,-1.6791,-1.6833,-1.6918,-1.7378,-1.7543,-1.7918,-1.8698,-1.9693,-2.0484,-2.084,-2.1341,-2.1887,-2.216,-2.2476,-2.2723,-2.2857,-2.3008,-2.3143,-2.3187,-2.3201,-2.3172,-2.3187,-2.3186,-2.2952,-2.2669,-2.2248,-2.1368,-2.0486,-1.972,-1.9455,-1.9322,-1.9626,-1.2173,-1.2137,-1.2399,-1.2441,-1.2176,-1.1682,-1.1284,-1.1141,-1.1053,-1.0946,-1.0899,-1.1105,-1.1248,-1.1364,-1.1438,-1.1658,-1.1928,-1.2337,-1.2829,-1.3299,-1.3881,-1.4116,-1.4509,-1.4897,-1.5396,-1.5859,-1.6342,-1.6612,-1.6881,-1.7166,-1.7314,-1.7107,-1.7107,-1.7107,-1.6551,-1.6175,-1.5747,-1.5155,-1.4792,-1.4391,-1.3803,-1.314,-1.303,-1.3224,-1.3536,-1.3899,-1.3791,-1.3674,-1.3612,-1.3873,-1.4391,-1.5215,-1.5931,-1.6368,-1.5794,-1.5719,-1.5967,-1.5843,-1.5707,-1.58,-1.543,-1.5234,-1.5199,-1.5153,-1.5244,-1.5513,-1.5957,-1.6044,-1.5869,-1.5836,-1.5748,-1.5558,-1.5603,-1.5706,-1.584,-1.5881,-1.5969,-1.5969,-1.6057,-1.6144,-1.61,-1.6013,-1.6188,-1.6504,-1.6663,-1.6748,-1.6833,-1.6989,-1.7418,-1.8548,-1.9621,-2.0419,-2.1042,-2.1605,-2.2154,-2.2225,-2.2263,-2.2356,-2.2509,-2.2632,-2.2723,-2.2799,-2.2754,-2.2632,-2.2634,-2.2862,-2.2591,-2.2207,-2.1784,-2.1462,-2.0883,-2.0089,-1.9504,-1.9412,-1.9645,-1.1553,-1.2428,-1.149,-1.1434,-1.1769,-1.0864,-1.0553,-1.0542,-1.0166,-0.9931,-0.9917,-0.9676,-0.9868,-1.0634,-1.0979,-1.1147,-1.1312,-1.184,-1.219,-1.2613,-1.3506,-1.3916,-1.4457,-1.5221,-1.5974,-1.6473,-1.6802,-1.7028,-1.7226,-1.7501,-1.7638,-1.751,-1.7235,-1.7028,-1.6542,-1.6175,-1.5675,-1.5238,-1.4998,-1.4698,-1.3925,-1.3361,-1.3186,-1.3294,-1.3467,-1.3649,-1.3705,-1.3519,-1.3512,-1.3643,-1.3942,-1.4751,-1.5545,-1.6095,-1.5733,-1.5127,-1.535,-1.5372,-1.5269,-1.5337,-1.5188,-1.5222,-1.5108,-1.5062,-1.5153,-1.5289,-1.5603,-1.5824,-1.5736,-1.5881,-1.5792,-1.5468,-1.539,-1.5735,-1.5942,-1.5965,-1.6013,-1.5969,-1.5925,-1.5969,-1.6013,-1.5925,-1.5925,-1.6188,-1.6362,-1.6436,-1.6534,-1.6705,-1.6905,-1.8177,-1.9491,-2.0253,-2.1016,-2.1539,-2.1969,-2.1894,-2.1935,-2.203,-2.2123,-2.231,-2.2402,-2.2449,-2.2356,-2.2123,-2.237,-2.2663,-2.2324,-2.1841,-2.171,-2.1425,-2.1125,-2.0559,-1.9894,-1.9502,-1.9724]}]]